[[{"header":{"parameterUnit":"m.s-1","parameterCategory":1,"la1":30.6,"la2":29.2853,"lo1":-89.7004,"lo2":-87.6739,"dy":0.0162,"dx":0.0183,"nx":112,"ny":82,"refTime":"2023-09-25T00:00:00:Z","depth":0,"parameterNumber":2,"parameterNumberName":"U-component_of_WINDS"},"data":[0.0,0.0,0.0,0.0,0.0,0.0,0.0,0.0,0.0,0.0,0.0,0.0,0.0,0.0,0.0,0.0,0.0,0.0,0.0,0.0,0.0,0.0,0.0,0.0,0.0,0.0,0.0,0.0,0.0,0.0,0.0,0.0,0.0,0.0,0.0,0.0,0.0,0.0,0.0,0.0,0.0,0.0,0.0,0.0,0.0,0.0,0.0,0.0,0.0,0.0,0.0,0.0,0.0,0.0,0.0,0.0,0.0,0.0,0.0,0.0,0.0,0.0,0.0,0.0,0.0,0.0,0.0,0.0,0.0,0.0,0.0,0.0,0.0,0.0,0.0,0.0,0.0,0.0,0.0,0.0,0.0,0.0,0.0,0.0,0.0,0.0,0.0,0.0,0.0,0.0,0.0,-3.3609,-4.0325,-4.4493,-4.4777,-4.3642,-3.9929,-3.292,0.0,0.0,0.0,0.0,0.0,0.0,0.0,0.0,0.0,0.0,0.0,0.0,0.0,0.0,0.0,0.0,0.0,0.0,0.0,0.0,0.0,0.0,0.0,0.0,0.0,0.0,0.0,0.0,0.0,0.0,0.0,0.0,0.0,0.0,0.0,0.0,0.0,0.0,0.0,0.0,0.0,0.0,0.0,0.0,0.0,0.0,0.0,0.0,0.0,0.0,0.0,0.0,0.0,0.0,0.0,0.0,0.0,0.0,0.0,0.0,0.0,0.0,0.0,0.0,0.0,0.0,0.0,0.0,0.0,0.0,0.0,0.0,0.0,0.0,0.0,0.0,0.0,0.0,0.0,0.0,0.0,0.0,0.0,0.0,0.0,0.0,0.0,0.0,0.0,0.0,0.0,0.0,0.0,0.0,0.0,0.0,0.0,0.0,0.0,0.0,0.0,0.0,0.0,0.0,-3.063,-3.8233,-4.1618,-4.3356,-4.3391,-4.0625,-3.6746,-3.1729,0.0,0.0,0.0,0.0,0.0,0.0,0.0,0.0,0.0,0.0,0.0,0.0,0.0,0.0,0.0,0.0,0.0,0.0,0.0,0.0,0.0,0.0,0.0,0.0,0.0,0.0,0.0,0.0,0.0,0.0,0.0,0.0,0.0,0.0,0.0,0.0,0.0,0.0,0.0,0.0,0.0,0.0,0.0,0.0,0.0,0.0,0.0,0.0,0.0,0.0,0.0,0.0,0.0,0.0,0.0,0.0,0.0,0.0,0.0,0.0,0.0,0.0,0.0,0.0,0.0,0.0,0.0,0.0,0.0,0.0,0.0,0.0,0.0,0.0,0.0,0.0,0.0,0.0,0.0,0.0,0.0,0.0,0.0,0.0,0.0,0.0,0.0,0.0,0.0,0.0,0.0,0.0,0.0,0.0,0.0,0.0,0.0,0.0,0.0,0.0,0.0,0.0,0.0,-2.9217,-3.3826,-4.0332,-4.1854,-4.2412,-4.2412,-3.9258,-3.5427,-3.1031,-2.94,0.0,0.0,0.0,0.0,0.0,0.0,0.0,0.0,0.0,0.0,0.0,0.0,0.0,0.0,0.0,0.0,0.0,0.0,0.0,0.0,0.0,0.0,0.0,0.0,0.0,0.0,0.0,0.0,0.0,0.0,0.0,0.0,0.0,0.0,0.0,0.0,0.0,0.0,0.0,0.0,0.0,0.0,0.0,0.0,0.0,0.0,0.0,0.0,0.0,0.0,0.0,0.0,0.0,0.0,0.0,0.0,0.0,0.0,0.0,0.0,0.0,0.0,0.0,0.0,0.0,0.0,0.0,0.0,0.0,0.0,0.0,0.0,0.0,0.0,0.0,0.0,0.0,0.0,0.0,0.0,0.0,0.0,0.0,0.0,0.0,0.0,0.0,0.0,0.0,0.0,0.0,0.0,0.0,0.0,0.0,0.0,0.0,0.0,0.0,0.0,0.0,0.0,-3.2172,-3.5343,-4.0646,-4.1219,-4.1219,-4.1219,-3.7712,-3.3878,-2.9984,-2.6698,0.0,0.0,0.0,0.0,0.0,0.0,0.0,0.0,0.0,0.0,0.0,0.0,0.0,0.0,0.0,0.0,0.0,0.0,0.0,0.0,0.0,0.0,0.0,0.0,0.0,0.0,0.0,0.0,0.0,0.0,0.0,0.0,0.0,0.0,0.0,0.0,0.0,0.0,0.0,0.0,0.0,0.0,0.0,0.0,0.0,0.0,0.0,0.0,0.0,0.0,0.0,0.0,0.0,0.0,0.0,0.0,0.0,0.0,0.0,0.0,0.0,0.0,0.0,0.0,0.0,0.0,0.0,0.0,0.0,0.0,0.0,0.0,0.0,0.0,0.0,0.0,0.0,0.0,0.0,0.0,0.0,0.0,0.0,0.0,0.0,0.0,0.0,0.0,0.0,0.0,0.0,0.0,0.0,0.0,0.0,0.0,0.0,0.0,0.0,0.0,0.0,0.0,-3.0526,-3.3602,-3.8904,-3.9477,-3.9477,-3.9477,-3.4911,-3.0829,-2.7988,-2.3233,0.0,0.0,0.0,0.0,0.0,0.0,0.0,0.0,0.0,0.0,0.0,0.0,0.0,0.0,0.0,0.0,0.0,0.0,0.0,0.0,0.0,0.0,0.0,0.0,0.0,0.0,0.0,0.0,0.0,0.0,0.0,0.0,0.0,0.0,0.0,0.0,0.0,0.0,0.0,0.0,0.0,0.0,0.0,0.0,0.0,0.0,0.0,0.0,0.0,0.0,0.0,0.0,0.0,0.0,0.0,0.0,0.0,0.0,0.0,0.0,0.0,0.0,0.0,0.0,0.0,0.0,0.0,0.0,0.0,0.0,0.0,0.0,0.0,0.0,0.0,0.0,0.0,0.0,0.0,0.0,0.0,0.0,0.0,0.0,0.0,0.0,0.0,0.0,0.0,0.0,0.0,0.0,0.0,0.0,0.0,0.0,0.0,0.0,0.0,0.0,0.0,0.0,-3.0458,-3.3371,0.0,-3.8007,-3.7488,-3.6969,-3.3718,-3.0354,-2.7176,0.0,0.0,0.0,0.0,0.0,0.0,0.0,0.0,0.0,0.0,0.0,0.0,0.0,0.0,0.0,0.0,0.0,0.0,0.0,0.0,0.0,0.0,0.0,0.0,0.0,0.0,0.0,0.0,0.0,0.0,0.0,0.0,0.0,0.0,0.0,0.0,0.0,0.0,0.0,0.0,0.0,0.0,0.0,0.0,0.0,0.0,0.0,0.0,0.0,0.0,0.0,0.0,0.0,0.0,0.0,0.0,0.0,0.0,0.0,0.0,0.0,0.0,0.0,0.0,0.0,0.0,0.0,0.0,0.0,0.0,0.0,0.0,0.0,0.0,0.0,0.0,0.0,0.0,0.0,0.0,0.0,0.0,0.0,0.0,0.0,0.0,0.0,0.0,0.0,0.0,0.0,0.0,0.0,0.0,0.0,0.0,0.0,0.0,0.0,0.0,0.0,0.0,-2.768,-3.0247,-3.3006,0.0,-3.6507,-3.5865,-3.4769,-3.2102,-2.914,-2.6005,0.0,0.0,0.0,0.0,0.0,0.0,0.0,0.0,0.0,0.0,0.0,0.0,0.0,0.0,0.0,0.0,0.0,0.0,0.0,0.0,0.0,0.0,0.0,0.0,0.0,0.0,0.0,0.0,0.0,0.0,0.0,0.0,0.0,0.0,0.0,0.0,0.0,0.0,0.0,0.0,0.0,0.0,0.0,0.0,0.0,0.0,0.0,0.0,0.0,0.0,0.0,0.0,0.0,0.0,0.0,0.0,0.0,0.0,0.0,0.0,0.0,0.0,0.0,0.0,0.0,0.0,0.0,0.0,0.0,0.0,0.0,0.0,0.0,0.0,0.0,0.0,0.0,0.0,0.0,0.0,0.0,0.0,0.0,0.0,0.0,0.0,0.0,0.0,0.0,0.0,0.0,0.0,0.0,0.0,0.0,0.0,0.0,0.0,0.0,0.0,0.0,0.0,-2.6274,-2.9563,-3.2314,-3.4013,-3.4968,-3.4769,-3.3026,-2.9813,-2.6818,0.0,0.0,0.0,0.0,0.0,0.0,0.0,0.0,0.0,0.0,0.0,0.0,0.0,0.0,0.0,0.0,0.0,0.0,0.0,0.0,0.0,0.0,0.0,0.0,0.0,0.0,0.0,0.0,0.0,0.0,0.0,0.0,0.0,0.0,0.0,0.0,0.0,0.0,0.0,0.0,0.0,0.0,0.0,0.0,0.0,0.0,0.0,0.0,0.0,0.0,0.0,0.0,0.0,0.0,0.0,0.0,0.0,0.0,0.0,0.0,0.0,0.0,0.0,0.0,0.0,0.0,0.0,0.0,0.0,0.0,0.0,0.0,0.0,0.0,0.0,0.0,0.0,0.0,0.0,0.0,0.0,0.0,0.0,0.0,0.0,0.0,0.0,0.0,0.0,0.0,0.0,0.0,0.0,0.0,0.0,0.0,0.0,0.0,0.0,0.0,0.0,0.0,0.0,-2.6274,-2.8506,-3.0737,-3.3045,-3.3506,-3.2987,-3.1269,-2.966,-2.7145,-2.3413,0.0,0.0,0.0,0.0,0.0,0.0,0.0,0.0,0.0,0.0,0.0,0.0,0.0,0.0,0.0,0.0,0.0,0.0,0.0,0.0,0.0,0.0,0.0,0.0,0.0,0.0,0.0,0.0,0.0,0.0,0.0,0.0,0.0,0.0,0.0,0.0,0.0,0.0,0.0,0.0,0.0,0.0,0.0,0.0,0.0,0.0,0.0,0.0,0.0,0.0,0.0,0.0,0.0,0.0,0.0,0.0,0.0,0.0,0.0,0.0,0.0,0.0,0.0,0.0,0.0,0.0,0.0,0.0,0.0,0.0,0.0,0.0,0.0,0.0,0.0,0.0,0.0,0.0,0.0,0.0,0.0,0.0,0.0,0.0,0.0,0.0,0.0,0.0,0.0,0.0,0.0,0.0,0.0,0.0,0.0,0.0,0.0,0.0,0.0,0.0,0.0,0.0,-2.5788,-2.7852,-2.9819,-3.1698,-3.191,-3.1218,-2.9544,-2.8602,-2.6587,-2.3028,0.0,0.0,0.0,0.0,0.0,0.0,0.0,0.0,0.0,0.0,0.0,0.0,0.0,0.0,0.0,0.0,0.0,0.0,0.0,0.0,0.0,0.0,0.0,0.0,0.0,0.0,0.0,0.0,0.0,0.0,0.0,0.0,0.0,0.0,0.0,0.0,0.0,0.0,0.0,0.0,0.0,0.0,0.0,0.0,0.0,0.0,0.0,0.0,0.0,0.0,0.0,0.0,0.0,0.0,0.0,0.0,0.0,0.0,0.0,0.0,0.0,0.0,0.0,0.0,0.0,0.0,0.0,0.0,0.0,0.0,0.0,0.0,0.0,0.0,0.0,0.0,0.0,0.0,0.0,0.0,0.0,0.0,0.0,0.0,0.0,0.0,0.0,0.0,0.0,0.0,0.0,0.0,0.0,0.0,0.0,0.0,0.0,0.0,0.0,0.0,0.0,0.0,-2.5077,-2.7467,-2.9352,-3.0308,-3.0327,-2.9635,-2.8049,-2.7101,-2.5505,-2.297,0.0,0.0,0.0,0.0,0.0,0.0,0.0,0.0,0.0,0.0,0.0,0.0,0.0,0.0,0.0,0.0,0.0,0.0,0.0,0.0,0.0,0.0,0.0,0.0,0.0,0.0,0.0,0.0,0.0,0.0,0.0,0.0,0.0,0.0,0.0,0.0,0.0,0.0,0.0,0.0,0.0,0.0,0.0,0.0,0.0,0.0,0.0,0.0,0.0,0.0,0.0,0.0,0.0,0.0,0.0,0.0,0.0,0.0,0.0,0.0,-3.0546,0.0,0.0,0.0,0.0,0.0,0.0,0.0,0.0,0.0,0.0,0.0,0.0,0.0,0.0,0.0,0.0,0.0,0.0,0.0,0.0,0.0,0.0,0.0,0.0,0.0,0.0,0.0,0.0,0.0,0.0,0.0,0.0,0.0,0.0,0.0,0.0,0.0,0.0,0.0,0.0,0.0,-2.5077,-2.6967,-2.8736,-3.0231,-2.9794,-2.8992,-2.7992,-2.7101,-2.5505,-2.297,0.0,0.0,0.0,0.0,0.0,0.0,0.0,0.0,0.0,0.0,0.0,0.0,0.0,0.0,0.0,0.0,0.0,0.0,0.0,0.0,0.0,0.0,0.0,0.0,0.0,0.0,0.0,0.0,0.0,0.0,0.0,0.0,0.0,0.0,0.0,0.0,0.0,0.0,0.0,0.0,0.0,0.0,0.0,0.0,0.0,0.0,0.0,0.0,0.0,0.0,0.0,0.0,0.0,0.0,0.0,0.0,0.0,0.0,0.0,0.0,0.0,-3.1913,0.0,0.0,0.0,0.0,0.0,0.0,0.0,0.0,0.0,0.0,0.0,0.0,0.0,0.0,0.0,0.0,0.0,0.0,0.0,0.0,0.0,0.0,0.0,0.0,0.0,0.0,0.0,0.0,0.0,0.0,0.0,0.0,0.0,0.0,0.0,0.0,0.0,0.0,0.0,0.0,-2.5077,-2.6813,-2.8371,-2.964,-2.9025,-2.8184,-2.7351,-2.6486,-2.5255,-2.3528,-2.2643,0.0,0.0,0.0,0.0,0.0,0.0,0.0,0.0,0.0,0.0,0.0,0.0,0.0,0.0,0.0,0.0,0.0,0.0,0.0,0.0,0.0,0.0,0.0,0.0,0.0,0.0,0.0,0.0,0.0,0.0,0.0,0.0,0.0,0.0,0.0,0.0,0.0,0.0,0.0,0.0,0.0,0.0,0.0,0.0,0.0,0.0,0.0,0.0,0.0,0.0,0.0,0.0,0.0,-3.8555,-3.9978,-4.1158,-4.1158,-4.081,-4.0123,-3.8975,-3.695,-3.438,0.0,0.0,0.0,0.0,0.0,0.0,0.0,0.0,0.0,0.0,0.0,0.0,0.0,0.0,0.0,0.0,0.0,0.0,0.0,0.0,0.0,0.0,0.0,0.0,0.0,-2.955,-2.88,0.0,0.0,0.0,0.0,0.0,0.0,0.0,0.0,0.0,0.0,0.0,0.0,-2.4904,-2.6736,-2.8203,-2.9011,-2.8242,-2.7381,-2.6689,-2.5803,-2.5014,-2.4373,-2.2829,-2.1947,0.0,0.0,0.0,0.0,0.0,0.0,0.0,0.0,0.0,0.0,0.0,0.0,0.0,0.0,0.0,0.0,0.0,0.0,0.0,0.0,0.0,0.0,0.0,0.0,0.0,0.0,0.0,0.0,0.0,0.0,0.0,0.0,-2.4062,-2.4062,0.0,0.0,0.0,0.0,0.0,0.0,0.0,0.0,0.0,0.0,0.0,0.0,0.0,0.0,-3.498,-3.9121,-4.0976,-4.0566,-4.5176,-4.709,-4.6562,-4.6562,-4.6847,-4.7223,-4.4934,0.0,-3.5561,-3.536,0.0,0.0,0.0,0.0,0.0,0.0,0.0,0.0,0.0,0.0,0.0,0.0,0.0,0.0,0.0,0.0,0.0,0.0,0.0,0.0,0.0,0.0,-3.1814,-3.1448,-3.1352,-3.1237,0.0,-2.7942,-2.5308,-2.475,-2.3135,0.0,0.0,0.0,0.0,0.0,0.0,0.0,-2.4221,-2.6395,-2.8203,-2.9011,-2.7698,-2.6762,-2.6683,-2.5831,-2.5278,-2.5232,-2.4302,-2.3764,-2.3764,-2.3667,0.0,0.0,0.0,0.0,0.0,0.0,0.0,0.0,0.0,0.0,0.0,0.0,0.0,0.0,0.0,0.0,0.0,0.0,0.0,0.0,0.0,0.0,0.0,0.0,0.0,0.0,0.0,0.0,0.0,-2.4824,-2.6953,-2.5977,-2.8164,-2.8398,0.0,0.0,0.0,0.0,0.0,0.0,0.0,0.0,0.0,-3.623,-3.9023,-4.0918,-4.1777,-4.5117,-4.6836,-4.6953,-4.8769,-4.9668,-4.9707,-4.8769,-4.8768,-4.9426,-4.7362,-4.4646,-4.1547,-3.955,-3.7943,-3.6506,0.0,0.0,0.0,0.0,-3.2024,-3.2798,-3.3856,-3.4506,0.0,0.0,0.0,0.0,0.0,0.0,0.0,0.0,0.0,0.0,0.0,0.0,0.0,-3.3692,-3.3846,-3.3692,-3.3218,-3.0506,-2.775,0.0,-2.5524,-2.4485,-2.2562,0.0,0.0,0.0,0.0,0.0,-2.5433,-2.6935,-2.8092,-2.8435,-2.743,-2.6535,-2.6055,-2.5657,-2.5421,-2.5443,-2.4678,-2.4189,-2.4154,-2.4169,-2.3736,0.0,0.0,0.0,0.0,0.0,0.0,0.0,0.0,0.0,0.0,0.0,0.0,0.0,0.0,0.0,0.0,0.0,0.0,0.0,0.0,0.0,0.0,0.0,0.0,0.0,0.0,0.0,0.0,-2.7422,-2.9844,-2.7891,-3.1328,-3.2226,0.0,0.0,0.0,0.0,0.0,0.0,-3.6523,-3.793,-3.9629,-4.1816,-4.5195,-4.7383,-4.8262,-5.0195,-5.1367,-5.1738,-5.1133,-5.1035,-5.1348,-4.9902,-4.9707,-5.0391,-4.8457,-4.7363,-4.6699,-4.3158,-4.114,-4.0037,-3.7488,-3.6547,-3.6513,-3.5693,-3.5678,-3.6304,-3.798,-3.8747,-3.8912,-3.8458,0.0,-3.5996,-3.3626,0.0,0.0,0.0,0.0,-3.0758,-3.2033,-3.2977,-3.3909,-3.5237,-3.5558,-3.5326,-3.4457,-3.261,-3.0418,0.0,-2.76,-2.6786,-2.4266,0.0,0.0,0.0,0.0,-2.6149,-2.659,-2.7466,-2.8028,-2.8028,-2.7097,-2.6208,-2.557,-2.55,-2.5517,-2.5513,-2.496,-2.4581,-2.4523,-2.4539,-2.4199,-2.3505,0.0,0.0,0.0,0.0,0.0,0.0,0.0,0.0,0.0,0.0,0.0,0.0,0.0,0.0,0.0,0.0,0.0,0.0,0.0,0.0,0.0,0.0,0.0,0.0,0.0,0.0,0.0,0.0,0.0,-2.9766,-3.6777,0.0,0.0,0.0,0.0,-3.4434,-3.5996,-3.8457,-4.1836,-4.4414,-4.7305,-5.0644,-5.1777,-5.2734,-5.3594,-5.373,-5.3418,-5.2637,-5.2598,-5.2168,-5.1367,-5.0527,-5.0586,-5.1191,-4.8691,-4.8047,-4.8496,-4.5,-4.3002,-4.1901,-3.9367,-3.8794,-3.9283,-3.8413,-3.9147,-4.0464,-3.9767,-4.0118,-4.0964,-4.1636,-4.0174,-3.7848,-3.6125,-3.4383,0.0,0.0,-3.346,-3.4144,-3.4158,-3.4807,-3.5495,-3.5648,-3.5689,-3.5475,-3.4652,-3.3722,-3.2515,0.0,-2.8388,-2.6724,-2.6622,0.0,-2.5936,-2.4458,-2.6294,-2.76,-2.6878,-2.7554,-2.8088,-2.8088,-2.6576,-2.5572,-2.5595,-2.5543,-2.5535,-2.5597,-2.5502,-2.5433,-2.5428,-2.5428,-2.5408,-2.5364,-2.3788,0.0,0.0,0.0,0.0,0.0,0.0,0.0,0.0,0.0,0.0,0.0,0.0,0.0,0.0,0.0,0.0,0.0,0.0,0.0,0.0,0.0,0.0,0.0,0.0,0.0,0.0,0.0,0.0,-3.6133,-4.0371,0.0,0.0,-3.9453,-4.0469,-4.1269,-4.3457,-4.6016,-4.8887,-4.9902,-5.1484,-5.3848,-5.4219,-5.4785,-5.5664,-5.5117,-5.4394,-5.3535,-5.2969,-5.2246,-5.1367,-5.0566,-5.0351,-5.0547,-4.9062,-4.8281,-4.7969,-4.6719,-4.5683,-4.4723,-4.3259,-4.2816,-4.2912,-4.2034,-4.2464,-4.3436,-4.3127,-4.3255,-4.3353,-4.1976,-4.0158,-3.8383,-3.778,-3.7103,-3.6532,-3.6526,-3.6696,-3.704,-3.7568,-3.7117,-3.6658,-3.7233,-3.6521,-3.5473,-3.4675,-3.427,-3.3537,-3.1809,-2.983,-2.8446,-2.8476,-2.7996,-2.7407,-2.6836,-2.7974,-2.8796,-2.8515,-2.829,-2.817,-2.817,-2.6635,-2.5636,-2.5661,-2.5636,-2.563,-2.5602,-2.5629,-2.5597,-2.5493,-2.5545,-2.5511,-2.5434,-2.4826,-2.3585,0.0,0.0,0.0,0.0,0.0,0.0,0.0,0.0,0.0,0.0,0.0,0.0,0.0,0.0,0.0,0.0,0.0,0.0,0.0,0.0,0.0,0.0,0.0,0.0,0.0,0.0,-3.8926,-3.9805,-4.3691,-4.5527,-4.3555,-4.4629,-4.6035,-4.748,-4.9473,-5.1484,-5.3476,-5.3867,-5.4551,-5.5703,-5.5742,-5.5879,-5.6152,-5.5586,-5.4707,-5.3555,-5.2988,-5.2246,-5.1387,-5.0859,-5.0469,-5.0176,-4.959,-4.8848,-4.8027,-4.7715,-4.7266,-4.6641,-4.5781,-4.5407,-4.5297,-4.4711,-4.4887,-4.5375,-4.5375,-4.5209,-4.4726,-4.3027,-4.1504,-4.0273,-3.9961,-3.9821,-3.9671,-3.9364,-3.9258,-3.9204,-3.9195,-3.8552,-3.784,-3.7586,-3.6872,-3.5938,-3.4809,-3.4341,-3.3805,-3.27,-3.1526,-3.0442,-2.9618,-2.9184,-2.8889,-2.8633,-2.8829,-2.9111,-2.9423,-2.8745,-2.8112,-2.7839,-2.6795,-2.6016,-2.5723,-2.5683,-2.5657,-2.5603,-2.5636,-2.5632,-2.5543,-2.5317,-2.515,-2.5068,-2.448,-2.3194,-2.1181,0.0,0.0,0.0,0.0,0.0,0.0,0.0,0.0,0.0,0.0,0.0,0.0,0.0,0.0,0.0,0.0,0.0,0.0,0.0,0.0,0.0,0.0,0.0,-2.9844,-3.7891,-4.2832,-4.0527,-4.6875,-5.0488,-4.8047,-5.0058,-5.1875,-5.2715,-5.3594,-5.4453,-5.5293,-5.6113,-5.6543,-5.6523,-5.6543,-5.6133,-5.5273,-5.5293,-5.4433,-5.2734,-5.2734,-5.2266,-5.1406,-5.1426,-5.0996,-5.0195,-5.0195,-4.9687,-4.8789,-4.7949,-4.7578,-4.748,-4.6621,-4.6308,-4.6308,-4.6308,-4.6308,-4.6308,-4.6269,-4.5703,-4.5,-4.5,-4.4414,-4.3535,-4.2695,-4.2441,-4.2245,-4.1304,-4.1037,-4.0647,-3.8926,-3.9062,-3.9055,-3.6659,-3.668,-3.6797,-3.5117,-3.4082,-3.3476,-3.3457,-3.3411,-3.2602,-3.0136,-3.0304,-3.0532,-2.9824,-2.8936,0.0,-2.957,-2.8926,-2.8047,-2.7168,-2.7031,-2.666,-2.5801,-2.5656,-2.5603,-2.5602,-2.5602,-2.5602,-2.5602,-2.4845,-2.4437,-2.4436,-2.2735,-2.219,-2.2946,0.0,0.0,0.0,0.0,0.0,0.0,0.0,0.0,0.0,0.0,0.0,0.0,0.0,0.0,0.0,0.0,0.0,0.0,0.0,0.0,0.0,0.0,-3.7734,-3.7988,-4.1289,-4.4824,-4.7871,-5.0664,-5.2324,-5.2246,-5.3457,-5.4336,-5.457,-5.539,-5.5996,-5.623,-5.5879,-5.5371,-5.4726,-5.5332,-5.5234,-5.4375,-5.498,-5.4746,-5.3633,-5.3633,-5.2851,-5.1426,-5.2051,-5.1562,-5.0195,-5.0195,-4.9355,-4.7949,-4.7695,-4.7226,-4.6621,-4.6387,-4.6308,-4.6308,-4.6308,-4.6308,-4.6211,-4.5586,-4.5195,-4.5,-4.5,-4.4414,-4.3652,-4.3418,-4.334,-4.3164,-4.2263,-4.2028,-4.1774,-4.072,-3.9665,-3.8728,-3.8047,-3.7109,-3.623,-3.5742,-3.5449,-3.5098,-3.4473,-3.4843,-3.4647,-3.2695,-3.2519,-3.2596,-3.2383,-3.2148,0.0,-3.1523,-3.0723,-2.9844,-2.8984,-2.7754,-2.6894,-2.666,-2.6054,-2.5658,-2.5603,-2.5657,-2.5658,-2.5602,-2.5424,-2.5327,-2.5271,-2.3553,-2.3075,0.0,0.0,0.0,0.0,0.0,0.0,0.0,0.0,0.0,0.0,0.0,0.0,0.0,0.0,0.0,0.0,0.0,0.0,0.0,0.0,0.0,0.0,-3.8066,-4.2598,-4.5117,-4.6308,-4.791,-5.0586,-5.2617,-5.3848,-5.3984,-5.5117,-5.584,-5.584,-5.6308,-5.6601,-5.6601,-5.6113,-5.5273,-5.4043,-5.5195,-5.5078,-5.3476,-5.4687,-5.4863,-5.4004,-5.4004,-5.3476,-5.248,-5.2637,-5.1973,0.0,-5.0703,-4.9941,-4.8691,-4.8691,-4.8183,0.0,0.0,0.0,0.0,0.0,-4.6308,-4.623,-4.5723,-4.5547,-4.5547,-4.5547,-4.5195,-4.4726,-4.4355,-4.3984,-4.3457,-4.2246,-4.1621,-4.1152,-4.0332,-3.9629,-3.8965,-3.8223,-3.7832,-3.7324,-3.623,-3.5996,-3.5859,-3.5332,-3.5351,0.0,-3.4609,-3.3887,-3.3281,-3.2949,-3.2598,-3.2187,-3.1719,-3.1211,-3.043,-2.9199,-2.8476,-2.7793,-2.7051,-2.6502,0.0,0.0,0.0,-2.548,-2.5116,-2.5129,0.0,0.0,0.0,-2.2924,-2.3784,0.0,0.0,0.0,-2.3143,-2.2793,0.0,0.0,0.0,0.0,0.0,0.0,0.0,0.0,0.0,0.0,0.0,0.0,0.0,0.0,0.0,0.0,-4.1621,-4.5351,-5.0918,-5.1777,-5.1562,-5.0859,-5.3379,-5.4922,-5.4355,-5.5683,-5.6601,-5.6601,-5.6699,-5.6699,-5.6601,0.0,0.0,0.0,0.0,-5.5293,-5.2871,-5.4473,-5.4902,-5.4141,-5.4141,-5.4043,-5.3828,-5.3262,-5.2402,-5.1406,-5.1504,-5.1035,-5.0195,-5.0098,-4.9473,-4.8457,-4.6894,-4.6308,-4.6289,-4.6191,-4.6211,-4.6289,-4.6191,0.0,0.0,-4.6308,-4.6308,-4.6152,-4.5371,-4.4609,-4.3633,-4.1953,-4.0918,-4.0117,-3.9141,-3.9394,-3.9512,-3.7969,-3.8691,-3.9121,-3.6797,-3.6289,-3.6289,-3.6289,-3.5664,-3.5351,-3.6035,-3.4785,-3.3457,-3.2734,-3.1973,-3.1406,-3.1211,-3.1172,-3.0527,-2.8789,0.0,0.0,-2.7422,-2.7064,-2.6583,-2.5801,-2.5665,-2.5296,-2.4577,-2.4557,-2.3788,-2.2182,-2.2203,-2.2625,-2.339,-2.3397,-2.4199,-2.5664,-2.4115,-2.3803,0.0,0.0,0.0,0.0,0.0,0.0,0.0,0.0,0.0,0.0,0.0,0.0,0.0,0.0,0.0,-4.3203,-4.707,-5.0566,-5.3144,-5.4101,-5.4492,-5.4336,-5.4277,-5.4746,-5.5976,-5.6406,-5.6601,-5.6601,-5.7246,-5.7344,-5.664,-5.6601,0.0,-5.4062,-5.5019,-5.4961,-5.3769,-5.4785,-5.5215,-5.5058,0.0,0.0,-5.2988,-5.4238,-5.3555,-5.1445,-5.2148,-5.1582,-5.0156,-4.9433,-4.8223,-4.6777,-4.6426,-4.6308,-4.6211,-4.5508,-4.5703,-4.6191,-4.5508,-4.5703,-4.6308,-4.6308,-4.6308,-4.6269,-4.6094,-4.5937,0.0,-4.3691,-4.3105,-4.2617,-4.1094,-4.0293,-3.9805,-3.9473,-3.9121,-3.8711,-3.8203,-3.8105,-3.8105,-3.8105,-3.7969,-3.7676,-3.7148,-3.6191,-3.5449,-3.5293,-3.5117,-3.4512,-3.3105,-3.293,-3.2266,-3.0586,-2.9922,-2.9453,-2.9121,-2.7793,-2.6913,-2.6737,-2.6073,-2.5605,-2.5468,-2.5449,-2.5272,-2.494,-2.494,-2.5038,-2.5195,-2.5195,-2.5371,-2.5684,-2.5351,-2.5293,0.0,0.0,0.0,0.0,0.0,0.0,0.0,0.0,0.0,0.0,0.0,-3.5916,0.0,0.0,-4.3574,-4.7031,-4.9746,-5.2168,-5.4336,-5.5039,-5.5137,-5.4707,-5.5039,-5.5469,-5.5918,-5.6348,-5.6601,-5.6601,-5.7402,-5.7715,-5.7265,-5.7246,-5.6445,-5.4707,-5.5508,-5.5312,-5.4004,-5.5293,-5.5957,-5.5957,-5.5957,-5.5488,-5.4648,-5.4648,-5.3945,-5.2676,-5.2246,-5.1562,-5.0703,-4.9433,-4.8398,-4.7519,-4.6641,-4.6308,-4.625,-4.5801,-4.5937,-4.623,-4.5801,-4.5937,-4.6308,-4.6308,-4.6308,-4.6308,-4.6308,-4.5996,-4.5371,-4.4062,-4.3398,-4.2754,-4.1523,-4.0879,-4.0449,-4.0,-3.9902,-3.9668,-3.8789,-3.8945,-3.9121,-3.8672,-3.8242,-3.7812,-3.7383,-3.6582,-3.5996,-3.5996,-3.5996,-3.5371,-3.3613,-3.3398,-3.2754,-3.1074,-3.0508,-3.0078,-2.9648,-2.8008,-2.6816,-2.6387,-2.5937,-2.5703,-2.5703,-2.5703,-2.5703,-2.5703,-2.5703,-2.5703,-2.5703,-2.5703,-2.5703,-2.5703,-2.5703,-2.5703,0.0,0.0,0.0,0.0,0.0,0.0,0.0,0.0,-3.645,-3.8828,-3.9687,-4.0917,-4.3867,-4.498,-4.6719,-5.0566,-5.1738,-5.2949,-5.5234,-5.541,-5.5039,-5.4336,-5.5488,-5.6133,-5.5605,-5.6191,-5.6601,-5.6601,-5.7558,-5.8008,-5.7676,-5.8125,-5.7519,-5.5605,-5.6406,-5.6094,-5.4512,-5.5898,-5.6601,-5.6601,-5.6601,-5.6504,-5.6308,-5.5078,-5.4316,-5.3906,-5.2344,-5.1465,-5.1055,-4.9707,-4.9043,-4.873,-4.7168,-4.6543,-4.6523,-4.6367,-4.6308,-4.6308,-4.6308,-4.6308,-4.6308,-4.6308,-4.6308,-4.6308,-4.6308,-4.5801,-4.5078,-4.4199,-4.3457,-4.2715,-4.1894,-4.1562,-4.1269,-4.0547,-4.0801,-4.082,-3.9414,-3.9668,-3.9941,-3.9238,-3.8535,-3.7949,-3.7617,-3.6973,-3.6387,-3.6055,-3.5996,-3.543,-3.3867,-3.3496,-3.2812,-3.1309,-3.0996,-3.0547,-2.9668,-2.8164,-2.6875,-2.6016,-2.5781,-2.5703,-2.5703,-2.5703,-2.5781,-2.5957,-2.5957,-2.5957,-2.5957,-2.6113,-2.6035,-2.5703,-2.5879,-2.5957,-3.1992,-3.0762,-3.0684,-3.459,-3.5195,-3.6152,0.0,0.0,-4.5013,-4.6191,-4.8194,-5.0116,-5.1328,-5.1621,-5.2363,-5.4394,-5.4805,-5.5234,-5.6308,-5.5781,-5.5254,-5.5176,-5.5332,-5.5703,-5.6387,-5.6543,-5.6601,-5.6601,-5.8125,-5.8379,-5.6836,-5.8887,-5.8984,-5.6523,-5.7305,-5.7285,-5.6328,-5.6504,-5.6601,-5.6601,-5.6601,-5.6191,-5.5469,-5.6055,-5.5469,-5.3945,-5.2988,-5.1719,-5.0312,-5.0137,-4.9609,-4.8808,-4.7832,-4.7441,-4.7363,-4.6582,-4.6308,-4.6308,-4.6308,-4.6308,-4.6308,-4.6308,-4.6308,-4.6308,-4.6308,-4.623,-4.5976,-4.5098,-4.4785,-4.4512,-4.3633,-4.2851,-4.2246,-4.2148,-4.1641,-4.1152,-4.0957,-4.0996,-4.1035,-4.0937,-4.082,-4.0273,-3.8711,-3.8379,-3.7773,-3.623,-3.5996,-3.5644,-3.4687,-3.3887,-3.3047,-3.2148,-3.1367,-3.0547,-2.9668,-2.8711,-2.7773,-2.6914,-2.6133,-2.5703,-2.5703,-2.5703,-2.6055,-2.6836,-2.6855,-2.6855,-2.6855,-2.7637,-2.7207,-2.5723,-2.6484,-2.6855,-3.4238,-3.5703,0.0,0.0,-4.1738,-4.4258,-4.6269,-4.7635,-4.9038,-5.0937,-5.2146,-5.3297,-5.4707,-5.4141,-5.4023,0.0,-5.5215,-5.5019,-5.6406,-5.541,-5.4531,-5.4531,-5.3609,-5.3528,-5.4941,-5.5996,-5.6387,-5.5879,-5.793,-5.8887,-5.8144,-5.9121,-5.9219,-5.8144,-5.7862,-5.7322,-5.6484,-5.686,-5.6839,-5.6374,-5.6374,-5.6179,-5.5825,-5.5688,-5.4696,-5.3107,-5.2811,-5.2012,-5.0859,-5.0391,-4.998,-4.957,-4.8691,-4.8047,-4.748,-4.6621,-4.6308,-4.6308,-4.6308,-4.6308,-4.6308,-4.6308,-4.6308,-4.6308,-4.6308,-4.6308,-4.6211,-4.5859,-4.5762,-4.5566,-4.4687,-4.3808,-4.3027,-4.2519,-4.1797,-4.1191,-4.1191,-4.1191,-4.1191,-4.1191,-4.0781,-4.0215,-3.9473,-3.8516,-3.7598,-3.6875,-3.6328,-3.5684,-3.4805,-3.3945,-3.2891,-3.1582,-3.1113,-3.0547,-2.9668,-2.9277,-2.8476,-2.709,-2.666,-2.6465,-2.6465,-2.6465,-2.6875,-2.7734,-2.7754,-2.7754,-2.7754,-2.8125,-2.7909,-2.7157,-2.7529,-2.793,-3.5858,0.0,0.0,-4.3125,-4.668,-4.9863,-4.9922,-5.0801,-5.2051,-5.3672,-5.4004,-5.4316,-5.5332,-5.4452,-5.4078,-5.5582,-5.4932,-5.4769,-5.6273,-5.4789,-5.3521,-5.3521,-5.1971,-5.1301,-5.2388,-5.4506,-5.5778,-5.5601,-5.7789,-5.8996,-5.8713,-5.9395,-5.9454,-5.8733,-5.8181,-5.7404,-5.6358,-5.6821,-5.6775,-5.6191,-5.6191,-5.6191,-5.6172,-5.5585,-5.4551,-5.3208,-5.31,-5.2558,-5.1699,-5.0879,-5.0507,-5.0387,-4.9547,-4.8645,-4.7741,-4.6908,-4.6463,-4.6308,-4.6308,-4.6308,-4.6308,-4.6308,-4.6308,-4.6308,-4.6308,-4.6308,-4.6308,-4.6308,-4.6308,-4.6152,-4.5527,-4.4707,-4.3906,-4.3262,-4.248,-4.1816,-4.1582,-4.1522,-4.1423,-4.1188,-4.0618,-4.0085,-3.9851,-3.8777,-3.776,-3.7293,-3.6688,-3.5989,-3.5156,-3.4082,-3.2949,-3.1719,-3.1172,-3.0742,-3.0351,-2.9883,-2.9062,-2.7793,-2.748,-2.7363,-2.7363,-2.7363,-2.7773,-2.8633,-2.8652,-2.8652,-2.8652,-2.8866,-2.8703,-2.8193,-2.8415,-2.8678,-3.6704,0.0,-3.9922,-4.4922,-4.7578,-4.957,-5.2031,-5.3906,-5.4922,-5.416,-5.4004,-5.3769,-5.2969,-5.2663,-5.2845,-5.3735,-5.443,-5.52,-5.609,-5.3969,-5.2358,-5.2358,-5.0869,-4.9534,0.0,-5.1823,-5.4569,-5.6238,-5.7952,-5.848,-5.7511,-5.9861,-6.0075,-5.752,-5.8245,-5.7876,-5.6216,-5.6236,-5.6211,-5.6191,-5.6191,-5.6191,-5.6197,-5.6312,-5.5879,-5.4987,-5.4273,-5.3476,-5.2598,-5.1719,-5.1282,-5.1089,-5.0286,-4.9348,-4.8377,-4.7644,-4.6917,-4.6308,-4.6308,-4.6308,-4.6308,-4.6308,-4.6308,-4.6308,-4.6308,-4.6308,-4.6308,-4.6308,-4.6308,-4.6289,-4.6269,-4.5605,-4.4941,-4.4922,-4.4258,-4.3398,-4.2558,-4.2314,-4.2015,-4.1174,-4.0889,-4.0513,-3.975,-3.9572,-3.8968,-3.7256,-3.6984,-3.6732,-3.6054,-3.4453,-3.3379,-3.332,-3.1875,-3.123,-3.2051,-3.0566,-2.957,-2.9512,-2.873,-2.8262,-2.8262,-2.8262,-2.8672,-2.9531,-2.9551,-2.9551,-2.9551,-3.0281,-2.9797,-2.8211,-2.8936,-2.886,-4.0037,0.0,-4.6973,-4.9824,-5.2285,-5.4238,-5.5098,-5.5293,-5.4883,-5.3437,-5.2246,-5.1035,-4.957,-4.8778,-4.8944,-5.0898,-5.0945,-5.1998,-5.5671,-5.3487,-5.1697,-5.2237,-5.0736,0.0,0.0,0.0,0.0,-5.3634,-5.6299,-5.8014,-5.8254,-5.9649,-6.0032,-5.9157,-5.8764,-5.8304,-5.7722,-5.7071,-5.6722,-5.6722,-5.6142,-5.5872,-5.5861,-5.601,-5.5624,-5.4789,-5.4039,-5.3247,-5.237,-5.1531,-5.1163,-5.1113,-5.084,-4.9826,-4.8476,-4.8218,-4.7239,-4.605,-4.6246,-4.6308,-4.6308,-4.6308,-4.6308,-4.6308,-4.6308,-4.6308,-4.6308,-4.6308,-4.6308,-4.6308,-4.6308,-4.5644,-4.498,-4.4888,-4.3791,-4.2827,-4.3017,-4.213,-4.1393,-4.1662,-4.1229,-4.07,-4.0447,-3.9957,-3.919,-3.8039,-3.6879,-3.5878,-3.5154,-3.4554,-3.3967,-3.3401,-3.231,-3.1737,-3.1978,-3.0921,-3.0024,-2.9437,-2.9213,-2.9108,-2.9108,-2.9139,-2.953,-3.03,-3.0339,-3.031,-3.026,-3.0514,-3.0325,-2.9722,-2.9982,-2.9922,-4.41,-4.8046,-5.1641,-5.3984,-5.582,-5.6973,-5.668,-5.5643,-5.4097,-5.1755,-4.9893,-4.7972,-4.5632,-4.4436,-4.4735,-4.7587,-4.7512,-4.9102,-5.4815,-5.2926,-5.1489,-5.291,-5.1502,0.0,0.0,0.0,0.0,-5.3137,-5.5747,-5.7541,-5.8079,-5.9188,-5.9821,-5.9821,-5.8931,-5.8288,-5.7959,-5.7011,-5.6541,-5.6541,-5.5972,-5.5703,-5.5695,-5.5833,-5.5296,-5.42,-5.379,-5.2942,-5.1833,-5.1308,-5.1063,-5.1033,-5.1033,-4.9936,-4.836,-4.8413,-4.7348,-4.5881,-4.608,-4.6198,-4.6225,-4.6225,-4.6225,-4.6225,-4.6225,-4.6199,-4.617,-4.617,-4.617,-4.617,-4.617,-4.5739,-4.5303,-4.5203,-4.4373,-4.3637,-4.3821,-4.2708,-4.1825,-4.2379,-4.1514,-4.0784,-4.1089,-4.0236,-3.93,-3.8747,-3.7439,-3.6261,-3.5541,-3.5183,-3.4774,-3.4211,-3.3122,-3.2406,-3.2376,-3.1572,-3.0697,-2.9819,-2.9847,-2.9887,-2.9887,-2.9934,-3.0171,-3.0652,-3.065,-3.0631,-3.0603,-3.0575,-3.0548,-3.0498,-3.0472,-3.0441,-4.8642,-5.1617,-5.3887,-5.7207,-5.8008,-5.7695,-5.6699,-5.495,-5.2563,-4.9072,-4.6839,-4.446,0.0,0.0,-4.0403,-4.3988,-4.4465,-4.6785,-5.3625,-5.2453,-5.1789,0.0,0.0,0.0,0.0,0.0,0.0,-5.4746,0.0,-5.7177,-5.7129,-5.8684,-5.9569,-5.9569,-5.8742,-5.7934,-5.7195,-5.628,-5.578,-5.5703,-5.5703,-5.5703,-5.5695,-5.5824,-5.5017,-5.3511,-5.3559,-5.2674,-5.1191,-5.1118,-5.101,-5.0894,-5.0894,-4.9752,-4.8133,-4.8238,-4.7228,-4.579,-4.5857,-4.5978,-4.6084,-4.6084,-4.6084,-4.6084,-4.6084,-4.5995,-4.5899,-4.5899,-4.5899,-4.5899,-4.5899,-4.5899,-4.5899,-4.5894,-4.5851,-4.5637,-4.4904,-4.3934,-4.3214,-4.3254,-4.1791,-4.0823,-4.1604,-4.0412,-3.9361,-3.9361,-3.8661,-3.7874,-3.7152,-3.6297,-3.5756,-3.5755,-3.4266,-3.3232,-3.32,-3.2396,-3.1521,-3.0649,-3.0597,-3.0597,-3.0597,-3.0603,-3.0603,-3.0597,-3.0597,-3.0597,-3.0591,-3.0521,-3.049,-3.049,-3.0433,-3.0404,-5.2069,-5.5644,-5.8652,-5.9531,-5.9316,-5.8105,-5.5181,-5.2205,-4.8896,-4.4713,-4.0944,-3.7559,0.0,0.0,0.0,-4.185,-4.3583,0.0,-5.3552,-5.3955,0.0,-5.4414,0.0,-5.5703,-5.5703,-5.5895,0.0,0.0,-5.6819,-5.7568,-5.88,-5.9877,-6.0473,-6.0473,-5.9069,-5.88,-5.9819,-5.8377,-5.6992,-5.5703,-5.5703,-5.5703,-5.5714,-5.5738,-5.5518,-5.5046,-5.383,-5.3066,-5.2573,-5.1318,-5.0782,-5.0748,-5.0748,-4.9662,-4.8105,-4.815,-4.7097,-4.5648,-4.5665,-4.5788,-4.5944,-4.5944,-4.5944,-4.5944,-4.5944,-4.5924,-4.5899,-4.5899,-4.5899,-4.5899,-4.5899,-4.5899,-4.5896,-4.583,-4.5322,-4.4943,-4.5305,-4.4187,-4.33,-4.3898,-4.2637,-4.1335,-4.0912,-4.0477,-4.0189,-4.0189,-3.9996,-3.9364,-3.7989,-3.7099,-3.66,-3.6586,-3.5054,-3.3737,-3.304,-3.2218,-3.1383,-3.0514,-3.0494,-3.0521,-3.0521,-3.0571,-3.0575,-3.0525,-3.0521,-3.0498,-3.0456,-3.0425,-3.0422,-3.0422,-3.0402,-3.0404,-5.6015,-5.8848,-6.0976,-6.0976,-5.9785,-5.75,-5.3195,-4.9505,-4.5433,-3.9941,-3.6534,0.0,0.0,0.0,0.0,0.0,0.0,0.0,-5.2481,-5.3725,-5.4491,0.0,-5.6992,0.0,-5.805,-5.8088,-5.8272,0.0,-5.7992,-5.7973,-5.8915,-5.9762,-6.0396,-6.0781,-5.9511,-5.8934,-5.9138,-5.7819,-5.6665,-5.5703,-5.5703,-5.5703,-5.5703,-5.5703,-5.5299,-5.4568,0.0,-5.3145,-5.2068,-5.1471,-5.101,-5.0712,-5.0712,-4.9875,-4.8663,-4.8663,-4.7605,-4.6163,-4.6163,-4.5982,-4.5783,-4.5834,-4.5855,-4.5855,-4.5855,-4.583,-4.577,-4.577,-4.577,-4.577,-4.577,-4.577,-4.577,-4.5725,-4.5348,-4.5106,-4.5505,-4.4278,-4.3124,-4.3181,-4.2758,-4.2085,-4.1219,-4.0746,-4.0496,-4.0496,-4.0496,-4.0169,-3.9277,-3.8112,-3.725,-3.6844,-3.5628,-3.4299,-3.3013,-3.2487,-3.1698,-3.0481,-3.0449,-3.0452,-3.0452,-3.0481,-3.0485,-3.0452,-3.0452,-3.043,-3.0404,-3.0404,-3.0404,-3.0404,-3.0404,-3.0404,-5.957,-6.1035,-6.168,-6.1562,-5.9609,-5.6347,-5.1014,-4.6726,-4.2003,-3.5473,0.0,-3.1256,-2.9146,-3.0325,-3.2836,-3.6603,0.0,-4.4267,-5.1103,-5.2829,-5.4568,-5.7761,-5.8319,-5.8781,-5.9588,-5.9569,-5.9858,-6.0723,-5.9454,-5.8627,-5.8627,-5.93,-5.9915,-6.0454,-5.9838,-5.8646,-5.6849,-5.6195,-5.5799,-5.5703,-5.5703,-5.5703,-5.5703,-5.5703,-5.4914,-5.3568,0.0,0.0,-5.1068,-5.1664,-5.1433,-5.0712,-5.0712,-5.0087,-4.924,-4.9356,-4.8336,-4.6923,-4.7019,-4.649,-4.5774,-4.5771,-4.5763,-4.5763,-4.5763,-4.5685,-4.5594,-4.5594,-4.5594,-4.5594,-4.5594,-4.5594,-4.5594,-4.5594,-4.5594,-4.5594,-4.5594,-4.4451,-4.3162,-4.2297,-4.2739,-4.2951,-4.1962,-4.1162,-4.0631,-4.0516,-4.0496,-4.0496,-4.0496,-3.9142,-3.7834,-3.6962,-3.6135,-3.4962,-3.3218,-3.3064,-3.2352,-3.0673,-3.0577,-3.0519,-3.0404,-3.0404,-3.0404,-3.0404,-3.0404,-3.0404,-3.0404,-3.0404,-3.0404,-3.0404,-3.0404,-3.0462,-6.0058,-6.1035,-6.1523,-6.0801,-5.8711,-5.5232,-4.9184,-4.3482,0.0,0.0,-2.9222,-2.6692,-2.6986,-2.9003,0.0,-3.7987,0.0,0.0,0.0,0.0,-5.5011,0.0,0.0,0.0,0.0,0.0,0.0,0.0,0.0,0.0,-6.0358,-6.0492,-6.0012,-5.8781,-5.9223,-5.8357,-5.5953,-5.6503,-5.6406,-5.5703,-5.5703,-5.5703,-5.5703,-5.5703,-5.553,-5.5241,0.0,0.0,-5.2722,-5.2135,-5.1433,-5.0712,-5.0712,-4.9721,-4.8413,-4.9125,-4.8336,-4.7,-4.7663,-4.7355,-4.6556,-4.5868,-4.5635,-4.5635,-4.5635,-4.562,-4.5594,-4.5594,-4.5594,-4.5594,-4.5594,-4.5594,-4.5594,-4.5594,-4.5594,-4.5594,-4.5594,-4.5364,-4.4921,-4.4047,-4.3989,-4.3605,-4.2058,-4.1673,-4.1335,-4.0612,-4.0496,-4.0496,-4.0496,-3.9669,-3.8738,-3.7873,-3.7007,-3.5815,-3.4129,-3.3975,-3.3256,-3.1583,-3.1468,-3.1154,-3.0423,-3.0404,-3.0404,-3.0404,-3.0404,-3.0404,-3.0404,-3.0404,-3.0404,-3.0404,-3.0404,-3.0788,-6.0976,-6.1719,-6.2168,-6.1289,-5.8476,-5.3944,-4.6409,0.0,0.0,0.0,-2.6131,-2.4793,-2.5221,0.0,0.0,0.0,0.0,0.0,0.0,0.0,0.0,0.0,0.0,0.0,0.0,0.0,0.0,0.0,0.0,0.0,-6.0781,-6.08,-6.0223,-5.8954,-5.8896,-5.8069,-5.6387,-5.6349,-5.6107,-5.5703,-5.5703,-5.5703,-5.5684,-5.5261,-5.5299,-5.5626,-5.4376,0.0,-5.2481,-5.2077,-5.1164,-5.0067,-5.0519,-5.0192,-4.949,-4.9913,-4.9279,-4.8182,-4.8125,-4.7567,-4.6759,-4.5874,-4.5594,-4.5594,-4.5594,-4.5594,-4.5594,-4.5594,-4.5594,-4.5594,-4.5594,-4.5594,-4.5594,-4.5594,-4.5594,-4.5479,-4.5017,-4.5287,-4.5344,-4.447,-4.4297,-4.4047,-4.3239,-4.2758,-4.2335,-4.1912,-4.147,-4.1181,-4.1181,-4.0431,-3.9611,-3.8757,-3.7488,-3.6212,-3.4988,-3.4449,-3.3667,-3.241,-3.2314,-3.2141,-3.1712,-3.1288,-3.1077,-3.1077,-3.1077,-3.0846,-3.0404,-3.1269,-3.1481,-3.1077,-3.1366,-3.1794,-6.1836,-6.248,-6.2754,-6.1699,-5.8066,-5.2558,-4.4183,-3.8498,0.0,0.0,-2.4118,-2.3937,-2.4298,0.0,-2.9588,0.0,0.0,0.0,0.0,0.0,0.0,0.0,0.0,0.0,0.0,0.0,0.0,0.0,0.0,0.0,-6.0762,-6.0608,-6.0127,-5.9281,-5.8454,-5.7607,-5.6733,-5.603,-5.5703,-5.5703,-5.5703,-5.5607,-5.5415,-5.478,-5.4741,-5.5088,-5.378,0.0,0.0,-5.1827,-5.0914,-4.949,-5.0366,-5.0596,-5.0423,-5.0423,-4.9875,-4.9029,-4.8336,-4.7567,-4.6797,-4.6105,-4.5748,-4.5594,-4.5594,-4.5594,-4.5594,-4.5594,-4.5594,-4.5594,-4.5594,-4.5594,-4.5594,-4.5594,-4.5594,-4.5421,-4.472,-4.5133,-4.5402,-4.4701,-4.4586,-4.4509,-4.4335,-4.3778,-4.3297,-4.3124,-4.2354,-4.1788,-4.1788,-4.1046,-4.0265,-3.9631,-3.818,-3.6846,-3.5846,-3.5122,-3.4295,-3.3237,-3.3179,-3.3083,-3.291,-3.2295,-3.1968,-3.1968,-3.1968,-3.1621,-3.0942,-3.2193,-3.2487,-3.1885,-3.2233,-3.2626,-6.2246,-6.2949,-6.2598,-6.0937,-5.6699,-5.1053,-4.3841,0.0,0.0,-2.6195,-2.3975,-2.337,-2.4904,-2.6096,-2.8429,-3.3301,0.0,-3.6295,0.0,0.0,0.0,0.0,0.0,0.0,0.0,0.0,0.0,0.0,0.0,0.0,0.0,-6.005,-5.9261,-5.8434,-5.7569,-5.6695,-5.5818,-5.5742,-5.5703,-5.5703,-5.5703,-5.5318,-5.4607,-5.453,-5.4107,-5.3414,0.0,0.0,0.0,-5.1606,-5.0914,-4.949,-5.0366,-5.0231,-4.951,-4.951,-4.8971,-4.8221,-4.8125,-4.7567,-4.6885,-4.6817,-4.624,-4.5594,-4.5594,-4.5594,-4.5594,-4.5594,-4.5594,-4.5594,-4.5594,-4.5594,-4.5594,-4.5594,-4.5594,-4.5575,-4.5498,-4.5537,-4.5575,-4.5498,-4.5479,-4.5229,-4.4432,-4.4239,-4.3932,-4.3201,-4.2354,-4.1788,-4.1788,-4.1046,-4.0477,-4.04,-3.9592,-3.8392,-3.6731,-3.6519,-3.5795,-3.4186,-3.409,-3.3725,-3.2929,-3.2833,-3.2795,-3.2795,-3.2795,-3.2756,-3.2679,-3.2579,-3.25,-3.2424,-3.2238,-3.2562,-5.9238,-6.1426,-6.2578,-6.084,-5.6113,-5.0077,-4.306,0.0,-3.0592,-2.5608,-2.4048,-2.3798,-2.4452,-2.5255,-2.6986,-3.055,-3.0435,0.0,0.0,0.0,0.0,0.0,0.0,0.0,0.0,0.0,0.0,0.0,0.0,0.0,0.0,-5.9685,-5.8896,-5.755,-5.7176,-5.6579,-5.5703,-5.5703,-5.5703,-5.5684,-5.5203,-5.4799,-5.4453,-5.3414,-5.3029,-5.3145,0.0,0.0,0.0,-5.0606,-4.9875,-4.8086,-4.9971,-5.0173,-4.9394,-4.9394,-4.8856,-4.8029,-4.7548,-4.7173,-4.6817,-4.6297,-4.5874,-4.5594,-4.5594,-4.5594,-4.5594,-4.5594,-4.5594,-4.5594,-4.5594,-4.5594,-4.5594,-4.5594,-4.5594,-4.5594,-4.5594,-4.5594,-4.5594,-4.5594,-4.5594,-4.5498,-4.5152,-4.5075,-4.4979,-4.4643,-4.3451,-4.2585,-4.2585,-4.1354,-4.0449,-4.0286,-3.9687,-3.8815,-3.7584,-3.7,-3.6212,-3.5064,-3.4988,-3.4834,-3.4481,-3.3968,-3.368,-3.368,-3.3513,-3.318,-3.2656,-3.3432,-3.3563,-3.3052,-3.326,-3.366,-5.5976,-5.9062,-6.1074,-5.9336,-5.4336,-4.8179,0.0,0.0,-2.9855,-2.5082,-2.3898,-2.3725,-2.3725,-2.4389,-2.5697,-2.7986,-2.8525,-3.0871,0.0,0.0,0.0,0.0,0.0,0.0,0.0,0.0,0.0,0.0,0.0,0.0,0.0,-5.8761,-5.8223,-5.7041,-5.6753,-5.6329,-5.5703,-5.5703,-5.5568,-5.5338,-5.4761,-5.4107,-5.3337,-5.2356,-5.1962,-5.2029,0.0,0.0,0.0,-5.0087,-4.949,-4.7817,-4.9606,-4.9933,-4.9336,-4.8836,-4.8279,-4.7625,-4.6797,-4.6528,-4.6413,-4.5806,-4.5594,-4.5594,-4.5594,-4.5594,-4.5594,-4.5594,-4.5594,-4.5594,-4.5594,-4.5522,-4.5448,-4.5448,-4.539,-4.5293,-4.5293,-4.5293,-4.5293,-4.5293,-4.5293,-4.5293,-4.5293,-4.5293,-4.5293,-4.5293,-4.3877,-4.2795,-4.2795,-4.1311,-4.0157,-3.9963,-3.9614,-3.9044,-3.8155,-3.7534,-3.6826,-3.6015,-3.5755,-3.5629,-3.5629,-3.4795,-3.4355,-3.4355,-3.4164,-3.3755,-3.3158,-3.409,-3.4239,-3.3644,-3.3946,-3.4213,-5.3105,-5.5957,-5.7539,-5.5781,-5.0777,-4.4878,0.0,-3.3712,-2.8334,-2.482,-2.3413,-2.2816,-2.2816,-2.3528,-2.4663,-2.6351,-2.8731,-3.1577,0.0,0.0,0.0,0.0,0.0,0.0,0.0,0.0,0.0,0.0,0.0,0.0,0.0,-5.7041,-5.7022,-5.7003,-5.6145,-5.5703,-5.5703,-5.5703,-5.5299,-5.4511,-5.4491,-5.3183,-5.077,-5.1548,-5.101,0.0,0.0,0.0,0.0,-5.0346,-5.0192,-4.9375,-4.9394,-4.9413,-4.9202,-4.7548,-4.6923,-4.6797,-4.5913,-4.5614,-4.5614,-4.5594,-4.5594,-4.5594,-4.5594,-4.5594,-4.5594,-4.5594,-4.5594,-4.5594,-4.5594,-4.5352,-4.5096,-4.5096,-4.4861,-4.4606,-4.4606,-4.4606,-4.4606,-4.4606,-4.4606,-4.4606,-4.4606,-4.4606,-4.4606,-4.4606,-4.3177,-4.2108,-4.2108,-4.0649,-3.9611,-3.9611,-3.9611,-3.9241,-3.8369,-3.8294,-3.7943,-3.7129,-3.6341,-3.591,-3.591,-3.5128,-3.4685,-3.4685,-3.4694,-3.4694,-3.4675,-3.4349,-3.42,-3.4188,-3.3941,-3.382,-4.4473,-4.7129,-4.8652,-4.6851,-4.3212,-3.9112,-3.5582,-3.1481,-2.7757,-2.5404,-2.4692,-2.45,-2.45,-2.4731,-2.5865,-2.8731,-2.9865,-3.1788,0.0,0.0,0.0,0.0,0.0,0.0,0.0,0.0,0.0,0.0,0.0,0.0,0.0,-5.5579,-5.5548,-5.6077,-5.5588,-5.5294,-5.5294,-5.5021,-5.4748,-5.4482,-5.3337,-5.2083,-5.0766,-5.0706,0.0,0.0,0.0,0.0,0.0,-5.0087,-4.951,-4.7817,-4.8952,-4.8528,-4.7214,-4.6698,-4.5996,-4.528,-4.5014,-4.5074,-4.5253,-4.5253,-4.5419,-4.5559,-4.5332,-4.5419,-4.5559,-4.5322,-4.5096,-4.4919,-4.4919,-4.4849,-4.4763,-4.4763,-4.4688,-4.4593,-4.4593,-4.4593,-4.4593,-4.4593,-4.4593,-4.4593,-4.4593,-4.4593,-4.4593,-4.4593,-4.3636,-4.2718,-4.2184,-4.1134,-4.0114,-3.9332,-3.9251,-3.9002,-3.8354,-3.8301,-3.7951,-3.7156,-3.6341,-3.5899,-3.5899,-3.5118,-3.4694,-3.4694,-3.4467,-3.4357,-3.4357,-3.4068,-3.3928,-3.391,-3.3842,-3.3807,-3.8142,-4.0815,-4.2256,-4.1138,-3.8248,0.0,0.0,-2.9722,-2.7067,-2.5596,-2.5308,-2.5212,-2.4909,-2.5096,-2.5904,-2.7736,-2.9365,0.0,0.0,0.0,0.0,0.0,0.0,0.0,0.0,0.0,0.0,0.0,0.0,0.0,0.0,0.0,-5.4564,-5.4759,-5.4836,-5.4862,-5.4862,-5.4303,-5.3862,-5.3541,-5.2198,-5.0933,-4.982,-4.9855,0.0,0.0,0.0,0.0,0.0,-4.9476,-4.8865,-4.7477,-4.787,-4.7243,-4.606,-4.5775,-4.5217,-4.4593,-4.4593,-4.4751,-4.4908,-4.4908,-4.5044,-4.5182,-4.4966,-4.5063,-4.5171,-4.4966,-4.4745,-4.4593,-4.4593,-4.4487,-4.4359,-4.4359,-4.428,-4.418,-4.418,-4.418,-4.418,-4.418,-4.418,-4.418,-4.418,-4.418,-4.418,-4.418,-4.3459,-4.2637,-4.1833,-4.0979,-4.0076,-3.9068,-3.8947,-3.8809,-3.8488,-3.8445,-3.8226,-3.7747,-3.6951,-3.6366,-3.6067,-3.5245,-3.4678,-3.4371,-3.4153,-3.4056,-3.4056,-3.3876,-3.3807,-3.3807,-3.3807,-3.3807,0.0,-3.6347,-3.7561,0.0,0.0,0.0,-3.0571,-2.8302,0.0,-2.5558,-2.5385,-2.5192,-2.4567,-2.5063,-2.5385,-2.4817,-2.8063,0.0,0.0,0.0,0.0,0.0,0.0,0.0,0.0,0.0,0.0,0.0,0.0,0.0,0.0,0.0,-5.3933,-5.3047,-5.3876,-5.4328,-5.4361,-5.3478,-5.2633,-5.1823,-5.1066,-4.9807,-4.8158,-4.905,0.0,0.0,0.0,0.0,0.0,-4.8589,-4.8244,-4.7966,-4.6418,-4.5749,-4.5572,-4.4836,-4.454,-4.4514,-4.4514,-4.4527,-4.4553,-4.458,-4.458,-4.4553,-4.4553,-4.4553,-4.4553,-4.4553,-4.454,-4.4514,-4.4514,-4.4233,-4.3971,-4.3971,-4.3726,-4.3515,-4.3515,-4.3515,-4.3515,-4.3515,-4.3515,-4.3515,-4.3515,-4.3515,-4.3515,-4.3515,-4.2855,-4.2084,-4.1279,-4.0524,-3.9753,-3.8964,-3.8872,-3.8854,-3.8799,-3.8726,-3.8707,-3.8707,-3.7936,-3.7162,-3.6413,-3.5481,-3.4656,-3.3899,-3.3825,-3.3807,-3.3807,-3.3807,-3.3807,-3.3807,-3.3807,-3.3807,-2.7488,0.0,-2.9365,-2.8643,-2.7838,-2.7098,0.0,-2.6059,-2.5731,-2.6192,-2.6288,-2.664,-2.7722,-2.8088,-2.8775,-3.0544,-3.2218,0.0,0.0,0.0,0.0,0.0,0.0,0.0,0.0,0.0,0.0,0.0,0.0,0.0,0.0,0.0,-5.221,-5.1396,-5.2154,-5.2735,-5.3043,-5.1937,-5.0952,-5.0158,-4.9973,-4.8993,-4.7385,-4.8524,0.0,0.0,0.0,0.0,-4.7696,-4.8131,-4.7531,-4.6361,-4.5951,-4.5242,-4.4408,-4.4206,-4.3989,-4.3758,-4.3758,-4.3931,-4.419,-4.4501,-4.4387,-4.4132,-4.4132,-4.4132,-4.4132,-4.4132,-4.3958,-4.3758,-4.3758,-4.3695,-4.3631,-4.3631,-4.3565,-4.3515,-4.3515,-4.3515,-4.3515,-4.3515,-4.3515,-4.3515,-4.3515,-4.3515,-4.3515,-4.3515,-4.3332,-4.2928,-4.2121,-4.1846,-4.1442,-4.0618,-4.0526,-4.0304,-3.9662,-3.9056,-3.8707,-3.8707,-3.7936,-3.7419,-3.7235,-3.5775,-3.4912,-3.4729,-3.4119,-3.3807,-3.3807,-3.3807,-3.3807,-3.3807,-3.3807,-3.3807,-2.4742,-2.6056,-2.728,-2.7168,-2.6837,-2.663,-2.6963,-2.6135,-2.5558,-2.6428,0.0,0.0,0.0,0.0,0.0,0.0,0.0,0.0,0.0,0.0,0.0,0.0,0.0,0.0,0.0,0.0,0.0,0.0,0.0,0.0,0.0,0.0,-5.1077,-5.027,-5.0675,-5.1182,-5.1768,-5.0759,-4.9829,-4.9003,-4.9003,-4.8141,-4.6581,-4.7609,-4.74,0.0,0.0,0.0,-4.6551,-4.661,-4.6106,-4.527,-4.4894,-4.4349,-4.3772,-4.3772,-4.3662,-4.3515,-4.3515,-4.3631,-4.3804,-4.402,-4.3943,-4.3772,-4.3772,-4.3772,-4.3772,-4.3772,-4.3629,-4.3515,-4.3515,-4.3515,-4.3515,-4.3515,-4.3515,-4.3515,-4.3515,-4.3515,-4.3515,-4.3515,-4.3515,-4.3515,-4.3515,-4.3515,-4.3515,-4.3515,-4.3515,-4.3221,-4.2396,-4.2304,-4.1992,-4.1187,-4.0781,-4.0377,-3.9937,-3.9166,-3.8707,-3.8707,-3.8285,-3.7896,-3.7529,-3.6266,-3.5224,-3.4454,-3.4027,-3.3807,-3.3807,-3.3807,-3.3807,-3.3807,-3.3606,-3.362,-2.3967,-2.609,-2.823,-2.8844,-2.8545,-2.8261,-2.8934,-2.7332,0.0,0.0,0.0,0.0,0.0,0.0,0.0,0.0,0.0,0.0,0.0,0.0,0.0,0.0,0.0,0.0,0.0,0.0,0.0,0.0,0.0,0.0,0.0,0.0,0.0,-4.9445,-4.9408,-4.9719,-5.0417,-4.9738,-4.8967,-4.8122,-4.8122,-4.7352,-4.592,-4.6617,-4.647,0.0,0.0,0.0,-4.548,-4.4929,-4.4635,-4.4452,-4.3754,-4.3515,-4.3515,-4.3515,-4.3515,-4.3515,-4.3515,-4.3515,-4.3515,-4.3515,-4.3515,-4.3515,-4.3515,-4.3515,-4.3515,-4.3515,-4.3515,-4.3515,-4.3515,-4.3515,-4.3515,-4.3515,-4.3515,-4.3515,-4.3515,-4.3515,-4.3515,-4.3515,-4.3515,-4.3515,-4.3515,-4.3515,-4.3515,-4.3515,-4.3515,-4.324,-4.2561,-4.2488,-4.2213,-4.1535,-4.0855,-4.0325,-3.9985,-3.9347,-3.8802,-3.8483,-3.8611,-3.8285,-3.7364,-3.6575,-3.5439,-3.3825,-3.3734,-3.3734,-3.3807,-3.368,-3.3634,-3.3694,-3.3288,-3.3288,-2.3897,-2.6468,-2.8786,-2.8244,-2.8503,-2.8953,-2.9069,-2.828,-2.7948,0.0,0.0,0.0,0.0,0.0,0.0,0.0,0.0,0.0,0.0,0.0,0.0,0.0,0.0,0.0,0.0,0.0,0.0,0.0,0.0,0.0,0.0,0.0,0.0,-4.8526,-4.8508,-4.8563,-4.8691,-4.8563,-4.8104,-4.7278,-4.7278,-4.6801,-4.5902,-4.603,-4.5645,0.0,0.0,-4.5131,-4.3901,-4.447,-4.4305,-4.3663,-4.3551,-4.3515,-4.3515,-4.3515,-4.3515,-4.3515,-4.3515,-4.3515,-4.3515,-4.3515,-4.3515,-4.3515,-4.3515,-4.3515,-4.3515,-4.3515,-4.3515,-4.3515,-4.3515,-4.3515,-4.3515,-4.3515,-4.3515,-4.3515,-4.3515,-4.3515,-4.3515,-4.3515,-4.3515,-4.3515,-4.3515,-4.3515,-4.3515,-4.3515,-4.3515,-4.346,-4.3331,-4.3331,-4.3276,-4.313,-4.3019,-4.2205,-4.04,-4.013,-3.9301,-3.7541,-3.8236,-3.8028,-3.6556,-3.5924,-3.5039,-3.3825,-3.3465,-3.3465,-3.3807,-3.3057,-3.2903,-3.3273,-3.2809,-3.2648,-2.248,-2.4812,-2.7409,-2.889,-3.0217,-3.1391,-3.2333,-3.0833,-2.9871,0.0,0.0,0.0,0.0,0.0,0.0,0.0,0.0,0.0,0.0,0.0,0.0,0.0,0.0,0.0,0.0,0.0,0.0,0.0,0.0,0.0,0.0,0.0,0.0,0.0,-4.7003,-4.7003,-4.7003,-4.7003,-4.6819,-4.6452,-4.6452,-4.581,-4.4617,-4.5057,-4.4819,-4.4066,0.0,-4.4176,-4.3533,-4.3901,-4.3828,-4.3515,-4.3515,-4.3515,-4.3515,-4.3515,-4.3515,-4.3515,-4.3515,-4.3515,-4.3515,-4.3515,-4.3515,-4.3515,-4.3515,-4.3515,-4.3515,-4.3515,-4.3515,-4.3515,-4.3515,-4.3515,-4.3515,-4.3515,-4.3515,-4.3515,-4.3515,-4.3515,-4.3515,-4.3515,-4.3515,-4.3515,-4.3515,-4.3515,-4.3515,-4.3515,-4.3515,-4.3515,-4.3515,-4.325,-4.3087,-4.3087,-4.2391,-4.1369,-3.9992,-3.9472,-3.8626,-3.7299,-3.722,-3.6705,-3.5535,-3.487,-3.4067,-3.3124,-3.2919,-3.2903,-3.3087,-3.2697,-3.2616,-3.2809,-3.2332,-3.2247,-2.1274,-2.3365,-2.5981,-2.8808,-3.0775,-3.2737,-3.5462,-3.3288,-3.1596,0.0,0.0,0.0,0.0,0.0,0.0,0.0,0.0,0.0,0.0,0.0,0.0,0.0,0.0,0.0,0.0,0.0,0.0,0.0,0.0,0.0,0.0,0.0,0.0,0.0,-4.5718,-4.5718,-4.5902,-4.5535,-4.5535,-4.5902,-4.5718,-4.4966,-4.3791,-4.4213,-4.4085,-4.3515,-4.3515,-4.3515,-4.3515,-4.3515,-4.3515,-4.3515,-4.3515,-4.3515,-4.3515,-4.3515,-4.3515,-4.3515,-4.3515,-4.3515,-4.3515,-4.3515,-4.3515,-4.3515,-4.3515,-4.3515,-4.3515,-4.3515,-4.3515,-4.3515,-4.3515,-4.3515,-4.3515,-4.3515,-4.3515,-4.3515,-4.3515,-4.341,-4.3303,-4.3303,-4.3196,-4.316,-4.3286,-4.3196,-4.316,-4.3286,-4.3196,-4.3105,-4.3105,-4.2733,-4.248,-4.248,-4.1525,-4.0453,-3.94,-3.8462,-3.7627,-3.6878,-3.6362,-3.57,-3.4836,-3.4323,-3.3547,-3.2518,-3.2577,-3.2577,-3.2501,-3.2299,-3.2248,-3.2333,-3.1861,-3.1843,-2.1273,-2.3365,-2.5558,-2.6615,-2.8121,-3.0858,-3.6526,-3.4603,0.0,-3.7918,0.0,0.0,0.0,0.0,0.0,0.0,0.0,0.0,0.0,0.0,0.0,0.0,0.0,0.0,0.0,0.0,0.0,0.0,0.0,0.0,0.0,0.0,0.0,0.0,0.0,-4.5149,-4.5883,-4.4433,-4.4415,-4.5883,-4.5149,-4.4728,-4.4599,-4.3901,-4.3551,-4.3515,-4.3515,-4.3515,-4.3515,-4.3515,-4.3515,-4.3515,-4.3515,-4.3515,-4.3515,-4.3515,-4.3515,-4.3515,-4.3515,-4.3515,-4.3515,-4.3515,-4.3515,-4.3515,-4.3515,-4.3515,-4.3515,-4.3515,-4.3515,-4.3515,-4.3515,-4.3515,-4.3515,-4.3515,-4.3515,-4.3515,-4.3515,-4.3124,-4.2769,-4.2769,-4.2322,-4.2103,-4.2655,-4.2284,-4.2103,-4.2674,-4.2284,-4.1919,-4.1919,-4.1895,-4.1874,-4.1874,-4.1779,-4.0912,-3.8947,-3.7631,-3.6571,-3.5768,-3.613,-3.5896,-3.4836,-3.499,-3.427,-3.2519,-3.2808,-3.2808,-3.2501,-3.1694,-3.1487,-3.1843,-3.143,-3.1252,-2.0673,-2.2981,-2.5769,-2.7678,-2.8626,-3.0531,0.0,-3.6372,-3.6776,-4.0835,-4.0527,0.0,0.0,0.0,0.0,0.0,0.0,0.0,0.0,0.0,0.0,0.0,0.0,0.0,0.0,0.0,0.0,0.0,0.0,0.0,0.0,0.0,0.0,0.0,0.0,-4.4103,-4.4397,-4.3808,-4.3808,-4.4397,-4.4103,-4.3956,-4.3938,-4.3626,-4.3515,-4.3515,-4.3515,-4.3515,-4.3515,-4.3515,-4.3515,-4.3515,-4.3515,-4.3515,-4.3515,-4.3515,-4.3515,-4.3515,-4.3515,-4.3515,-4.3444,-4.3105,-4.2995,-4.2921,-4.2562,-4.2426,-4.2426,-4.2426,-4.2426,-4.26,-4.3321,-4.325,-4.2995,-4.2995,-4.2733,-4.2426,-4.2426,-4.2266,-4.2142,-4.2142,-4.1958,-4.1874,-4.2101,-4.1958,-4.1874,-4.2101,-4.1937,-4.181,-4.181,-4.1468,-4.1246,-4.1246,-4.0545,-3.9737,-3.8954,-3.7613,-3.6677,-3.6366,-3.564,-3.5052,-3.4639,-3.4281,-3.3542,-3.2417,-3.2483,-3.2278,-3.1694,-3.1351,-3.1271,-3.143,-3.1271,-3.119,-1.9962,-2.2154,-2.5005,-2.703,-2.853,0.0,-3.5949,-3.7161,-3.8488,-4.297,-4.265,0.0,0.0,0.0,0.0,0.0,0.0,0.0,0.0,0.0,0.0,0.0,0.0,0.0,0.0,0.0,0.0,0.0,0.0,0.0,0.0,0.0,0.0,0.0,0.0,-4.3515,-4.3515,-4.3515,-4.3515,-4.3515,-4.3515,-4.3515,-4.3515,-4.3515,-4.3515,-4.3479,-4.3322,-4.3339,-4.3497,-4.3322,-4.3357,-4.3515,-4.3515,-4.3392,-4.325,-4.325,-4.3124,-4.2959,-4.2959,-4.2959,-4.2903,-4.2539,-4.242,-4.2342,-4.1916,-4.181,-4.181,-4.181,-4.181,-4.1979,-4.2772,-4.2676,-4.242,-4.242,-4.2101,-4.181,-4.181,-4.1643,-4.1512,-4.1512,-4.1375,-4.1308,-4.149,-4.1375,-4.1331,-4.149,-4.1358,-4.1263,-4.1263,-4.0897,-4.0655,-4.0655,-3.9851,-3.9157,-3.8684,-3.7719,-3.6948,-3.6451,-3.5436,-3.4742,-3.4506,-3.4252,-3.3643,-3.2682,-3.2666,-3.2293,-3.1565,-3.1309,-3.119,-3.119,-3.119,-3.119,-1.9265,-2.0885,-2.3028,0.0,0.0,0.0,-3.6834,-3.6731,-3.7462,-4.4209,0.0,-4.3787,0.0,0.0,0.0,0.0,0.0,0.0,0.0,0.0,0.0,0.0,0.0,0.0,0.0,0.0,0.0,0.0,0.0,0.0,0.0,0.0,0.0,0.0,0.0,-4.3479,-4.3515,-4.3479,-4.3479,-4.3479,-4.3497,-4.3497,-4.3479,-4.3479,-4.3479,-4.3444,-4.292,-4.2995,-4.3444,-4.292,-4.2995,-4.3479,-4.3479,-4.316,-4.2692,-4.2692,-4.2322,-4.181,-4.181,-4.181,-4.181,-4.1793,-4.1789,-4.1789,-4.1789,-4.1771,-4.1771,-4.1771,-4.1771,-4.1771,-4.1771,-4.1771,-4.1789,-4.1789,-4.1789,-4.1771,-4.1771,-4.1313,-4.088,-4.088,-4.0473,-4.0262,-4.0803,-4.0449,-4.0286,-4.0803,-4.0424,-4.0096,-4.0096,-4.0096,-4.0096,-4.0096,-4.0096,-3.952,-3.8058,-3.7922,-3.7263,-3.5718,-3.56,-3.5261,-3.4539,-3.5216,-3.4906,-3.344,-3.3406,-3.3034,-3.2293,-3.1546,-3.119,-3.119,-3.119,-3.119,-2.1581,-2.2663,0.0,-2.6953,0.0,0.0,0.0,-3.9008,0.0,0.0,0.0,0.0,0.0,0.0,0.0,0.0,0.0,0.0,0.0,0.0,0.0,0.0,0.0,0.0,0.0,0.0,0.0,0.0,0.0,0.0,0.0,0.0,0.0,0.0,-4.2939,-4.3124,-4.3497,-4.3142,-4.2939,-4.2939,-4.2521,-4.2541,-4.2939,-4.2939,-4.2714,-4.2306,-4.2142,-4.2144,-4.2286,-4.2124,-4.2165,-4.2306,-4.2306,-4.2206,-4.208,-4.208,-4.1958,-4.181,-4.181,-4.181,-4.1729,-4.1296,-4.1178,-4.1087,-4.072,-4.0594,-4.0594,-4.0594,-4.0594,-4.0594,-4.0594,-4.0594,-4.0696,-4.1064,-4.0891,-4.0594,-4.0594,-4.0466,-4.0336,-4.0336,-4.0204,-4.0146,-4.0311,-4.0204,-4.0146,-4.0311,-4.0204,-4.0096,-4.0096,-4.0096,-4.0096,-4.0096,-4.0096,-3.9926,-3.9486,-3.8497,-3.7702,-3.7263,-3.6191,-3.5498,-3.5278,-3.5481,-3.5143,-3.4184,-3.366,-3.3034,-3.2293,-3.1546,-3.119,-3.119,-3.119,-3.119,-2.1658,-2.3158,0.0,-2.9198,-3.2045,-3.4911,-3.8661,0.0,0.0,0.0,0.0,0.0,0.0,0.0,0.0,0.0,0.0,0.0,0.0,0.0,0.0,0.0,0.0,0.0,0.0,0.0,0.0,0.0,0.0,0.0,0.0,0.0,0.0,0.0,-4.1468,-4.1624,-4.196,-4.1624,-4.1468,-4.145,-4.1113,-4.0993,-4.1134,-4.1656,-4.1877,-4.181,-4.181,-4.1505,-4.1047,-4.1584,-4.181,-4.181,-4.181,-4.1643,-4.1446,-4.1446,-4.1308,-4.1105,-4.1105,-4.1105,-4.1059,-4.0703,-4.0577,-4.0504,-4.0204,-4.0096,-4.0096,-4.0096,-4.0096,-4.0096,-4.0096,-4.0096,-4.0179,-4.0521,-4.0336,-4.0096,-4.0096,-4.0096,-4.0096,-4.0096,-4.0096,-4.0096,-4.0096,-4.0096,-4.0096,-4.0096,-4.0096,-4.0096,-4.0096,-4.0096,-4.0096,-4.0096,-3.9808,-3.9402,-3.8841,-3.7936,-3.7175,-3.6621,-3.571,-3.5207,-3.5207,-3.547,-3.538,-3.4945,-3.3931,-3.3186,-3.273,-3.1463,-3.0838,-3.0838,-3.0597,-3.0477,-2.0712,0.0,0.0,-3.0641,-3.3731,0.0,-4.1058,0.0,0.0,0.0,0.0,0.0,0.0,0.0,0.0,0.0,0.0,0.0,0.0,0.0,0.0,0.0,0.0,0.0,0.0,0.0,0.0,0.0,0.0,0.0,0.0,0.0,0.0,0.0,-3.9512,-3.9532,-3.9591,-3.9552,-3.9512,0.0,-3.9471,-3.9164,-3.8668,-3.993,-4.0863,-4.1449,-4.1449,-4.074,-3.9737,-4.1003,-4.1537,-4.1537,-4.1537,-4.1208,-4.0723,-4.0723,-4.0419,-4.0011,-4.0079,-4.0096,-4.0096,-4.0096,-4.0096,-4.0096,-4.0096,-4.0096,-4.0096,-4.0096,-4.0045,-4.0028,-4.0079,-4.0045,-4.0028,-4.0079,-4.0096,-4.0096,-4.0096,-4.0096,-4.0096,-4.0096,-4.0096,-4.0096,-4.0096,-4.0096,-4.0096,-4.0096,-4.0096,-4.007,-3.9995,-3.9978,-3.9952,-3.9901,-3.9236,-3.8268,-3.6922,-3.668,-3.6031,-3.4684,-3.4553,-3.4503,-3.4503,-3.5075,-3.5391,-3.5323,-3.3927,-3.3207,-3.3123,-3.1177,-3.0208,-3.0208,-2.9651,-2.9406,-2.3865,-2.475,0.0,0.0,-3.4603,-3.8565,0.0,0.0,0.0,0.0,0.0,0.0,0.0,0.0,0.0,0.0,0.0,0.0,0.0,0.0,0.0,0.0,0.0,0.0,0.0,0.0,0.0,0.0,0.0,0.0,0.0,0.0,0.0,-3.8893,-3.8893,-3.9105,-3.9609,-3.9126,-3.8893,0.0,-3.8475,-3.8207,-3.8108,-3.8819,-3.8992,-3.8755,-3.8755,-3.8576,-3.8374,-3.9232,-3.9611,-3.9611,-3.9611,-3.9515,-3.9411,-3.9411,-3.9331,-3.9334,-3.991,-4.0096,-4.0096,-4.0096,-4.0096,-4.0096,-4.0096,-4.0096,-4.0096,-4.0096,-3.969,-3.9385,-3.996,-3.9673,-3.9377,-3.996,-4.0096,-4.0096,-4.0096,-4.0096,-4.0096,-4.0096,-4.0096,-4.0096,-4.0096,-4.0096,-4.0096,-4.0096,-4.0096,-3.9859,-3.9236,-3.9166,-3.8924,-3.8346,-3.8149,-3.7709,-3.6862,-3.6244,-3.5567,-3.4739,-3.4159,-3.3811,-3.3811,-3.3962,-3.3778,-3.3251,-3.2374,-3.166,-3.1115,-3.0077,-2.9585,-2.9585,-2.9451,-2.9406,-2.2673,0.0,0.0,-3.225,0.0,0.0,0.0,0.0,0.0,0.0,0.0,0.0,0.0,0.0,0.0,0.0,0.0,0.0,0.0,0.0,0.0,0.0,0.0,0.0,0.0,0.0,0.0,0.0,0.0,0.0,0.0,-3.7058,-3.7202,-3.7202,-3.7202,-3.7206,-3.7148,-3.6848,-3.6676,-3.6693,-3.6407,-3.6468,-3.684,-3.7849,-3.7757,-3.6834,-3.7584,-3.7702,-3.7432,-3.8159,-3.8464,-3.8464,-3.8464,-3.8464,-3.8464,-3.8464,-3.8464,-3.8582,-3.9334,-3.9571,-3.9571,-3.9571,-3.9571,-3.952,-3.914,-3.9276,-3.9571,-3.9571,-3.9317,-3.9089,-3.9462,-3.9276,-3.9089,-3.9486,-3.9842,-4.0096,-4.0096,-4.0096,-4.0096,-4.0096,-4.0096,-4.0096,-4.0096,-3.9782,-3.9516,-3.9516,-3.8963,-3.8371,-3.7948,-3.7877,-3.7755,-3.7351,-3.7279,-3.6949,-3.6269,-3.5833,-3.5175,-3.4191,-3.3754,-3.3408,-3.3135,-3.2471,-3.2269,-3.2592,-3.1887,-3.1182,-3.05,-2.98,-2.9281,-2.895,-2.867,-2.8543,-2.0476,0.0,-2.8168,-3.3806,-3.7732,0.0,0.0,0.0,0.0,0.0,0.0,0.0,0.0,0.0,0.0,0.0,0.0,0.0,0.0,0.0,0.0,0.0,0.0,0.0,0.0,0.0,0.0,0.0,0.0,0.0,-3.5211,-3.5211,-3.5211,-3.5211,-3.5211,-3.4945,-3.432,-3.4303,-3.4303,-3.4303,-3.4303,-3.4641,-3.5261,-3.6552,-3.6586,-3.5667,-3.6935,-3.7161,-3.666,-3.7398,-3.7719,-3.7719,-3.7719,-3.7719,-3.7719,-3.7719,-3.7719,-3.7821,-3.8548,-3.8802,-3.8802,-3.8802,-3.8802,-3.8717,-3.8244,-3.8425,-3.8815,-3.895,-3.8807,-3.8623,-3.8757,-3.869,-3.864,-3.8757,-3.9269,-3.9731,-3.9876,-3.9901,-3.9876,-3.9731,-3.9705,-3.9705,-3.9705,-3.9156,-3.8718,-3.8718,-3.7728,-3.6938,-3.6781,-3.6768,-3.6711,-3.6597,-3.6486,-3.6091,-3.529,-3.5184,-3.457,-3.3244,-3.3167,-3.2921,-3.2425,-3.1187,-3.104,-3.22,-3.1433,-3.0735,-3.0172,-2.9492,-2.8898,-2.8319,-2.7835,-2.766,0.0,0.0,-2.8741,0.0,-3.3926,0.0,0.0,0.0,0.0,0.0,0.0,0.0,0.0,0.0,0.0,0.0,0.0,0.0,0.0,0.0,0.0,0.0,0.0,0.0,0.0,0.0,0.0,0.0,0.0,0.0,-3.3694,-3.3694,-3.3694,-3.3694,-3.3694,-3.366,-3.3558,-3.3558,-3.3558,-3.3558,-3.3558,-3.3609,-3.3711,-3.3914,-3.4585,-3.5616,-3.5819,-3.5853,-3.5802,-3.6603,-3.6948,-3.6948,-3.6948,-3.6948,-3.6948,-3.6948,-3.6948,-3.7066,-3.7787,-3.8058,-3.8058,-3.8058,-3.8058,-3.8159,-3.8684,-3.843,-3.8091,-3.8728,-3.7992,-3.7146,-3.7802,-3.7496,-3.7162,-3.7818,-3.8028,-3.829,-3.8924,-3.9059,-3.887,-3.8234,-3.8108,-3.8108,-3.8108,-3.8007,-3.795,-3.795,-3.7783,-3.7401,-3.6703,-3.6612,-3.6369,-3.5742,-3.5655,-3.5125,-3.3893,-3.3757,-3.3201,-3.1835,-3.176,-3.1715,-3.164,-3.0923,-3.0576,-3.0782,-2.9603,-2.8938,-2.8848,-2.8182,-2.7801,-2.771,-2.765,-2.7914,-2.2366,-2.3454,-2.5434,0.0,0.0,0.0,0.0,0.0,0.0,0.0,0.0,0.0,0.0,0.0,0.0,0.0,0.0,0.0,0.0,0.0,0.0,0.0,0.0,0.0,0.0,0.0,0.0,0.0,0.0,-3.3406,-3.3406,-3.3406,-3.3406,-3.3406,-3.3406,-3.3203,-3.278,-3.278,-3.278,-3.278,-3.278,-3.3,-3.3389,-3.2966,-3.3355,-3.4366,-3.4366,-3.4366,-3.4382,-3.4742,-3.5131,-3.5526,-3.5526,-3.5757,-3.6129,-3.6129,-3.6129,-3.6248,-3.7009,-3.728,-3.7216,-3.6807,-3.6669,-3.6646,-3.6552,-3.6578,-3.6767,-3.748,-3.7198,-3.6706,-3.6654,-3.637,-3.621,-3.6558,-3.6954,-3.731,-3.7562,-3.7975,-3.8206,-3.7863,-3.7793,-3.7793,-3.7793,-3.7427,-3.713,-3.713,-3.6457,-3.5799,-3.5476,-3.5413,-3.5319,-3.4985,-3.528,-3.5265,-3.4681,-3.4262,-3.3649,-3.2691,-3.2258,-3.1884,-3.1525,-3.0866,-3.0687,-3.1047,-3.0148,-2.931,-2.8607,-2.8667,-2.8334,-2.76,-2.76,-2.7764,0.0,0.0,-2.2424,-2.7009,0.0,0.0,0.0,0.0,0.0,0.0,0.0,0.0,0.0,0.0,0.0,0.0,0.0,0.0,0.0,0.0,0.0,0.0,0.0,0.0,0.0,0.0,0.0,0.0,0.0,-3.2273,-3.2273,-3.2273,-3.2273,-3.2273,-3.2273,-3.2019,-3.1464,-3.1464,-3.1565,-3.1752,-3.1752,-3.2121,-3.2831,-3.2256,-3.2307,-3.2865,-3.3237,-3.3406,-3.3406,-3.3406,-3.3728,-3.4235,-3.4421,-3.4844,-3.5329,-3.5532,-3.56,-3.5661,-3.6104,-3.6242,-3.6108,-3.5391,-3.5176,-3.5109,-3.4748,-3.4999,-3.5534,-3.6232,-3.6393,-3.6232,-3.5568,-3.5521,-3.5616,-3.5427,-3.5943,-3.6485,-3.6583,-3.6919,-3.7221,-3.7221,-3.7221,-3.7221,-3.7221,-3.6722,-3.6337,-3.6337,-3.5424,-3.4741,-3.4741,-3.4741,-3.4741,-3.4741,-3.519,-3.5429,-3.525,-3.4622,-3.3948,-3.329,-3.2632,-3.2019,-3.1525,-3.1017,-3.0972,-3.1496,-3.1002,-3.0208,-2.9086,-2.925,-2.8933,-2.8109,-2.775,-2.7779,0.0,-2.1276,0.0,0.0,0.0,0.0,0.0,0.0,0.0,0.0,0.0,0.0,0.0,0.0,0.0,0.0,0.0,0.0,0.0,0.0,0.0,0.0,0.0,0.0,0.0,0.0,0.0,0.0,0.0,-2.923,-2.923,-2.923,-2.923,-2.923,-2.923,-2.9213,-2.9162,-2.9162,-2.9534,-3.0226,-3.0226,-3.0598,-3.1309,-3.1258,-3.1275,-3.1376,-3.2797,-3.3406,-3.3406,-3.3406,-3.3423,-3.3541,-3.4218,-3.4506,-3.4641,-3.5329,-3.56,-3.5532,-3.4904,-3.4714,-3.4617,-3.391,-3.3723,-3.3835,-3.4498,-3.4644,-3.4709,-3.545,-3.5599,-3.5409,-3.4749,-3.5018,-3.5349,-3.4719,-3.5063,-3.5769,-3.6461,-3.6086,-3.5619,-3.5619,-3.5619,-3.5619,-3.5619,-3.5587,-3.5554,-3.5554,-3.5507,-3.5444,-3.5444,-3.5444,-3.5444,-3.5444,-3.5489,-3.5235,-3.4623,-3.3918,-3.326,-3.2572,-3.1914,-3.154,-3.1511,-3.1466,-3.1466,-3.1511,-3.1466,-3.1092,-3.0402,-2.922,-2.8936,-2.9472,-2.8184,-2.8289,0.0,0.0,0.0,0.0,0.0,0.0,0.0,0.0,0.0,0.0,0.0,0.0,0.0,0.0,0.0,0.0,0.0,0.0,0.0,0.0,0.0,0.0,0.0,0.0,0.0,0.0,0.0,0.0,0.0,0.0,-2.8976,-2.8518,-2.8467,-2.8976,-2.8993,-2.8993,-2.8993,-2.8993,-2.9128,-2.9381,-2.9381,-2.9516,-2.9788,-2.9788,-3.004,-3.0495,-3.063,-3.1193,-3.1985,-3.1985,-3.256,-3.3381,-3.3228,-3.3744,-3.4529,-3.4373,-3.4325,-3.4276,-3.4037,-3.3962,-3.3836,-3.3172,-3.296,-3.2993,-3.3224,-3.3554,-3.4001,-3.4713,-3.4889,-3.4681,-3.4023,-3.3724,-3.3634,-3.3799,-3.4696,-3.5554,-3.5846,-3.5701,-3.5504,-3.5504,-3.5504,-3.5504,-3.5504,-3.5504,-3.5504,-3.5504,-3.5504,-3.5504,-3.5504,-3.5504,-3.5504,-3.5504,-3.5504,-3.54,-3.516,-3.4128,-3.3395,-3.3155,-3.2108,-3.1511,-3.1511,-3.1511,-3.1511,-3.1511,-3.1511,-3.1167,-3.0507,-3.0043,-2.9744,-2.9564,-2.853,-2.8298,-2.0259,0.0,0.0,0.0,0.0,0.0,0.0,0.0,0.0,0.0,0.0,0.0,0.0,0.0,0.0,0.0,0.0,0.0,0.0,0.0,0.0,0.0,0.0,0.0,0.0,0.0,0.0,0.0,0.0,0.0,-2.8197,-2.7723,-2.7689,-2.8214,-2.7994,-2.7994,-2.8231,-2.7994,-2.8095,-2.8602,-2.8602,-2.8756,-2.8993,-2.8811,-2.8988,-2.9437,-2.909,-2.9781,-3.1171,-3.076,-3.1287,-3.2311,-3.1917,-3.235,-3.3232,-3.3255,-3.3255,-3.3262,-3.326,-3.3261,-3.3145,-3.2449,-3.2216,-3.2224,-3.2194,-3.2647,-3.3305,-3.3994,-3.4339,-3.4414,-3.3933,-3.3499,-3.3335,-3.4008,-3.4861,-3.5504,-3.5504,-3.5504,-3.5504,-3.5504,-3.5504,-3.5504,-3.5504,-3.5504,-3.5504,-3.5504,-3.531,-3.525,-3.5474,-3.5295,-3.525,-3.5489,-3.5504,-3.5302,-3.4756,-3.3689,-3.2856,-3.2372,-3.1271,-3.0644,-3.0644,-3.0644,-3.0644,-3.0644,-3.0644,-3.0425,-3.0017,-3.0072,-2.9881,-2.9361,-2.8326,-2.798,0.0,0.0,0.0,0.0,0.0,0.0,0.0,0.0,0.0,0.0,0.0,0.0,0.0,0.0,0.0,0.0,0.0,0.0,0.0,0.0,0.0,0.0,0.0,0.0,0.0,0.0,0.0,0.0,0.0,-2.6674,-2.6674,-2.6674,-2.6641,-2.659,-2.5931,-2.5897,-2.659,-2.5914,-2.6269,-2.7687,-2.7703,-2.8126,-2.887,-2.8355,-2.8127,-2.8154,-2.8262,-2.937,-3.0988,-2.9854,-2.9755,-3.0307,-3.0426,-3.0477,-3.0669,-3.2014,-3.2526,-3.2522,-3.2538,-3.2544,-3.2434,-3.1739,-3.1511,-3.1525,-3.1525,-3.2004,-3.2706,-3.335,-3.3978,-3.4503,-3.4488,-3.4503,-3.4668,-3.531,-3.5489,-3.5504,-3.5504,-3.5504,-3.5504,-3.5504,-3.5504,-3.5504,-3.5504,-3.5504,-3.5504,-3.5504,-3.4936,-3.4773,-3.5385,-3.4906,-3.4741,-3.5352,-3.5427,-3.4804,-3.3252,-3.2519,-3.1518,-3.0104,-2.9366,-2.9002,-2.9002,-2.9002,-2.9002,-2.9002,-2.9002,-2.9002,-2.8971,-2.9187,-2.9201,-2.8975,-2.7638,-2.7358,-1.938,0.0,0.0,0.0,0.0,0.0,0.0,0.0,0.0,0.0,0.0,0.0,0.0,0.0,0.0,0.0,0.0,0.0,0.0,0.0,0.0,0.0,0.0,0.0,0.0,0.0,0.0,0.0,-2.6319,-2.5984,-2.6176,-2.5835,-2.5163,-2.419,-2.4433,-2.4449,-2.4174,-2.4449,-2.479,-2.5199,-2.5684,-2.6043,-2.6238,-2.6105,-2.6322,-2.6803,-2.6404,-2.7068,-2.8515,-2.9128,-2.9807,-3.0387,-2.9943,-3.0094,-3.0601,-3.0944,-3.0804,-3.0548,-3.1473,-3.1492,-3.1132,-3.1404,-3.1824,-3.2213,-3.2213,-3.3036,-3.3978,-3.4189,-3.4369,-3.4399,-3.3888,-3.4159,-3.4563,-3.4711,-3.5145,-3.5504,-3.5504,-3.5504,-3.5504,-3.5504,-3.5504,-3.5504,-3.5504,-3.5504,-3.5504,-3.5504,-3.534,-3.5115,-3.4833,-3.5026,-3.4666,-3.3276,-3.3547,-3.3237,-3.1754,-3.0989,-3.0438,-3.0044,-2.9366,-2.9002,-2.9002,-2.9002,-2.9002,-2.9002,-2.9002,-2.8684,-2.8051,-2.8742,-2.9056,-2.8989,-2.7961,-2.7308,0.0,0.0,0.0,0.0,0.0,0.0,0.0,-1.6687,0.0,0.0,0.0,0.0,0.0,0.0,0.0,0.0,0.0,0.0,0.0,0.0,0.0,0.0,0.0,0.0,0.0,0.0,0.0,-2.6234,-2.5698,-2.5196,-2.4845,-2.4539,-2.4007,-2.3208,-2.3287,-2.3287,-2.3209,-2.3556,-2.3909,-2.4216,-2.4884,-2.5202,-2.5202,-2.4969,-2.5112,-2.5487,-2.5191,-2.5524,-2.6326,-2.7671,-2.863,-2.9216,-2.8854,-2.8975,-2.9378,-2.9606,-2.9654,-2.9729,-3.0746,-3.1002,-3.0972,-3.1376,-3.1944,-3.2512,-3.2512,-3.3245,-3.4159,-3.4429,-3.4713,-3.4816,-3.4442,-3.4622,-3.4827,-3.4395,-3.4592,-3.4773,-3.4375,-3.4308,-3.4524,-3.5359,-3.5504,-3.5359,-3.4953,-3.5008,-3.4887,-3.4365,-3.397,-3.363,-3.3405,-3.3271,-3.2833,-3.1828,-3.2065,-3.1659,-3.0179,-2.9677,-2.9212,-2.8572,-2.8172,-2.7953,-2.7953,-2.7953,-2.7953,-2.7953,-2.7953,-2.7703,-2.7196,-2.8051,-2.8298,-2.7953,-2.7451,-2.6939,0.0,0.0,0.0,0.0,0.0,0.0,-1.6551,-1.6924,0.0,0.0,0.0,0.0,0.0,0.0,0.0,0.0,0.0,0.0,0.0,0.0,0.0,0.0,0.0,0.0,0.0,0.0,-2.5474,-2.5409,-2.4979,-2.4206,-2.3059,-2.3037,-2.297,-2.2828,-2.225,-2.2218,-2.2812,-2.2819,-2.3151,-2.3811,-2.457,-2.4916,-2.4916,-2.45,-2.4307,-2.4333,-2.4437,-2.4485,-2.459,-2.5944,-2.6842,-2.7404,-2.7538,-2.76,-2.7675,-2.8353,-2.8966,-2.9606,-3.0253,-3.0883,-3.1406,-3.1481,-3.1944,-3.2497,-3.2602,-3.308,-3.3724,-3.4213,-3.4713,-3.5109,-3.5109,-3.5121,-3.4953,-3.4075,-3.3842,-3.3608,-3.2687,-3.2496,-3.301,-3.4695,-3.5109,-3.489,-3.3941,-3.4036,-3.386,-3.2626,-3.1801,-3.1411,-3.1596,-3.0774,-3.0297,-3.0596,-3.0748,-3.0228,-2.8681,-2.8526,-2.7988,-2.6681,-2.6524,-2.6499,-2.6499,-2.6499,-2.6499,-2.6499,-2.6499,-2.6499,-2.6499,-2.7229,-2.7196,-2.6499,-2.6499,-2.6499,0.0,0.0,0.0,0.0,0.0,0.0,-1.6317,-1.6014,0.0,0.0,0.0,0.0,0.0,0.0,0.0,0.0,0.0,0.0,0.0,0.0,0.0,0.0,0.0,0.0,0.0,0.0,-2.4586,-2.4248,-2.3401,-2.258,-2.1866,-2.1925,-2.1516,-2.0424,-2.0767,-2.0783,-2.0393,-2.0919,-2.125,-2.1406,-2.2606,-2.3183,-2.3198,-2.3589,-2.3767,-2.3767,-2.3773,-2.3804,-2.3909,-2.5241,-2.618,-2.6826,-2.738,-2.76,-2.7675,-2.8353,-2.8682,-2.8951,-3.0103,-3.0597,-3.0763,-3.1316,-3.1944,-3.2617,-3.314,-3.3769,-3.4198,-3.3601,-3.3011,-3.2509,-3.2509,-3.284,-3.3115,-3.2925,-3.289,-3.2716,-3.209,-3.1944,-3.1944,-3.1909,-3.2579,-3.2982,-3.2339,-3.2632,-3.259,-3.1485,-3.1874,-3.1867,-3.051,-3.0995,-3.0671,-2.8565,-2.9192,-2.9192,-2.7694,-2.7586,-2.743,-2.7165,-2.6738,-2.6499,-2.6499,-2.6499,-2.6499,-2.6499,-2.6499,-2.6499,-2.6499,-2.6658,-2.6658,-2.6499,-2.6499,-2.6499,0.0,0.0,0.0,-1.8977,0.0,0.0,0.0,-1.6319,-1.6319,0.0,0.0,0.0,0.0,0.0,0.0,0.0,0.0,0.0,0.0,0.0,0.0,0.0,0.0,0.0,0.0,0.0,-2.3688,-2.3063,-2.1981,-2.1142,-2.062,-2.0681,-2.0397,-1.9723,-2.0019,-2.0034,-1.9708,-2.0363,-2.0703,-2.0703,-2.1724,-2.2388,-2.2703,-2.3017,-2.331,-2.3595,-2.3595,-2.3595,-2.3699,-2.5061,-2.5809,-2.6198,-2.721,-2.76,-2.7645,-2.7989,-2.8502,-2.919,-2.9819,-3.0477,-3.1047,-3.1391,-3.1944,-3.2482,-3.2386,-3.254,-3.272,-3.2544,-3.2156,-3.1868,-3.2138,-3.2407,-3.25,-3.1997,-3.1708,-3.1281,-3.0519,-3.0345,-3.0266,-3.0011,-3.0385,-3.0834,-3.1042,-3.1656,-3.1703,-3.0591,-3.0739,-3.0524,-2.9239,-2.935,-2.8912,-2.7278,-2.7631,-2.7703,-2.6961,-2.6901,-2.6901,-2.6901,-2.665,-2.6499,-2.6499,-2.6499,-2.6499,-2.6499,-2.6499,-2.6625,-2.6901,-2.6901,-2.6763,-2.6499,-2.6499,-2.6499,0.0,0.0,0.0,0.0,0.0,-1.7857,0.0,0.0,0.0,-1.6529,0.0,0.0,0.0,0.0,0.0,0.0,0.0,0.0,0.0,0.0,0.0,0.0,0.0,0.0,0.0,0.0,-2.2297,-2.1791,-2.0778,-2.0052,-1.9711,-1.9708,-1.9708,-1.9708,-1.9708,-1.9708,-1.9708,-2.0243,-2.0494,-2.0528,-2.1186,-2.1859,-2.2508,-2.2643,-2.3032,-2.3595,-2.3595,-2.367,-2.3894,-2.5106,-2.5689,-2.5914,-2.7136,-2.76,-2.76,-2.76,-2.8453,-2.9579,-2.9401,-3.0193,-3.1248,-3.1058,-3.1456,-3.1881,-3.1176,-3.0857,-3.0793,-3.1254,-3.1301,-3.133,-3.177,-3.1988,-3.1838,-3.0961,-3.0514,-3.0006,-2.8962,-2.8813,-2.8863,-2.875,-2.8813,-2.9138,-2.9962,-3.0646,-3.069,-2.9479,-2.9303,-2.8928,-2.7929,-2.7494,-2.7102,-2.6549,-2.6587,-2.665,-2.665,-2.665,-2.665,-2.665,-2.6549,-2.6549,-2.665,-2.665,-2.67,-2.6813,-2.6713,-2.6876,-2.7281,-2.7126,-2.6901,-2.665,-2.665,-2.6483,0.0,0.0,0.0,0.0,-1.8919,0.0,0.0,0.0,-1.6502,-1.5859,0.0,0.0,0.0,0.0,0.0,0.0,0.0,0.0,0.0,0.0,0.0,0.0,0.0,0.0,0.0,0.0,-1.9653,-2.0431,-2.0045,-1.9747,-1.9708,-1.9708,-1.9708,-1.9708,-1.9708,-1.9708,-1.9708,-1.9783,-1.9813,-1.9828,-2.0498,-2.1171,-2.1829,-2.2433,-2.3032,-2.3595,-2.3595,-2.3939,-2.4545,-2.5277,-2.5959,-2.6557,-2.7315,-2.76,-2.76,-2.76,-2.8453,-2.9483,-2.8721,-2.9334,-3.0299,-2.9535,-2.9736,-3.0257,-3.016,-2.9929,-2.9674,-2.9728,-2.9509,-2.925,-2.9313,-2.972,-2.9948,-2.9315,-2.9505,-2.9568,-2.8411,-2.8549,-2.875,-2.8298,-2.8549,-2.8925,-2.9038,-2.9138,-2.8821,-2.7744,-2.8359,-2.8408,-2.6864,-2.7052,-2.7102,-2.6549,-2.6939,-2.7228,-2.7228,-2.7228,-2.7228,-2.7228,-2.6763,-2.6713,-2.7203,-2.7228,-2.7419,-2.7908,-2.7444,-2.7253,-2.7281,-2.6396,-2.6395,-2.7228,-2.7228,-2.6482,0.0,0.0,0.0,0.0,0.0,0.0,0.0,0.0,-1.6096,0.0,0.0,0.0,0.0,0.0,0.0,0.0,0.0,0.0,0.0,0.0,0.0,0.0,0.0,0.0,0.0,0.0,0.0,0.0,0.0,-1.8553,-1.8553,-1.9271,-1.9708,-1.9708,-1.9708,-1.9708,-1.9708,-1.9708,-1.9708,-1.9708,-1.9989,-2.0662,-2.171,-2.1999,-2.2652,-2.3625,-2.4007,-2.4335,-2.4634,-2.5291,-2.5701,-2.5983,-2.6237,-2.6837,-2.7594,-2.7457,-2.8029,-2.8765,-2.8291,-2.8743,-2.9473,-2.9129,-2.8848,-2.8729,-2.9033,-2.8718,-2.8363,-2.8982,-2.9022,-2.8963,-2.934,-2.9616,-2.9729,-2.949,-2.9365,-2.9164,-2.8687,-2.8725,-2.8825,-2.8624,-2.8737,-2.9001,-2.9365,-2.9428,-2.9277,-2.8812,-2.885,-2.8561,-2.7544,-2.7344,-2.7102,-2.6549,-2.67,-2.6964,-2.7256,-2.7014,-2.7115,-2.772,-2.7544,-2.7256,-2.6846,-2.6858,-2.6647,-2.6186,-2.5974,-2.601,-2.6315,-2.5881,-2.5908,-2.6303,-2.5742,-2.5284,-1.885,0.0,0.0,0.0,0.0,0.0,0.0,0.0,0.0,0.0,0.0,0.0,0.0,0.0,0.0,0.0,0.0,0.0,0.0,0.0,0.0,0.0,0.0,0.0,0.0,0.0,0.0,0.0,-1.7695,-1.7713,-1.7713,-1.8972,-1.9708,-1.9708,-1.9708,-1.9708,-1.9708,-1.9708,-1.9708,-1.9708,-1.9708,-2.0393,-2.1695,-2.1695,-2.2301,-2.3385,-2.3874,-2.4174,-2.4361,-2.4798,-2.5177,-2.5455,-2.541,-2.6054,-2.7003,-2.7009,-2.7343,-2.7768,-2.7676,-2.7926,-2.8298,-2.8298,-2.8007,-2.765,-2.804,-2.7975,-2.7896,-2.8662,-2.8888,-2.8988,-2.9453,-2.944,-2.9327,-2.9327,-2.9126,-2.8888,-2.8888,-2.9013,-2.9164,-2.9164,-2.9164,-2.9302,-2.9716,-2.9666,-2.9553,-2.9553,-2.9076,-2.8561,-2.816,-2.762,-2.7216,-2.6964,-2.6952,-2.7052,-2.7291,-2.6795,-2.6696,-2.7163,-2.7333,-2.7079,-2.6267,-2.6228,-2.5938,-2.5266,-2.5093,-2.5193,-2.559,-2.5348,-2.5198,-2.5146,-2.4759,-2.4498,0.0,0.0,0.0,-1.7748,0.0,0.0,0.0,0.0,-1.5808,0.0,0.0,0.0,0.0,0.0,0.0,-1.78,0.0,0.0,0.0,0.0,0.0,0.0,0.0,0.0,0.0,0.0,0.0,-1.5931,-1.7012,-1.7713,-1.7713,-1.8972,-1.9708,-1.9708,-1.9708,-1.9708,-1.9708,-1.9708,-1.9708,-1.9708,-1.9708,-2.0393,-2.1695,-2.1695,-2.2073,-2.2717,-2.2746,-2.3098,-2.3626,-2.3668,-2.4347,-2.5398,-2.5384,-2.5425,-2.5522,-2.6046,-2.6338,-2.6489,-2.6694,-2.6672,-2.6589,-2.6589,-2.6921,-2.7326,-2.7339,-2.8058,-2.885,-2.8888,-2.8888,-2.8888,-2.8913,-2.8561,-2.816,-2.816,-2.8549,-2.8888,-2.8888,-2.9365,-2.9767,-2.9767,-2.9767,-2.9767,-2.9792,-2.9327,-2.8913,-2.8913,-2.8486,-2.8122,-2.8109,-2.762,-2.7482,-2.7996,-2.8059,-2.7846,-2.7318,-2.6809,-2.6022,-2.4982,-2.539,-2.5648,-2.5648,-2.5648,-2.5883,-2.6416,-2.5864,-2.5579,-2.559,-2.468,-2.4167,-2.4064,-2.5095,-2.4781,0.0,0.0,-1.9736,-1.9004,0.0,0.0,0.0,0.0,0.0,0.0,0.0,0.0,0.0,0.0,-1.6631,-1.7073,-1.6073,0.0,0.0,0.0,0.0,0.0,0.0,0.0,0.0,0.0,0.0,-1.4478,-1.4873,-1.5127,0.0,-1.719,-1.8371,-1.8371,-1.9226,-1.9708,-1.9708,-1.935,-1.9169,-1.9169,-1.8817,-1.9299,-2.0507,-2.0507,-2.1066,-2.2044,-2.2502,-2.3038,-2.3578,-2.3514,-2.3956,-2.4624,-2.4076,-2.3872,-2.3995,-2.5074,-2.5734,-2.6125,-2.6465,-2.6549,-2.6499,-2.6499,-2.6612,-2.6839,-2.7168,-2.7544,-2.7996,-2.8687,-2.8624,-2.8549,-2.9302,-2.9076,-2.875,-2.9126,-2.9365,-2.9503,-2.9503,-2.9654,-2.9792,-2.9792,-2.9792,-2.9792,-2.9792,-2.8997,-2.8617,-2.9375,-2.8407,-2.7571,-2.7571,-2.6434,-2.5721,-2.5896,-2.5919,-2.5989,-2.6151,-2.6363,-2.6166,-2.5367,-2.5853,-2.5845,-2.509,-2.509,-2.4798,-2.4264,-2.4067,-2.3943,-2.3943,-2.3622,-2.346,-2.3428,-2.3793,-2.3659,-1.9995,-1.9955,0.0,-1.9431,-1.8313,0.0,-1.7339,0.0,0.0,0.0,0.0,0.0,0.0,0.0,0.0,-1.61,-1.5041,-1.4118,0.0,-1.3442,0.0,0.0,0.0,0.0,0.0,0.0,-1.3247,-1.31,-1.3316,-1.3555,0.0,0.0,-1.7713,-1.7713,-1.9001,-1.9603,-1.9424,-1.9062,-1.8798,-1.8612,-1.8466,-1.8914,-1.9915,-2.0114,-2.0635,-2.1403,-2.1836,-2.2337,-2.2857,-2.2754,-2.3171,-2.3826,-2.3305,-2.3233,-2.3532,-2.46,-2.5469,-2.6091,-2.5949,-2.6172,-2.6499,-2.6499,-2.6625,-2.6851,-2.7216,-2.7557,-2.8009,-2.87,-2.8637,-2.8561,-2.9302,-2.9063,-2.8775,-2.9352,-2.9196,-2.8963,-2.9147,-2.891,-2.8633,-2.8633,-2.8633,-2.8633,-2.8633,-2.8039,-2.7907,-2.9028,-2.7786,-2.6772,-2.7009,-2.591,-2.516,-2.5378,-2.5389,-2.5392,-2.5336,-2.5511,-2.5337,-2.4772,-2.5092,-2.4967,-2.4211,-2.4211,-2.3914,-2.3369,-2.3169,-2.3169,-2.3369,-2.3169,-2.3091,-2.3091,-2.3091,-2.3091]},{"header":{"parameterUnit":"m.s-1","parameterCategory":1,"la1":30.6,"la2":29.2853,"lo1":-89.7004,"lo2":-87.6739,"dy":0.0162,"dx":0.0183,"nx":112,"ny":82,"refTime":"2023-09-25T00:00:00:Z","depth":0,"parameterNumber":3,"parameterNumberName":"V-component_of_WINDS"},"data":[0.0,0.0,0.0,0.0,0.0,0.0,0.0,0.0,0.0,0.0,0.0,0.0,0.0,0.0,0.0,0.0,0.0,0.0,0.0,0.0,0.0,0.0,0.0,0.0,0.0,0.0,0.0,0.0,0.0,0.0,0.0,0.0,0.0,0.0,0.0,0.0,0.0,0.0,0.0,0.0,0.0,0.0,0.0,0.0,0.0,0.0,0.0,0.0,0.0,0.0,0.0,0.0,0.0,0.0,0.0,0.0,0.0,0.0,0.0,0.0,0.0,0.0,0.0,0.0,0.0,0.0,0.0,0.0,0.0,0.0,0.0,0.0,0.0,0.0,0.0,0.0,0.0,0.0,0.0,0.0,0.0,0.0,0.0,0.0,0.0,0.0,0.0,0.0,0.0,0.0,0.0,-0.9558,-1.0617,-1.0784,-0.9722,-0.9426,-0.8578,-0.6885,0.0,0.0,0.0,0.0,0.0,0.0,0.0,0.0,0.0,0.0,0.0,0.0,0.0,0.0,0.0,0.0,0.0,0.0,0.0,0.0,0.0,0.0,0.0,0.0,0.0,0.0,0.0,0.0,0.0,0.0,0.0,0.0,0.0,0.0,0.0,0.0,0.0,0.0,0.0,0.0,0.0,0.0,0.0,0.0,0.0,0.0,0.0,0.0,0.0,0.0,0.0,0.0,0.0,0.0,0.0,0.0,0.0,0.0,0.0,0.0,0.0,0.0,0.0,0.0,0.0,0.0,0.0,0.0,0.0,0.0,0.0,0.0,0.0,0.0,0.0,0.0,0.0,0.0,0.0,0.0,0.0,0.0,0.0,0.0,0.0,0.0,0.0,0.0,0.0,0.0,0.0,0.0,0.0,0.0,0.0,0.0,0.0,0.0,0.0,0.0,0.0,0.0,0.0,0.0,-0.8387,-0.8827,-0.8515,-0.8182,-0.7993,-0.7484,-0.7184,-0.7216,0.0,0.0,0.0,0.0,0.0,0.0,0.0,0.0,0.0,0.0,0.0,0.0,0.0,0.0,0.0,0.0,0.0,0.0,0.0,0.0,0.0,0.0,0.0,0.0,0.0,0.0,0.0,0.0,0.0,0.0,0.0,0.0,0.0,0.0,0.0,0.0,0.0,0.0,0.0,0.0,0.0,0.0,0.0,0.0,0.0,0.0,0.0,0.0,0.0,0.0,0.0,0.0,0.0,0.0,0.0,0.0,0.0,0.0,0.0,0.0,0.0,0.0,0.0,0.0,0.0,0.0,0.0,0.0,0.0,0.0,0.0,0.0,0.0,0.0,0.0,0.0,0.0,0.0,0.0,0.0,0.0,0.0,0.0,0.0,0.0,0.0,0.0,0.0,0.0,0.0,0.0,0.0,0.0,0.0,0.0,0.0,0.0,0.0,0.0,0.0,0.0,0.0,0.0,-0.7624,-0.777,-0.7977,-0.771,-0.7478,-0.7478,-0.6922,-0.6486,-0.6278,-0.635,0.0,0.0,0.0,0.0,0.0,0.0,0.0,0.0,0.0,0.0,0.0,0.0,0.0,0.0,0.0,0.0,0.0,0.0,0.0,0.0,0.0,0.0,0.0,0.0,0.0,0.0,0.0,0.0,0.0,0.0,0.0,0.0,0.0,0.0,0.0,0.0,0.0,0.0,0.0,0.0,0.0,0.0,0.0,0.0,0.0,0.0,0.0,0.0,0.0,0.0,0.0,0.0,0.0,0.0,0.0,0.0,0.0,0.0,0.0,0.0,0.0,0.0,0.0,0.0,0.0,0.0,0.0,0.0,0.0,0.0,0.0,0.0,0.0,0.0,0.0,0.0,0.0,0.0,0.0,0.0,0.0,0.0,0.0,0.0,0.0,0.0,0.0,0.0,0.0,0.0,0.0,0.0,0.0,0.0,0.0,0.0,0.0,0.0,0.0,0.0,0.0,0.0,-0.7022,-0.703,-0.7258,-0.7268,-0.7268,-0.7268,-0.6692,-0.605,-0.5523,-0.5341,0.0,0.0,0.0,0.0,0.0,0.0,0.0,0.0,0.0,0.0,0.0,0.0,0.0,0.0,0.0,0.0,0.0,0.0,0.0,0.0,0.0,0.0,0.0,0.0,0.0,0.0,0.0,0.0,0.0,0.0,0.0,0.0,0.0,0.0,0.0,0.0,0.0,0.0,0.0,0.0,0.0,0.0,0.0,0.0,0.0,0.0,0.0,0.0,0.0,0.0,0.0,0.0,0.0,0.0,0.0,0.0,0.0,0.0,0.0,0.0,0.0,0.0,0.0,0.0,0.0,0.0,0.0,0.0,0.0,0.0,0.0,0.0,0.0,0.0,0.0,0.0,0.0,0.0,0.0,0.0,0.0,0.0,0.0,0.0,0.0,0.0,0.0,0.0,0.0,0.0,0.0,0.0,0.0,0.0,0.0,0.0,0.0,0.0,0.0,0.0,0.0,0.0,-0.6315,-0.657,-0.6904,-0.6916,-0.6916,-0.6916,-0.6156,-0.5679,-0.5758,-0.4833,0.0,0.0,0.0,0.0,0.0,0.0,0.0,0.0,0.0,0.0,0.0,0.0,0.0,0.0,0.0,0.0,0.0,0.0,0.0,0.0,0.0,0.0,0.0,0.0,0.0,0.0,0.0,0.0,0.0,0.0,0.0,0.0,0.0,0.0,0.0,0.0,0.0,0.0,0.0,0.0,0.0,0.0,0.0,0.0,0.0,0.0,0.0,0.0,0.0,0.0,0.0,0.0,0.0,0.0,0.0,0.0,0.0,0.0,0.0,0.0,0.0,0.0,0.0,0.0,0.0,0.0,0.0,0.0,0.0,0.0,0.0,0.0,0.0,0.0,0.0,0.0,0.0,0.0,0.0,0.0,0.0,0.0,0.0,0.0,0.0,0.0,0.0,0.0,0.0,0.0,0.0,0.0,0.0,0.0,0.0,0.0,0.0,0.0,0.0,0.0,0.0,0.0,-0.5955,-0.611,0.0,-0.6702,-0.661,-0.6519,-0.5945,-0.5455,-0.5129,0.0,0.0,0.0,0.0,0.0,0.0,0.0,0.0,0.0,0.0,0.0,0.0,0.0,0.0,0.0,0.0,0.0,0.0,0.0,0.0,0.0,0.0,0.0,0.0,0.0,0.0,0.0,0.0,0.0,0.0,0.0,0.0,0.0,0.0,0.0,0.0,0.0,0.0,0.0,0.0,0.0,0.0,0.0,0.0,0.0,0.0,0.0,0.0,0.0,0.0,0.0,0.0,0.0,0.0,0.0,0.0,0.0,0.0,0.0,0.0,0.0,0.0,0.0,0.0,0.0,0.0,0.0,0.0,0.0,0.0,0.0,0.0,0.0,0.0,0.0,0.0,0.0,0.0,0.0,0.0,0.0,0.0,0.0,0.0,0.0,0.0,0.0,0.0,0.0,0.0,0.0,0.0,0.0,0.0,0.0,0.0,0.0,0.0,0.0,0.0,0.0,0.0,-0.5506,-0.5606,-0.582,0.0,-0.6437,-0.6364,-0.617,-0.5661,-0.5138,-0.4585,0.0,0.0,0.0,0.0,0.0,0.0,0.0,0.0,0.0,0.0,0.0,0.0,0.0,0.0,0.0,0.0,0.0,0.0,0.0,0.0,0.0,0.0,0.0,0.0,0.0,0.0,0.0,0.0,0.0,0.0,0.0,0.0,0.0,0.0,0.0,0.0,0.0,0.0,0.0,0.0,0.0,0.0,0.0,0.0,0.0,0.0,0.0,0.0,0.0,0.0,0.0,0.0,0.0,0.0,0.0,0.0,0.0,0.0,0.0,0.0,0.0,0.0,0.0,0.0,0.0,0.0,0.0,0.0,0.0,0.0,0.0,0.0,0.0,0.0,0.0,0.0,0.0,0.0,0.0,0.0,0.0,0.0,0.0,0.0,0.0,0.0,0.0,0.0,0.0,0.0,0.0,0.0,0.0,0.0,0.0,0.0,0.0,0.0,0.0,0.0,0.0,0.0,-0.4633,-0.5213,-0.5698,-0.5959,-0.6166,-0.617,-0.5823,-0.5257,-0.4699,0.0,0.0,0.0,0.0,0.0,0.0,0.0,0.0,0.0,0.0,0.0,0.0,0.0,0.0,0.0,0.0,0.0,0.0,0.0,0.0,0.0,0.0,0.0,0.0,0.0,0.0,0.0,0.0,0.0,0.0,0.0,0.0,0.0,0.0,0.0,0.0,0.0,0.0,0.0,0.0,0.0,0.0,0.0,0.0,0.0,0.0,0.0,0.0,0.0,0.0,0.0,0.0,0.0,0.0,0.0,0.0,0.0,0.0,0.0,0.0,0.0,0.0,0.0,0.0,0.0,0.0,0.0,0.0,0.0,0.0,0.0,0.0,0.0,0.0,0.0,0.0,0.0,0.0,0.0,0.0,0.0,0.0,0.0,0.0,0.0,0.0,0.0,0.0,0.0,0.0,0.0,0.0,0.0,0.0,0.0,0.0,0.0,0.0,0.0,0.0,0.0,0.0,0.0,-0.4633,-0.5026,-0.542,-0.5827,-0.5908,-0.5817,-0.5549,-0.523,-0.4756,-0.4102,0.0,0.0,0.0,0.0,0.0,0.0,0.0,0.0,0.0,0.0,0.0,0.0,0.0,0.0,0.0,0.0,0.0,0.0,0.0,0.0,0.0,0.0,0.0,0.0,0.0,0.0,0.0,0.0,0.0,0.0,0.0,0.0,0.0,0.0,0.0,0.0,0.0,0.0,0.0,0.0,0.0,0.0,0.0,0.0,0.0,0.0,0.0,0.0,0.0,0.0,0.0,0.0,0.0,0.0,0.0,0.0,0.0,0.0,0.0,0.0,0.0,0.0,0.0,0.0,0.0,0.0,0.0,0.0,0.0,0.0,0.0,0.0,0.0,0.0,0.0,0.0,0.0,0.0,0.0,0.0,0.0,0.0,0.0,0.0,0.0,0.0,0.0,0.0,0.0,0.0,0.0,0.0,0.0,0.0,0.0,0.0,0.0,0.0,0.0,0.0,0.0,0.0,-0.4576,-0.4911,-0.5224,-0.5589,-0.5627,-0.5504,-0.5209,-0.5043,-0.4658,-0.4035,0.0,0.0,0.0,0.0,0.0,0.0,0.0,0.0,0.0,0.0,0.0,0.0,0.0,0.0,0.0,0.0,0.0,0.0,0.0,0.0,0.0,0.0,0.0,0.0,0.0,0.0,0.0,0.0,0.0,0.0,0.0,0.0,0.0,0.0,0.0,0.0,0.0,0.0,0.0,0.0,0.0,0.0,0.0,0.0,0.0,0.0,0.0,0.0,0.0,0.0,0.0,0.0,0.0,0.0,0.0,0.0,0.0,0.0,0.0,0.0,0.0,0.0,0.0,0.0,0.0,0.0,0.0,0.0,0.0,0.0,0.0,0.0,0.0,0.0,0.0,0.0,0.0,0.0,0.0,0.0,0.0,0.0,0.0,0.0,0.0,0.0,0.0,0.0,0.0,0.0,0.0,0.0,0.0,0.0,0.0,0.0,0.0,0.0,0.0,0.0,0.0,0.0,-0.445,-0.4843,-0.5176,-0.5378,-0.5382,-0.5259,-0.4914,-0.4779,-0.4497,-0.4024,0.0,0.0,0.0,0.0,0.0,0.0,0.0,0.0,0.0,0.0,0.0,0.0,0.0,0.0,0.0,0.0,0.0,0.0,0.0,0.0,0.0,0.0,0.0,0.0,0.0,0.0,0.0,0.0,0.0,0.0,0.0,0.0,0.0,0.0,0.0,0.0,0.0,0.0,0.0,0.0,0.0,0.0,0.0,0.0,0.0,0.0,0.0,0.0,0.0,0.0,0.0,0.0,0.0,0.0,0.0,0.0,0.0,0.0,0.0,0.0,-0.4906,0.0,0.0,0.0,0.0,0.0,0.0,0.0,0.0,0.0,0.0,0.0,0.0,0.0,0.0,0.0,0.0,0.0,0.0,0.0,0.0,0.0,0.0,0.0,0.0,0.0,0.0,0.0,0.0,0.0,0.0,0.0,0.0,0.0,0.0,0.0,0.0,0.0,0.0,0.0,0.0,0.0,-0.445,-0.4755,-0.5067,-0.5365,-0.5254,-0.5079,-0.4904,-0.4779,-0.4497,-0.4024,0.0,0.0,0.0,0.0,0.0,0.0,0.0,0.0,0.0,0.0,0.0,0.0,0.0,0.0,0.0,0.0,0.0,0.0,0.0,0.0,0.0,0.0,0.0,0.0,0.0,0.0,0.0,0.0,0.0,0.0,0.0,0.0,0.0,0.0,0.0,0.0,0.0,0.0,0.0,0.0,0.0,0.0,0.0,0.0,0.0,0.0,0.0,0.0,0.0,0.0,0.0,0.0,0.0,0.0,0.0,0.0,0.0,0.0,0.0,0.0,0.0,-0.4485,0.0,0.0,0.0,0.0,0.0,0.0,0.0,0.0,0.0,0.0,0.0,0.0,0.0,0.0,0.0,0.0,0.0,0.0,0.0,0.0,0.0,0.0,0.0,0.0,0.0,0.0,0.0,0.0,0.0,0.0,0.0,0.0,0.0,0.0,0.0,0.0,0.0,0.0,0.0,0.0,-0.445,-0.4728,-0.5003,-0.5226,-0.5118,-0.4938,-0.4823,-0.467,-0.4453,-0.4122,-0.3967,0.0,0.0,0.0,0.0,0.0,0.0,0.0,0.0,0.0,0.0,0.0,0.0,0.0,0.0,0.0,0.0,0.0,0.0,0.0,0.0,0.0,0.0,0.0,0.0,0.0,0.0,0.0,0.0,0.0,0.0,0.0,0.0,0.0,0.0,0.0,0.0,0.0,0.0,0.0,0.0,0.0,0.0,0.0,0.0,0.0,0.0,0.0,0.0,0.0,0.0,0.0,0.0,0.0,0.0,-0.0393,-0.1078,-0.1078,-0.1559,-0.241,-0.2298,-0.3436,-0.5292,0.0,0.0,0.0,0.0,0.0,0.0,0.0,0.0,0.0,0.0,0.0,0.0,0.0,0.0,0.0,0.0,0.0,0.0,0.0,0.0,0.0,0.0,0.0,0.0,0.0,-0.5177,-0.5046,0.0,0.0,0.0,0.0,0.0,0.0,0.0,0.0,0.0,0.0,0.0,0.0,-0.4419,-0.4714,-0.4941,-0.5083,-0.4948,-0.4766,-0.4526,-0.4492,-0.4354,-0.4051,-0.3923,-0.387,0.0,0.0,0.0,0.0,0.0,0.0,0.0,0.0,0.0,0.0,0.0,0.0,0.0,0.0,0.0,0.0,0.0,0.0,0.0,0.0,0.0,0.0,0.0,0.0,0.0,0.0,0.0,0.0,0.0,0.0,0.0,0.0,0.0,0.0,0.0,0.0,0.0,0.0,0.0,0.0,0.0,0.0,0.0,0.0,0.0,0.0,0.0,0.0,0.0,0.0,0.0,0.0,0.0,-0.0051,-0.0152,-0.0152,-0.0869,-0.201,-0.0833,0.0,-0.2955,-0.3016,0.0,0.0,0.0,0.0,0.0,0.0,0.0,0.0,0.0,0.0,0.0,0.0,0.0,0.0,0.0,0.0,0.0,0.0,0.0,0.0,0.0,0.0,-0.561,-0.5545,-0.5528,-0.5508,0.0,-0.4958,-0.4491,-0.4392,-0.4105,0.0,0.0,0.0,0.0,0.0,0.0,0.0,-0.4244,-0.4624,-0.4941,-0.5083,-0.4884,-0.4448,-0.3809,-0.4207,-0.4202,-0.3462,-0.3876,-0.4137,-0.4137,-0.412,0.0,0.0,0.0,0.0,0.0,0.0,0.0,0.0,0.0,0.0,0.0,0.0,0.0,0.0,0.0,0.0,0.0,0.0,0.0,0.0,0.0,0.0,0.0,0.0,0.0,0.0,0.0,0.0,0.0,0.0,0.0,0.0,0.0,0.0,0.0,0.0,0.0,0.0,0.0,0.0,0.0,0.0,0.0,0.0,0.0,0.0,0.0,0.0,0.0,0.0,0.0,0.0,0.0,0.0,-0.0319,-0.0863,-0.0258,-0.0438,-0.1133,-0.177,-0.2528,-0.3354,0.0,0.0,0.0,0.0,-0.4536,-0.4646,-0.4833,-0.4237,0.0,0.0,0.0,0.0,0.0,0.0,0.0,0.0,0.0,0.0,0.0,0.0,0.0,-0.5979,-0.6006,-0.5979,-0.5857,-0.5379,-0.4924,0.0,-0.4501,-0.4317,-0.3978,0.0,0.0,0.0,0.0,0.0,-0.4456,-0.4356,-0.4292,-0.4377,-0.3825,-0.3288,-0.2853,-0.3065,-0.3065,-0.2702,-0.2866,-0.3158,-0.3556,-0.3585,-0.3706,0.0,0.0,0.0,0.0,0.0,0.0,0.0,0.0,0.0,0.0,0.0,0.0,0.0,0.0,0.0,0.0,0.0,0.0,0.0,0.0,0.0,0.0,0.0,0.0,0.0,0.0,0.0,0.0,0.0,0.0,0.0,0.0,0.0,0.0,0.0,0.0,0.0,0.0,0.0,0.0,0.0,0.0,0.0,0.0,0.0,0.0,0.0,0.0,0.0,0.0,0.0,0.0,0.0,0.0,0.0,0.0,0.0,-0.0051,-0.0706,-0.1616,-0.2536,-0.2293,-0.2876,-0.3878,-0.383,-0.3789,-0.3816,-0.4118,-0.3518,-0.2678,-0.2985,0.0,-0.2912,-0.2646,0.0,0.0,0.0,0.0,-0.494,-0.5253,-0.5408,-0.5522,-0.5502,-0.5473,-0.5437,-0.5304,-0.4983,-0.4716,0.0,-0.4526,-0.4302,-0.3599,0.0,0.0,0.0,0.0,-0.42,-0.4033,-0.3707,-0.3472,-0.3472,-0.2848,-0.2293,-0.1956,-0.2091,-0.212,-0.1924,-0.1992,-0.2286,-0.2848,-0.2877,-0.3079,-0.3539,0.0,0.0,0.0,0.0,0.0,0.0,0.0,0.0,0.0,0.0,0.0,0.0,0.0,0.0,0.0,0.0,0.0,0.0,0.0,0.0,0.0,0.0,0.0,0.0,0.0,0.0,0.0,0.0,0.0,0.0,0.0,0.0,0.0,0.0,0.0,0.0,0.0,0.0,0.0,0.0,0.0,0.0,0.0,0.0,0.0,0.0,0.0,0.0,0.0,0.0,0.0,0.0,0.0,0.0,0.0,0.0,0.0,-0.0049,-0.0704,-0.1646,-0.1461,-0.2033,-0.2962,-0.2812,-0.2952,-0.314,-0.3042,-0.2498,-0.2057,-0.3185,-0.3338,-0.302,-0.2764,-0.248,0.0,0.0,-0.4108,-0.4306,-0.4497,-0.466,-0.4516,-0.3511,-0.3279,-0.326,-0.326,-0.3136,-0.3238,0.0,-0.3737,-0.3193,-0.2271,0.0,-0.3041,-0.1898,-0.2822,-0.3267,-0.2263,-0.238,-0.255,-0.255,-0.2354,-0.1928,-0.1229,-0.1786,-0.1898,-0.1202,-0.1811,-0.2197,-0.2253,-0.2253,-0.2251,-0.2303,-0.2737,0.0,0.0,0.0,0.0,0.0,0.0,0.0,0.0,0.0,0.0,0.0,0.0,0.0,0.0,0.0,0.0,0.0,0.0,0.0,0.0,0.0,0.0,0.0,0.0,0.0,0.0,0.0,0.0,0.0,0.0,0.0,0.0,0.0,0.0,0.0,0.0,0.0,0.0,0.0,0.0,0.0,0.0,0.0,0.0,0.0,0.0,0.0,0.0,0.0,0.0,0.0,0.0,0.0,0.0,0.0,0.0,0.0,-0.0249,-0.0585,-0.0472,-0.1168,-0.2202,-0.2157,-0.2179,-0.2276,-0.2213,-0.151,-0.0709,-0.1145,-0.1183,-0.1089,-0.0989,-0.1377,-0.1915,-0.2354,-0.2969,-0.3526,-0.3742,-0.3737,-0.3611,-0.3339,-0.3195,-0.3065,-0.2996,-0.2923,-0.2787,-0.2329,-0.2577,-0.2708,-0.2366,-0.248,-0.2488,-0.2053,-0.2509,-0.2741,-0.2369,-0.1978,-0.1723,-0.1723,-0.1163,-0.0671,-0.042,-0.0643,-0.0867,-0.109,-0.0895,-0.1202,-0.2174,-0.1758,-0.1952,-0.2954,-0.3103,-0.3105,0.0,0.0,0.0,0.0,0.0,0.0,0.0,0.0,0.0,0.0,0.0,0.0,0.0,0.0,0.0,0.0,0.0,0.0,0.0,0.0,0.0,0.0,0.0,0.0,0.0,0.0,0.0,0.0,0.0,0.0,0.0,0.0,0.0,0.0,0.0,0.0,0.0,0.0,0.0,0.0,0.0,0.0,0.0,0.0,0.0,0.0,0.0,0.0,0.0,0.0,0.0,0.0,0.0,0.0,0.0,0.0,0.0,0.0,0.0,-0.0495,-0.1186,-0.1171,-0.1175,-0.1188,-0.1188,-0.069,0.0,0.0,0.0,0.0,0.0,-0.0478,-0.1125,-0.1547,-0.2143,-0.2698,-0.2827,-0.278,-0.2605,-0.2299,-0.2134,-0.2041,-0.1939,-0.1912,-0.1698,-0.0999,-0.1514,-0.1995,-0.1714,-0.1785,-0.1799,-0.1501,-0.1826,-0.2004,-0.1703,-0.1192,-0.0859,-0.0851,-0.0351,0.0,0.0,-0.0224,-0.0588,-0.1062,-0.0643,-0.0811,-0.1786,-0.1327,-0.1511,-0.2524,-0.2519,-0.2771,-0.3355,0.0,0.0,0.0,0.0,0.0,0.0,0.0,0.0,0.0,0.0,0.0,0.0,0.0,0.0,0.0,0.0,0.0,0.0,0.0,0.0,0.0,0.0,0.0,0.0,0.0,0.0,0.0,0.0,0.0,0.0,0.0,0.0,0.0,0.0,0.0,0.0,0.0,0.0,0.0,0.0,0.0,0.0,0.0,0.0,0.0,0.0,0.0,0.0,0.0,0.0,0.0,0.0,0.0,0.0,0.0,0.0,0.0,0.0,0.0,0.0,0.0,0.0,0.0,0.0,0.0,0.0,0.0,0.0,0.0,0.0,0.0,-0.023,-0.1397,-0.1747,-0.173,-0.1742,-0.1748,-0.1449,-0.028,0.0,0.0,0.0,0.0,0.0,0.0,-0.0693,-0.0996,-0.0131,-0.0694,-0.0966,-0.013,-0.0726,0.0,-0.0097,0.0,0.0,0.0,0.0,0.0,0.0,-0.0644,-0.1062,-0.109,-0.109,-0.109,-0.109,-0.0949,-0.088,-0.0907,-0.0918,-0.1576,-0.2868,0.0,0.0,0.0,0.0,0.0,0.0,0.0,0.0,0.0,0.0,0.0,0.0,0.0,0.0,0.0,0.0,0.0,0.0,0.0,0.0,0.0,0.0,0.0,0.0,0.0,0.0,0.0,0.0,0.0,0.0,0.0,0.0,0.0,0.0,0.0,0.0,0.0,0.0,0.0,0.0,0.0,0.0,0.0,0.0,0.0,0.0,0.0,0.0,0.0,0.0,0.0,0.0,0.0,0.0,0.0,0.0,0.0,0.0,0.0,0.0,0.0,0.0,0.0,0.0,0.0,0.0,0.0,0.0,0.0,0.0,0.0,-0.0047,-0.0415,-0.0504,-0.0501,-0.0489,-0.0476,-0.0422,-0.0083,0.0,0.0,0.0,0.0,0.0,0.0,-0.019,-0.0265,-0.0036,-0.0213,-0.0284,-0.0035,-0.021,0.0,-0.0034,0.0,0.0,0.0,0.0,0.0,0.0,-0.0199,-0.0532,-0.1062,-0.0588,-0.0532,-0.109,-0.0555,-0.0497,-0.1048,-0.1389,-0.1791,0.0,0.0,0.0,0.0,0.0,0.0,0.0,0.0,0.0,0.0,0.0,0.0,0.0,0.0,0.0,0.0,0.0,0.0,0.0,0.0,0.0,0.0,0.0,0.0,0.0,0.0,0.0,0.0,0.0,0.0,0.0,0.0,0.0,0.0,0.0,0.0,0.0,0.0,0.0,0.0,0.0,0.0,0.0,0.0,0.0,0.0,0.0,0.0,0.0,0.0,0.0,0.0,0.0,0.0,0.0,0.0,0.0,0.0,0.0,0.0,0.0,0.0,0.0,0.0,0.0,0.0,0.0,0.0,0.0,0.0,0.0,0.0,0.0,0.0,0.0,0.0,0.0,0.0,0.0,0.0,0.0,0.0,0.0,0.0,0.0,0.0,0.0,0.0,0.0,0.0,0.0,0.0,0.0,0.0,0.0,0.0,0.0,0.0,0.0,0.0,0.0,-0.0289,0.0,0.0,0.0,-0.0639,-0.1014,-0.0603,0.0,0.0,0.0,-0.1427,-0.1455,0.0,0.0,0.0,-0.0985,-0.0945,0.0,0.0,0.0,0.0,0.0,0.0,0.0,0.0,0.0,0.0,0.0,0.0,0.0,0.0,0.0,0.0,0.0,0.0,0.0,0.0,0.0,0.0,0.0,0.0,0.0,0.0,0.0,0.0,0.0,0.0,0.0,0.0,0.0,0.0,0.0,0.0,0.0,0.0,0.0,0.0,0.0,0.0,0.0,0.0,0.0,0.0,0.0,0.0,0.0,0.0,0.0,0.0,0.0,0.0,0.0,0.0,0.0,0.0,0.0,0.0,0.0,0.0,0.0,0.0,0.0,0.0,0.0,0.0,0.0,0.0,0.0,0.0,0.0,0.0,0.0,0.0,0.0,0.0,0.0,0.0,0.0,0.0,0.0,0.0,0.0,0.0,0.0,0.0,0.0,0.0,0.0,0.0,0.0,0.0,0.0,-0.0591,-0.0986,-0.0986,-0.098,-0.0911,-0.0805,-0.0804,-0.0987,-0.1405,-0.1018,-0.0741,-0.0612,-0.0204,0.0,0.0,-0.0553,-0.0519,0.0,0.0,0.0,0.0,0.0,0.0,0.0,0.0,0.0,0.0,0.0,0.0,0.0,0.0,0.0,0.0,0.0,0.0,0.0,0.0,0.0,0.0,0.0,0.0,0.0,0.0,0.0,0.0,0.0,0.0,0.0,0.0,0.0,0.0,0.0,0.0,0.0,0.0,0.0,0.0,0.0,0.0,0.0,0.0,0.0,0.0,0.0,0.0,0.0,0.0,0.0,0.0,0.0,0.0,0.0,0.0,0.0,0.0,0.0,0.0,0.0,0.0,0.0,0.0,0.0,0.0,0.0,0.0,0.0,0.0,0.0,0.0,0.0,0.0,0.0,0.0,0.0,0.0,0.0,0.0,0.0,0.0,0.0,0.0,0.0,0.0,0.0,0.0,0.0,0.0,0.0,0.0,0.0,0.0,0.0,-0.0121,-0.0206,-0.0204,-0.0199,-0.0196,-0.0167,-0.0167,-0.0221,-0.0299,-0.0218,-0.0164,-0.0137,-0.0055,0.0,0.0,-0.0111,-0.011,0.0,0.0,0.0,0.0,0.0,0.0,0.0,0.0,0.0,0.0,0.0,0.1254,0.0,0.0,0.0,0.0,0.0,0.0,0.0,0.0,0.0,0.0,0.0,0.0,0.0,0.0,0.0,0.0,0.0,0.0,0.0,0.0,0.0,0.0,0.0,0.0,0.0,0.0,0.0,0.0,0.0,0.0,0.0,0.0,0.0,0.0,0.0,0.0,0.0,0.0,0.0,0.0,0.0,0.0,0.0,0.0,0.0,0.0,0.0,0.0,0.0,0.0,0.0,0.0,0.0,0.0,0.0,0.0,0.0,0.0,0.0,0.0,0.0,0.0,0.0,0.0,0.0,0.0,0.0,0.0,0.0,0.0,0.0,0.0,0.0,0.0,0.0,0.0,0.0,0.0,0.0,0.0,0.0,0.0,0.0,0.0,0.0,0.0,0.0,0.0,0.0,0.0,0.0,0.0,0.0,0.0,0.0,0.0,0.0,0.0,0.0,0.0,0.0,0.0,0.0,0.0,0.0,0.0,0.0,0.0,0.1034,0.0169,0.0216,0.0312,0.0048,0.0,0.0,0.0,0.0,0.0,0.0,0.0,0.0,0.0,0.0,0.0,0.0,0.0,0.0,0.0,0.0,0.0,0.0,0.0,0.0,0.0,0.0,0.0,0.0,0.0,0.0,0.0,0.0,0.0,0.0,0.0,0.0,0.0,0.0,0.0,0.0,0.0,0.0,0.0,0.0,0.0,0.0,0.0,0.0,0.0,0.0,0.0,0.0,0.0,0.0,0.0,0.0,0.0,0.0,0.0,0.0,0.0,0.0,0.0,0.0,0.0,0.0,0.0,0.0,0.0,0.0,0.0,0.0,0.0,0.0,0.0,0.0,0.0,0.0,0.0,0.0,0.0,0.0,0.0,0.0,0.0,0.0,0.0,0.0,0.0,0.0,0.0,0.0,0.0,0.0,0.0,0.0,0.0,0.0,0.0,0.0,0.0,0.0,0.0,0.0105,0.0067,0.0,0.0075,0.0115,0.0118,0.0,0.0,0.1523,0.0252,0.0946,0.1422,0.0224,0.0,0.0,0.0,0.0,0.0,0.0,0.0,0.0,0.0,0.0,0.0,0.0,0.0,0.0,0.0,0.0,0.0,0.0,0.0,0.0,0.0,0.0,0.0,0.0,0.0,0.0,0.0,0.0,0.0,0.0,0.0,0.0,0.0,0.0,0.0,0.0,0.0,0.0,0.0,0.0,0.0,0.0,0.0,0.0,0.0,0.0,0.0,0.0,0.0,0.0,0.0,0.0,0.0,0.0,0.0,0.0,0.0,0.0,0.0,0.0,0.0,0.0,0.0,0.0,0.0,0.0,0.0,0.0,0.0,0.0,0.0,0.0,0.0,0.0,0.0,0.0,0.0,0.0,0.0,0.0,0.0,0.0,0.0,0.0,0.0,0.0,0.0,0.0,0.0,0.0,0.0,0.0,0.0,0.0,0.0,0.0,0.0,0.0,0.0,0.0,0.0,0.0,0.0,0.0,0.0,0.0,0.0416,0.0695,0.0111,0.0455,0.064,0.0119,0.0,0.0,0.0,0.0,0.0,0.0,0.0,0.0,0.0,0.0702,0.0876,0.006,0.0,0.0,0.0,0.0,0.0,0.0,0.0,0.0,0.0,0.101,0.1564,0.1479,0.2483,0.2917,0.2831,0.2831,0.2821,0.2865,0.2858,0.2328,0.1391,0.0403,0.0,0.0,0.0,0.0,0.0,0.0,0.0,0.0,0.0,0.0,0.0,0.0,0.0,0.0,0.0,0.0,0.0,0.0,0.0,0.0,0.0,0.0,0.0,0.0,0.0,0.0,0.0,0.0,0.0,0.0,0.0,0.0,0.0,0.0,0.0,0.0,0.0,0.0,0.0,0.0,0.0,0.0,0.0,0.0,0.0,0.0,0.0,0.0,0.0,0.0,0.0,0.0,0.0,0.0,0.0,0.0,0.0,0.0,0.0,0.0,0.0,0.0274,0.077,0.0751,0.1036,0.0274,0.0,0.0,0.0,0.0,0.0,0.0,0.0,0.0,0.0,0.0,0.0,0.0,0.0356,0.0649,0.0667,0.1019,0.1315,0.1351,0.1315,0.1226,0.1226,0.2042,0.2184,0.12,0.0773,0.0608,0.0667,0.0693,0.0965,0.1409,0.149,0.1492,0.141,0.2667,0.3322,0.3139,0.441,0.4967,0.4916,0.4916,0.4916,0.4914,0.4436,0.3575,0.2381,0.0753,0.0,0.0,0.0,0.022,0.0605,0.0595,0.0849,0.1094,0.0768,0.0355,0.0,0.0,0.0,0.0,0.0,0.0,0.0,0.0,0.0,0.0,0.0,0.0,0.0,0.0,0.0,0.0,0.0,0.0,0.0,0.0,0.0272,0.0497,0.0494,0.0753,0.1006,0.1,0.0973,0.0989,0.0936,0.0921,0.0707,0.0077,0.0,0.0,0.0,0.0,0.0,0.0,0.0,0.0,0.0,0.0,0.0,0.0,0.0,0.0,0.0,0.0,0.0,0.0,0.0252,0.0689,0.1293,0.1551,0.2037,0.1041,0.0,0.0,0.0,0.0,0.0,0.0,0.0,0.0,0.0,0.0,0.0,0.0,0.1149,0.2192,0.2405,0.3627,0.4587,0.4722,0.4544,0.4351,0.4351,0.4115,0.3898,0.0,0.2716,0.2084,0.2394,0.253,0.3321,0.4842,0.5106,0.5124,0.4969,0.4968,0.4936,0.4856,0.4858,0.4918,0.4916,0.4916,0.4916,0.4855,0.3259,0.2562,0.2401,0.071,0.0,0.0,0.0,0.0839,0.2119,0.2141,0.291,0.3914,0.2601,0.1229,0.0,0.0,0.0,0.0,0.0,0.0,0.0,0.0,0.0,0.0,0.0,0.0,0.0,0.0,0.0,0.0,0.0,0.0,0.0,0.0,0.0923,0.1743,0.1753,0.268,0.35,0.3478,0.3506,0.3452,0.33,0.3276,0.2488,0.0275,0.0,0.0,0.0,0.0,0.0,0.0,0.0,0.0,0.0,0.0,0.0,0.0,0.0,0.0,0.0,0.0,0.0,0.0,0.0859,0.1268,0.1324,0.2246,0.2684,0.0349,0.0,0.0,0.0,0.0,0.0,0.0,0.0,0.0,0.0,0.0,0.0,0.0,0.1011,0.1977,0.2445,0.3339,0.4206,0.4809,0.468,0.4523,0.4628,0.5333,0.0,0.0,0.0,0.0,0.3809,0.406,0.4438,0.5097,0.5284,0.5384,0.5306,0.6306,0.6901,0.6832,0.7767,0.8287,0.8287,0.8203,0.8163,0.8099,0.6505,0.5724,0.5638,0.3897,0.314,0.3088,0.3039,0.3297,0.3742,0.3722,0.3921,0.4135,0.3689,0.3148,0.2413,0.0605,0.0,0.0,0.0,0.0,0.0,0.0,0.0,0.0,0.0,0.0,0.0,0.0,0.0,0.0245,0.1126,0.1242,0.1449,0.2443,0.2854,0.3031,0.3096,0.3381,0.3606,0.3583,0.3584,0.3601,0.3537,0.3348,0.2666,0.1228,0.1056,0.1075,0.1057,0.0952,0.1143,0.1851,0.1857,0.1803,0.18,0.1212,0.0858,0.0858,0.0318,0.0258,0.086,0.0861,0.1158,0.1785,0.21,0.252,0.3091,0.3416,0.3906,0.0385,0.0262,0.0,0.0,0.0,0.0,0.0,0.0364,0.0708,0.0565,0.098,0.1256,0.1046,0.1794,0.2491,0.2911,0.3948,0.4998,0.5761,0.5972,0.6151,0.6438,0.7124,0.0,0.0,0.0,0.0,0.5468,0.5675,0.6175,0.681,0.7071,0.7213,0.7213,0.8151,0.8646,0.8597,0.9476,0.9906,0.9906,0.9869,0.9822,0.9758,0.8158,0.7341,0.7136,0.5416,0.4632,0.4535,0.4489,0.4804,0.5308,0.5308,0.5469,0.567,0.5195,0.4872,0.4418,0.2213,0.1109,0.0706,0.0706,0.0706,0.0706,0.0706,0.1058,0.1411,0.1411,0.1411,0.1411,0.1411,0.1447,0.1631,0.2517,0.2665,0.286,0.3786,0.4159,0.435,0.4501,0.4684,0.4872,0.4954,0.4851,0.4782,0.48,0.4555,0.3851,0.2446,0.2229,0.2203,0.213,0.2026,0.2195,0.2833,0.2832,0.2753,0.2707,0.212,0.1795,0.1795,0.1274,0.1218,0.1774,0.1808,0.2108,0.2711,0.3011,0.3447,0.4015,0.435,0.4821,0.1008,0.0619,0.0,0.0,0.0,0.0,0.0062,0.1079,0.1893,0.1714,0.266,0.3401,0.0,0.0,0.3846,0.3897,0.5509,0.6992,0.7596,0.8425,0.9074,0.0,0.0,0.0,0.0,0.0,0.0,0.7329,0.0,0.8418,0.9945,1.0348,1.0504,1.0504,1.0358,1.0215,1.0021,0.9924,0.9836,0.9822,0.9822,0.9822,0.9758,0.8218,0.7365,0.6985,0.557,0.4782,0.4479,0.4641,0.553,0.6813,0.6813,0.7491,0.8325,0.7048,0.6375,0.5927,0.4668,0.3265,0.2113,0.2113,0.2113,0.2113,0.2113,0.3015,0.4016,0.4016,0.4016,0.4016,0.4016,0.4016,0.4016,0.4066,0.4112,0.4093,0.4175,0.5006,0.5737,0.5887,0.6572,0.7152,0.7336,0.7126,0.6896,0.6896,0.6817,0.5956,0.3782,0.3495,0.3404,0.3207,0.3186,0.3127,0.3051,0.3048,0.2966,0.285,0.2778,0.2778,0.2778,0.2711,0.2711,0.2778,0.2778,0.2778,0.2845,0.368,0.4082,0.4082,0.499,0.5395,0.0284,0.0182,0.0,0.0,0.0,0.0254,0.1264,0.1481,0.1707,0.2539,0.2728,0.2709,0.0,0.0,0.0,0.5324,0.6611,0.0,0.8962,0.9271,0.0,0.9595,0.0,0.9822,0.9822,0.9856,0.0,0.0,0.9317,0.9698,1.0368,1.0558,1.0663,1.0663,1.0415,1.0368,1.0548,1.0293,1.0049,0.9822,0.9822,0.9822,0.9761,0.939,0.9166,0.9026,0.8466,0.8168,0.8033,0.7841,0.7986,0.8322,0.8322,0.8422,0.8482,0.8111,0.7776,0.7434,0.708,0.547,0.3465,0.3465,0.3465,0.3465,0.3465,0.3715,0.4016,0.4016,0.4016,0.4016,0.4016,0.4016,0.4268,0.5272,0.5414,0.5618,0.672,0.7048,0.7149,0.7248,0.7326,0.7288,0.7214,0.7092,0.7041,0.7041,0.7007,0.6411,0.4875,0.4596,0.4494,0.4452,0.4265,0.4404,0.5012,0.4959,0.4865,0.4731,0.4048,0.368,0.368,0.3045,0.3011,0.3647,0.368,0.4015,0.4722,0.4921,0.5057,0.5057,0.5292,0.5395,0.0,0.0,0.0,0.0,0.0,0.0188,0.0929,0.1621,0.2232,0.2793,0.3478,0.0,0.0,0.0,0.0,0.0,0.0,0.0,0.8371,0.9111,0.9608,0.0,1.0049,0.0,1.0236,1.0243,1.0209,0.0,1.0226,1.0222,1.0388,1.0538,1.0649,1.0717,1.0493,1.0392,1.0361,1.0195,0.9992,0.9822,0.9822,0.9822,0.9822,0.9822,0.9751,0.9622,0.0,0.9371,0.9181,0.9076,0.8994,0.8885,0.8885,0.8794,0.8581,0.8581,0.8394,0.814,0.814,0.7077,0.5672,0.507,0.487,0.487,0.487,0.5272,0.5772,0.5772,0.5772,0.5772,0.5772,0.5772,0.5924,0.6681,0.6828,0.6993,0.7819,0.7807,0.7604,0.7614,0.7539,0.7421,0.7268,0.7139,0.7095,0.7095,0.7095,0.6812,0.6089,0.5823,0.565,0.5589,0.5404,0.5432,0.5784,0.5728,0.5589,0.5409,0.4891,0.4619,0.4619,0.4148,0.4115,0.4619,0.4619,0.4888,0.5395,0.5395,0.5395,0.5395,0.5395,0.5395,0.0,0.0,0.0,0.0,0.0,0.0061,0.039,0.1734,0.2983,0.3065,0.0,0.5511,0.5106,0.4803,0.4651,0.4778,0.0,0.6665,0.7296,0.8545,0.9622,1.0185,1.0283,1.0365,1.0507,1.0504,1.0555,1.0707,1.0483,1.0337,1.0337,1.0456,1.0565,1.066,1.0551,1.0341,0.996,0.9845,0.9839,0.9822,0.9822,0.9822,0.9822,0.9822,0.9683,0.9445,0.0,0.0,0.9005,0.911,0.9069,0.8885,0.8885,0.8832,0.8682,0.8703,0.8523,0.8327,0.8344,0.8197,0.7865,0.6637,0.6279,0.6279,0.6279,0.7083,0.7988,0.7988,0.7988,0.7988,0.7988,0.7988,0.7988,0.7988,0.7988,0.7988,0.7988,0.7838,0.7611,0.7458,0.7536,0.7573,0.7446,0.7258,0.7119,0.7098,0.7095,0.7095,0.7095,0.6902,0.6671,0.6559,0.6412,0.6204,0.5857,0.583,0.5705,0.5443,0.5426,0.5416,0.5395,0.5395,0.5395,0.5395,0.5395,0.5395,0.5395,0.5395,0.5395,0.5395,0.5395,0.5405,0.0,0.0,0.0,0.0,0.0,0.0482,0.2309,0.2517,0.0,0.0,0.489,0.4737,0.4758,0.5016,0.0,0.6357,0.0,0.0,0.0,0.0,0.97,0.0,0.0,0.0,0.0,0.0,0.0,0.0,0.0,0.0,1.0643,1.0666,1.0582,1.0365,1.0443,1.029,0.9866,0.9899,0.9883,0.9822,0.9822,0.9822,0.9822,0.9822,0.9791,0.9741,0.0,0.0,0.9296,0.9251,0.9069,0.8885,0.8885,0.8767,0.8537,0.8662,0.8523,0.834,0.8404,0.835,0.8157,0.7779,0.7637,0.7637,0.7637,0.7839,0.7988,0.7988,0.7988,0.7988,0.7988,0.7988,0.7988,0.7988,0.7988,0.7988,0.7988,0.7948,0.787,0.7767,0.7756,0.7689,0.7463,0.7395,0.7288,0.7115,0.7095,0.7095,0.7095,0.695,0.6831,0.6678,0.6525,0.6315,0.5979,0.5952,0.5864,0.5569,0.5549,0.5528,0.5399,0.5395,0.5395,0.5395,0.5395,0.5395,0.5395,0.5395,0.5395,0.5395,0.5395,0.5463,0.0,0.0,0.0,0.0,0.0,0.0353,0.1823,0.0,0.0,0.0,0.4314,0.4372,0.4419,0.0,0.0,0.0,0.0,0.0,0.0,0.0,0.0,0.0,0.0,0.0,0.0,0.0,0.0,0.0,0.0,0.0,1.0717,1.0721,1.0619,1.0395,1.0385,1.0239,0.9879,0.9872,0.9893,0.9822,0.9822,0.9822,0.9819,0.9744,0.9751,0.9808,0.9588,0.0,0.9313,0.9241,0.9022,0.8828,0.8851,0.8794,0.8726,0.8801,0.8689,0.8496,0.8486,0.8387,0.8245,0.8089,0.7988,0.7988,0.7988,0.7988,0.7988,0.7988,0.7988,0.7988,0.7988,0.7988,0.7988,0.7988,0.7988,0.7968,0.7887,0.7934,0.7944,0.7841,0.7811,0.7767,0.7624,0.7539,0.7465,0.739,0.7312,0.7261,0.7261,0.7129,0.694,0.6834,0.661,0.6426,0.6169,0.6074,0.5899,0.5715,0.5698,0.5667,0.5627,0.5552,0.5515,0.5515,0.5515,0.5474,0.5395,0.5549,0.5586,0.5515,0.6097,0.6144,0.0,0.0,0.0,0.0,0.0,0.0229,0.1205,0.1681,0.0,0.0,0.3793,0.4167,0.4257,0.0,0.5184,0.0,0.0,0.0,0.0,0.0,0.0,0.0,0.0,0.0,0.0,0.0,0.0,0.0,0.0,0.0,1.0714,1.0687,1.0602,1.0453,1.0307,1.0158,0.994,0.988,0.9822,0.9822,0.9822,0.9805,0.9771,0.9659,0.9652,0.9713,0.9483,0.0,0.0,0.9197,0.8977,0.8726,0.8824,0.8865,0.8834,0.8834,0.8794,0.8645,0.8523,0.8387,0.8252,0.813,0.8015,0.7988,0.7988,0.7988,0.7988,0.7988,0.7988,0.7988,0.7988,0.7988,0.7988,0.7988,0.7988,0.7958,0.7885,0.7907,0.7955,0.7882,0.7862,0.7848,0.7818,0.7719,0.7634,0.7604,0.7468,0.7415,0.7415,0.7238,0.7055,0.6943,0.6732,0.6538,0.6361,0.6193,0.6047,0.5861,0.585,0.5833,0.5803,0.5694,0.5637,0.5637,0.5637,0.5576,0.5491,0.593,0.6058,0.5982,0.7109,0.7233,0.0,0.0,0.0,0.0,0.0,0.039,0.201,0.0,0.0,0.4032,0.4174,0.4121,0.4419,0.4631,0.5013,0.5834,0.0,0.64,0.0,0.0,0.0,0.0,0.0,0.0,0.0,0.0,0.0,0.0,0.0,0.0,0.0,1.0588,1.0449,1.0304,1.0151,0.9933,0.9842,0.9829,0.9822,0.9822,0.9822,0.9754,0.9629,0.9615,0.954,0.9418,0.0,0.0,0.0,0.91,0.8977,0.8726,0.8824,0.8801,0.873,0.873,0.8635,0.8503,0.8486,0.8387,0.832,0.8255,0.8153,0.7988,0.7988,0.7988,0.7988,0.7988,0.7988,0.7988,0.7988,0.7988,0.7988,0.7988,0.7988,0.7985,0.7971,0.7978,0.7985,0.7971,0.7968,0.7924,0.7834,0.7801,0.7746,0.7617,0.7468,0.7415,0.7415,0.7238,0.7092,0.7078,0.6937,0.677,0.6518,0.648,0.6312,0.599,0.5973,0.5909,0.5806,0.5789,0.5783,0.5783,0.5783,0.5776,0.5762,0.6702,0.7168,0.7151,0.8187,0.8725,0.0,0.0,0.0,0.0,0.0,0.0382,0.1974,0.0,0.2374,0.3999,0.4213,0.4169,0.4284,0.4453,0.4758,0.5352,0.5332,0.0,0.0,0.0,0.0,0.0,0.0,0.0,0.0,0.0,0.0,0.0,0.0,0.0,0.0,1.0524,1.0385,1.0148,1.0017,0.9913,0.9822,0.9822,0.9822,0.9819,0.9734,0.9663,0.9602,0.9418,0.9351,0.9371,0.0,0.0,0.0,0.8923,0.8794,0.8479,0.8811,0.879,0.871,0.871,0.8615,0.8469,0.8384,0.8371,0.8255,0.8163,0.8089,0.7988,0.7988,0.7988,0.7988,0.7988,0.7988,0.7988,0.7988,0.7988,0.7988,0.7988,0.7988,0.7988,0.7988,0.7988,0.7988,0.7988,0.7988,0.7971,0.7911,0.7897,0.788,0.7872,0.7662,0.7509,0.7509,0.7292,0.736,0.8105,0.74,0.6844,0.6627,0.6566,0.6426,0.6183,0.6169,0.6142,0.6119,0.5989,0.5939,0.5939,0.6514,0.6788,0.6718,0.7911,0.8446,0.8394,0.9498,0.9732,0.0,0.0,0.0,0.0,0.0178,0.0683,0.0,0.0,0.2743,0.3945,0.416,0.413,0.413,0.43,0.4531,0.4935,0.503,0.5443,0.0,0.0,0.0,0.0,0.0,0.0,0.0,0.0,0.0,0.0,0.0,0.0,0.0,1.0361,1.0266,0.9994,0.9943,0.9869,0.9822,0.9822,0.9798,0.9758,0.9656,0.954,0.9405,0.9232,0.9221,0.9174,0.0,0.0,0.0,0.8832,0.8726,0.8431,0.8747,0.8804,0.8699,0.8611,0.8513,0.8397,0.8252,0.8204,0.8184,0.8025,0.7988,0.7988,0.7988,0.7988,0.7988,0.7988,0.7988,0.7988,0.7988,0.8283,0.8577,0.8577,0.8874,0.9164,0.9164,0.9164,0.9164,0.9164,0.9164,0.9164,0.9164,0.9164,0.9164,0.9164,0.8877,0.8707,0.8707,0.8358,0.8444,0.9318,0.8556,0.7944,0.7806,0.7722,0.7576,0.745,0.7356,0.7289,0.7289,0.7079,0.699,0.699,0.7691,0.7987,0.7884,0.9134,0.9697,0.9647,1.0744,1.087,0.0,0.0,0.0,0.0,0.0665,0.1469,0.0,0.2801,0.3542,0.4098,0.4102,0.3998,0.3998,0.4122,0.4321,0.4646,0.5098,0.5603,0.0,0.0,0.0,0.0,0.0,0.0,0.0,0.0,0.0,0.0,0.0,0.0,0.0,0.9994,0.999,0.9987,0.99,0.9822,0.9822,0.9822,0.9751,0.9612,0.9608,0.9378,0.8895,0.9089,0.8994,0.0,0.0,0.0,0.0,0.8821,0.8794,0.8706,0.871,0.8713,0.8676,0.8384,0.8327,0.8252,0.8096,0.7992,0.7992,0.7988,0.7988,0.7988,0.7988,0.7988,0.7988,0.7988,0.7988,0.7988,0.7988,0.897,0.9998,0.9998,1.0925,1.1848,1.1848,1.1848,1.1848,1.1848,1.1848,1.1848,1.1848,1.1848,1.1848,1.1848,1.1519,1.1283,1.1283,1.0844,1.0567,1.0567,1.0567,1.0514,1.0371,1.035,1.03,1.0166,0.9865,0.9664,0.9664,0.9412,0.9253,0.9253,0.9296,0.9296,0.9291,1.0297,1.0783,1.082,1.1811,1.2268,0.0,0.0,0.0106,0.0613,0.0943,0.1494,0.2683,0.317,0.3593,0.428,0.4382,0.4348,0.4348,0.4389,0.459,0.5098,0.53,0.5641,0.0,0.0,0.0,0.0,0.0,0.0,0.0,0.0,0.0,0.0,0.0,0.0,0.0,1.3215,1.2124,0.9951,1.0868,1.1438,1.1438,1.2513,1.3081,1.3017,1.2682,1.2384,1.2012,1.0951,0.0,0.0,0.0,0.0,0.0,0.8832,0.873,0.8431,0.8632,0.9104,0.9713,0.9607,1.0092,1.0766,1.0703,1.0096,0.9361,0.9361,0.8726,0.8187,0.9069,0.8726,0.8187,0.9118,0.9998,1.0681,1.0681,1.0974,1.1317,1.1317,1.1609,1.1896,1.1896,1.1896,1.1896,1.1896,1.1896,1.1896,1.1896,1.1896,1.1896,1.1896,1.1692,1.1496,1.1303,1.107,1.1172,1.1697,1.1766,1.1368,1.0501,1.0397,1.0347,1.0217,0.9865,0.9703,0.9703,0.9451,0.9296,0.9296,0.9965,1.034,1.034,1.1316,1.1848,1.1842,1.215,1.2305,0.0416,0.0623,0.0876,0.1077,0.1586,0.0,0.0,0.3617,0.4015,0.4427,0.4491,0.4474,0.4392,0.4453,0.4597,0.4891,0.5211,0.0,0.0,0.0,0.0,0.0,0.0,0.0,0.0,0.0,0.0,0.0,0.0,0.0,0.0,0.0,1.3668,1.1515,1.2534,1.3108,1.3108,1.3981,1.4432,1.4346,1.3925,1.3588,1.3291,1.2372,0.0,0.0,0.0,0.0,0.0,1.0347,1.0219,0.9983,1.0012,1.042,1.0952,1.0884,1.1274,1.1896,1.1896,1.1365,1.073,1.073,1.0141,0.9604,1.0485,1.0145,0.9653,1.0485,1.1312,1.1896,1.1896,1.2285,1.2668,1.2668,1.3011,1.3349,1.3349,1.3349,1.3349,1.3349,1.3349,1.3349,1.3349,1.3349,1.3349,1.3349,1.3235,1.2985,1.274,1.2529,1.254,1.293,1.2984,1.2656,1.1859,1.18,1.1778,1.1676,1.1341,1.1118,1.1027,1.0775,1.0561,1.0426,1.1056,1.1354,1.1354,1.1996,1.2305,1.2305,1.2305,1.2305,0.0,0.1706,0.2051,0.0,0.0,0.0,0.3416,0.4072,0.0,0.4535,0.4505,0.447,0.4304,0.4419,0.4505,0.4348,0.4948,0.0,0.0,0.0,0.0,0.0,0.0,0.0,0.0,0.0,0.0,0.0,0.0,0.0,0.0,0.0,1.4767,1.4525,1.4752,1.4875,1.4757,1.458,1.4411,1.4189,1.3922,1.3637,1.3299,1.3372,0.0,0.0,0.0,0.0,0.0,1.2906,1.2758,1.274,1.2329,1.2258,1.2318,1.2119,1.2091,1.2188,1.2188,1.2139,1.2042,1.1945,1.1945,1.2042,1.2042,1.2042,1.2042,1.2042,1.2091,1.2188,1.2188,1.3102,1.4022,1.4022,1.4949,1.5784,1.5784,1.5784,1.5784,1.5784,1.5784,1.5784,1.5784,1.5784,1.5784,1.5784,1.5598,1.5317,1.5075,1.475,1.4469,1.4182,1.4148,1.4142,1.4122,1.4095,1.4088,1.4088,1.3808,1.348,1.3253,1.2958,1.2656,1.2338,1.2311,1.2305,1.2305,1.2305,1.2305,1.2305,1.2305,1.2305,0.2859,0.0,0.2279,0.2695,0.3079,0.3507,0.0,0.439,0.4566,0.4648,0.4665,0.4697,0.4857,0.4921,0.5074,0.5386,0.5681,0.0,0.0,0.0,0.0,0.0,0.0,0.0,0.0,0.0,0.0,0.0,0.0,0.0,0.0,0.0,1.7786,1.7509,1.7767,1.7325,1.609,1.7001,1.7358,1.7026,1.6963,1.669,1.62,1.53,0.0,0.0,0.0,0.0,1.2613,1.2728,1.2625,1.2314,1.2259,1.2706,1.3471,1.3463,1.4028,1.4854,1.4854,1.4274,1.3247,1.2237,1.2571,1.344,1.344,1.344,1.344,1.344,1.4124,1.4854,1.4854,1.5099,1.5343,1.5343,1.5588,1.5784,1.5784,1.5784,1.5784,1.5784,1.5784,1.5784,1.5784,1.5784,1.5784,1.5784,1.5772,1.5625,1.5331,1.5231,1.5084,1.4834,1.48,1.4669,1.4436,1.4215,1.4088,1.4088,1.3808,1.3573,1.3507,1.3065,1.275,1.2683,1.2418,1.2305,1.2305,1.2305,1.2305,1.2305,1.2305,1.2305,0.3148,0.3344,0.347,0.3577,0.3831,0.4158,0.4663,0.4638,0.4535,0.466,0.0,0.0,0.0,0.0,0.0,0.0,0.0,0.0,0.0,0.0,0.0,0.0,0.0,0.0,0.0,0.0,0.0,0.0,0.0,0.0,0.0,0.0,1.8591,1.8297,1.8382,1.8125,1.7447,1.7975,1.8136,1.7836,1.7836,1.7522,1.6954,1.6451,1.5975,0.0,0.0,0.0,1.4343,1.4417,1.4261,1.4057,1.3886,1.425,1.4752,1.4752,1.5194,1.5784,1.5784,1.5343,1.4657,1.3932,1.4172,1.4752,1.4752,1.4752,1.4752,1.4752,1.5289,1.5784,1.5784,1.5784,1.5784,1.5784,1.5784,1.5784,1.5784,1.5784,1.5784,1.5784,1.5784,1.5784,1.5784,1.5784,1.5784,1.5784,1.5784,1.5678,1.5431,1.5398,1.5284,1.5042,1.4843,1.4696,1.4536,1.4255,1.4088,1.4088,1.3935,1.3746,1.3613,1.32,1.2864,1.2583,1.2385,1.2305,1.2305,1.2305,1.2305,1.2305,1.2732,1.2696,0.3049,0.4074,0.4787,0.4279,0.4553,0.4951,0.5069,0.4819,0.0,0.0,0.0,0.0,0.0,0.0,0.0,0.0,0.0,0.0,0.0,0.0,0.0,0.0,0.0,0.0,0.0,0.0,0.0,0.0,0.0,0.0,0.0,0.0,0.0,1.7935,1.7922,1.8096,1.835,1.8103,1.7822,1.7515,1.7515,1.7235,1.6714,1.6967,1.6971,0.0,0.0,0.0,1.6553,1.6353,1.6246,1.6179,1.5925,1.5784,1.5784,1.5784,1.5784,1.5784,1.5784,1.5784,1.5784,1.5784,1.5784,1.5784,1.5784,1.5784,1.5784,1.5784,1.5784,1.5784,1.5784,1.5784,1.5784,1.5784,1.5784,1.5784,1.5784,1.5784,1.5784,1.5784,1.5784,1.5784,1.5784,1.5784,1.5784,1.5784,1.5784,1.5738,1.5491,1.5464,1.5364,1.5169,1.487,1.4727,1.4801,1.4613,1.4508,1.458,1.4292,1.3935,1.3553,1.3493,1.3074,1.2311,1.2445,1.2445,1.2305,1.2592,1.2659,1.2556,1.3491,1.3491,0.3812,0.4548,0.5011,0.4821,0.493,0.5073,0.5093,0.4955,0.4928,0.0,0.0,0.0,0.0,0.0,0.0,0.0,0.0,0.0,0.0,0.0,0.0,0.0,0.0,0.0,0.0,0.0,0.0,0.0,0.0,0.0,0.0,0.0,0.0,1.7662,1.7655,1.7675,1.7722,1.7675,1.7508,1.7266,1.7266,1.7034,1.6707,1.6754,1.6613,0.0,0.0,1.6426,1.5979,1.6186,1.6126,1.5892,1.5798,1.5784,1.5784,1.5784,1.5784,1.5784,1.5784,1.5784,1.5784,1.5784,1.5784,1.5784,1.5784,1.5784,1.5784,1.5784,1.5784,1.5784,1.5784,1.5784,1.5784,1.5784,1.5784,1.5784,1.5784,1.5784,1.5784,1.5784,1.5784,1.5784,1.5784,1.5784,1.5784,1.5784,1.5784,1.5764,1.5718,1.5718,1.5698,1.5698,1.5604,1.578,1.622,1.6265,1.638,1.6763,1.511,1.3841,1.326,1.4105,1.3846,1.2311,1.3098,1.3098,1.2305,1.3947,1.4307,1.3528,1.4522,1.4879,0.3762,0.4375,0.4833,0.5094,0.5328,0.5535,0.5701,0.5437,0.5267,0.0,0.0,0.0,0.0,0.0,0.0,0.0,0.0,0.0,0.0,0.0,0.0,0.0,0.0,0.0,0.0,0.0,0.0,0.0,0.0,0.0,0.0,0.0,0.0,0.0,1.7108,1.7108,1.7108,1.7108,1.7041,1.6907,1.6907,1.6673,1.6239,1.64,1.6313,1.6039,0.0,1.6079,1.5791,1.5979,1.5952,1.5784,1.5784,1.5784,1.5784,1.5784,1.5784,1.5784,1.5784,1.5784,1.5784,1.5784,1.5784,1.5784,1.5784,1.5784,1.5784,1.5784,1.5784,1.5784,1.5784,1.5784,1.5784,1.5784,1.5784,1.5784,1.5784,1.5784,1.5784,1.5784,1.5784,1.5784,1.5784,1.5784,1.5784,1.5784,1.5784,1.5784,1.5784,1.6386,1.681,1.681,1.7289,1.756,1.7545,1.7419,1.7349,1.7294,1.6184,1.5298,1.4856,1.5072,1.4813,1.389,1.4271,1.4307,1.3875,1.4772,1.495,1.4522,1.5508,1.5685,0.3632,0.4146,0.461,0.5112,0.5426,0.5772,0.6293,0.5907,0.5607,0.0,0.0,0.0,0.0,0.0,0.0,0.0,0.0,0.0,0.0,0.0,0.0,0.0,0.0,0.0,0.0,0.0,0.0,0.0,0.0,0.0,0.0,0.0,0.0,0.0,1.664,1.664,1.6707,1.6573,1.6573,1.6707,1.664,1.6366,1.5939,1.6092,1.6046,1.5784,1.5784,1.5784,1.5784,1.5784,1.5784,1.5784,1.5784,1.5784,1.5784,1.5784,1.5784,1.5784,1.5784,1.5784,1.5784,1.5784,1.5784,1.5784,1.5784,1.5784,1.5784,1.5784,1.5784,1.5784,1.5784,1.5784,1.5784,1.5784,1.5784,1.5784,1.5784,1.6015,1.6244,1.6244,1.6473,1.6567,1.6292,1.6473,1.6567,1.6292,1.6473,1.6655,1.6655,1.7537,1.8141,1.8141,1.876,1.9079,1.8793,1.8759,1.8555,1.8086,1.7539,1.6932,1.6244,1.6234,1.5956,1.5207,1.5495,1.5495,1.5199,1.5623,1.5728,1.5552,1.6498,1.6532,0.3751,0.4146,0.4535,0.4723,0.4958,0.5406,0.6441,0.6101,0.0,0.6643,0.0,0.0,0.0,0.0,0.0,0.0,0.0,0.0,0.0,0.0,0.0,0.0,0.0,0.0,0.0,0.0,0.0,0.0,0.0,0.0,0.0,0.0,0.0,0.0,0.0,1.6433,1.67,1.6117,1.6166,1.67,1.6433,1.6335,1.6233,1.5979,1.5798,1.5784,1.5784,1.5784,1.5784,1.5784,1.5784,1.5784,1.5784,1.5784,1.5784,1.5784,1.5784,1.5784,1.5784,1.5784,1.5784,1.5784,1.5784,1.5784,1.5784,1.5784,1.5784,1.5784,1.5784,1.5784,1.5784,1.5784,1.5784,1.5784,1.5784,1.5784,1.5784,1.6716,1.7552,1.7552,1.8457,1.8856,1.7777,1.8495,1.8856,1.7731,1.8495,1.9214,1.9214,1.9314,1.936,1.936,1.9426,1.9569,1.9844,2.0538,2.0796,2.0391,1.9413,1.8044,1.6291,1.7541,1.732,1.5251,1.6402,1.6447,1.5199,1.6941,1.7364,1.6532,1.7467,1.7862,0.3668,0.4078,0.4573,0.488,0.5015,0.5349,0.0,0.6413,0.6485,0.72,0.7146,0.0,0.0,0.0,0.0,0.0,0.0,0.0,0.0,0.0,0.0,0.0,0.0,0.0,0.0,0.0,0.0,0.0,0.0,0.0,0.0,0.0,0.0,0.0,0.0,1.6052,1.6159,1.5891,1.5891,1.6159,1.6052,1.5999,1.5992,1.5879,1.5784,1.5784,1.5784,1.5784,1.5784,1.5784,1.5784,1.5784,1.5784,1.5784,1.5784,1.5784,1.5784,1.5784,1.5784,1.5784,1.592,1.6709,1.699,1.7124,1.7848,1.8118,1.8118,1.8118,1.8118,1.7755,1.6197,1.6386,1.699,1.699,1.7537,1.8118,1.8118,1.8488,1.8818,1.8818,1.9177,1.936,1.891,1.9177,1.936,1.891,1.9222,1.9497,1.9497,2.0169,2.0621,2.0621,2.105,2.1407,2.1537,2.1334,2.1122,2.0996,2.0062,1.923,1.8515,1.8807,1.8449,1.7327,1.7821,1.7708,1.6941,1.7647,1.7828,1.7467,1.7828,1.8008,0.3542,0.3931,0.4409,0.4736,0.4999,0.0,0.6339,0.6552,0.6787,0.7577,0.7809,0.0,0.0,0.0,0.0,0.0,0.0,0.0,0.0,0.0,0.0,0.0,0.0,0.0,0.0,0.0,0.0,0.0,0.0,0.0,0.0,0.0,0.0,0.0,0.0,1.5784,1.5784,1.5784,1.5784,1.5784,1.5784,1.5784,1.5784,1.5784,1.5784,1.5825,1.6251,1.615,1.5832,1.6251,1.6157,1.5784,1.5784,1.6062,1.6386,1.6386,1.6662,1.6976,1.6976,1.6976,1.7117,1.8002,1.828,1.8411,1.9268,1.9497,1.9497,1.9497,1.9497,1.9131,1.739,1.7623,1.828,1.828,1.891,1.9497,1.9497,1.9807,2.0079,2.0079,2.0404,2.0539,2.0124,2.0404,2.0494,2.0124,2.0395,2.0629,2.0629,2.1346,2.1845,2.1845,2.2375,2.2607,2.2334,2.1777,2.1278,2.1045,2.0459,2.0059,1.9922,1.9775,1.9424,1.8822,1.8812,1.8598,1.8178,1.8076,1.8008,1.8008,1.8008,1.8008,0.344,0.3706,0.4035,0.0,0.0,0.0,0.6495,0.6518,0.6648,0.7746,0.0,0.9858,0.0,0.0,0.0,0.0,0.0,0.0,0.0,0.0,0.0,0.0,0.0,0.0,0.0,0.0,0.0,0.0,0.0,0.0,0.0,0.0,0.0,0.0,0.0,1.5825,1.5784,1.5825,1.5825,1.5825,1.5832,1.5832,1.5825,1.5825,1.5825,1.592,1.7178,1.699,1.592,1.7178,1.699,1.5825,1.5825,1.6622,1.7738,1.7738,1.8457,1.9497,1.9497,1.9497,1.9497,1.9488,1.9542,1.9542,1.9542,1.9534,1.9534,1.9534,1.9534,1.9534,1.9534,1.9534,1.9542,1.9542,1.9542,1.9534,1.9534,2.0486,2.1337,2.1337,2.2262,2.2721,2.1525,2.2306,2.2677,2.1525,2.235,2.3091,2.3091,2.3091,2.3091,2.3091,2.3091,2.276,2.1973,2.1894,2.1514,2.0674,2.0605,2.041,1.9941,2.0332,2.0204,1.9307,1.9287,1.9072,1.8598,1.8213,1.8008,1.8008,1.8008,1.8008,0.3805,0.3971,0.0,0.4722,0.0,0.0,0.0,0.6878,0.0,0.0,0.0,0.0,0.0,0.0,0.0,0.0,0.0,0.0,0.0,0.0,0.0,0.0,0.0,0.0,0.0,0.0,0.0,0.0,0.0,0.0,0.0,0.0,0.0,0.0,1.7131,1.6716,1.5832,1.6669,1.7131,1.7131,1.7994,1.7948,1.7131,1.7131,1.7584,1.8395,1.8818,1.8764,1.8442,1.881,1.8718,1.8395,1.8395,1.8626,1.8956,1.8956,1.9177,1.9497,1.9497,1.9497,1.9625,2.0477,2.0755,2.0935,2.1765,2.2041,2.2041,2.2041,2.2041,2.2041,2.2041,2.2041,2.181,2.098,2.14,2.2041,2.2041,2.2315,2.2589,2.2589,2.2862,2.3003,2.2633,2.2862,2.3003,2.2633,2.2862,2.3091,2.3091,2.3091,2.3091,2.3091,2.3091,2.2994,2.274,2.2227,2.1768,2.1514,2.0948,2.0546,2.0419,2.0537,2.0341,1.9736,1.9434,1.9072,1.8598,1.8213,1.8008,1.8008,1.8008,1.8008,0.3819,0.4083,0.0,0.5148,0.565,0.6156,0.6817,0.0,0.0,0.0,0.0,0.0,0.0,0.0,0.0,0.0,0.0,0.0,0.0,0.0,0.0,0.0,0.0,0.0,0.0,0.0,0.0,0.0,0.0,0.0,0.0,0.0,0.0,0.0,1.7923,1.7508,1.674,1.7508,1.7923,1.7916,1.8628,1.8844,1.8583,1.8275,1.8645,1.9497,1.9497,1.9686,1.9964,1.9612,1.9497,1.9497,1.9497,1.9807,2.0215,2.0215,2.0539,2.0944,2.0944,2.0944,2.1033,2.1756,2.2031,2.2164,2.2862,2.3091,2.3091,2.3091,2.3091,2.3091,2.3091,2.3091,2.2906,2.2173,2.2589,2.3091,2.3091,2.3091,2.3091,2.3091,2.3091,2.3091,2.3091,2.3091,2.3091,2.3091,2.3091,2.3091,2.3091,2.3091,2.3091,2.3091,2.3507,2.3617,2.3223,2.2794,2.2392,2.195,2.1457,2.1155,2.1155,2.0789,2.0478,2.0176,1.959,1.916,1.8896,1.8626,1.8529,1.8529,1.8888,1.9044,0.3675,0.0,0.0,0.5403,0.5986,0.0,0.7286,0.0,0.0,0.0,0.0,0.0,0.0,0.0,0.0,0.0,0.0,0.0,0.0,0.0,0.0,0.0,0.0,0.0,0.0,0.0,0.0,0.0,0.0,0.0,0.0,0.0,0.0,0.0,1.8372,1.8329,1.82,1.8286,1.8372,0.0,1.8458,1.9102,2.0129,1.9314,1.9218,1.9715,1.9715,2.0146,2.0741,2.0054,1.9756,1.9756,1.9756,2.0433,2.1425,2.1425,2.2117,2.3042,2.3081,2.3091,2.3091,2.3091,2.3091,2.3091,2.3091,2.3091,2.3091,2.3091,2.3062,2.3052,2.3081,2.3062,2.3052,2.3081,2.3091,2.3091,2.3091,2.3091,2.3091,2.3091,2.3091,2.3091,2.3091,2.3091,2.3091,2.3091,2.3091,2.3135,2.3266,2.3256,2.3299,2.3387,2.4339,2.4556,2.3579,2.3594,2.3231,2.2256,2.2172,2.214,2.214,2.1336,2.0847,2.0807,1.9984,1.9512,1.9462,1.9434,1.9431,1.9431,2.0236,2.059,0.4235,0.4392,0.0,0.0,0.6101,0.68,0.0,0.0,0.0,0.0,0.0,0.0,0.0,0.0,0.0,0.0,0.0,0.0,0.0,0.0,0.0,0.0,0.0,0.0,0.0,0.0,0.0,0.0,0.0,0.0,0.0,0.0,0.0,1.9604,1.9604,1.9178,1.8208,1.9136,1.9604,0.0,2.062,2.1233,2.1451,2.0262,2.0352,2.1372,2.1372,2.1493,2.1656,2.1802,2.1844,2.1844,2.1844,2.2016,2.2241,2.2241,2.2422,2.2652,2.2984,2.3091,2.3091,2.3091,2.3091,2.3091,2.3091,2.3091,2.3091,2.3091,2.2857,2.2682,2.3013,2.2847,2.2734,2.3013,2.3091,2.3091,2.3091,2.3091,2.3091,2.3091,2.3091,2.3091,2.3091,2.3091,2.3091,2.3091,2.3091,2.342,2.4339,2.4414,2.4798,2.5683,2.5975,2.5856,2.5158,2.4851,2.4387,2.3764,2.3367,2.3184,2.3184,2.2962,2.2676,2.227,2.1683,2.1205,2.079,2.0479,2.0333,2.0333,2.0526,2.059,0.4023,0.0,0.0,0.5723,0.0,0.0,0.0,0.0,0.0,0.0,0.0,0.0,0.0,0.0,0.0,0.0,0.0,0.0,0.0,0.0,0.0,0.0,0.0,0.0,0.0,0.0,0.0,0.0,0.0,0.0,0.0,2.0647,2.0304,2.0304,2.0304,1.9887,1.903,1.9644,1.9965,1.9974,2.065,2.1055,2.1269,2.1034,2.1037,2.1319,2.1699,2.1768,2.1611,2.2031,2.2207,2.2207,2.2207,2.2207,2.2207,2.2207,2.2207,2.2275,2.2652,2.2789,2.2789,2.2789,2.2789,2.276,2.2598,2.2676,2.2789,2.2789,2.2643,2.2568,2.2783,2.2676,2.2568,2.274,2.2945,2.3091,2.3091,2.3091,2.3091,2.3091,2.3091,2.3091,2.3091,2.3551,2.392,2.392,2.4111,2.4504,2.5117,2.5189,2.5406,2.6032,2.6775,2.7031,2.6472,2.6274,2.585,2.5012,2.4749,2.4495,2.424,2.4413,2.3933,2.2715,2.2224,2.1732,2.1208,2.1453,2.147,2.1227,2.1604,2.1803,0.3772,0.0,0.503,0.6227,0.6908,0.0,0.0,0.0,0.0,0.0,0.0,0.0,0.0,0.0,0.0,0.0,0.0,0.0,0.0,0.0,0.0,0.0,0.0,0.0,0.0,0.0,0.0,0.0,0.0,0.0,2.038,2.038,2.038,2.038,2.038,2.0176,1.9814,1.9805,1.9805,1.9805,1.9805,2.0,2.041,2.1103,2.1123,2.0644,2.1378,2.1455,2.1112,2.1592,2.1777,2.1777,2.1777,2.1777,2.1777,2.1777,2.1777,2.1836,2.2256,2.2402,2.2402,2.2402,2.2402,2.2353,2.208,2.2352,2.2807,2.2886,2.2973,2.3092,2.3173,2.3133,2.3102,2.3173,2.342,2.3637,2.343,2.3387,2.343,2.3637,2.3681,2.3681,2.3681,2.4467,2.5083,2.5083,2.5448,2.5804,2.5994,2.6045,2.6126,2.6286,2.7556,2.8134,2.751,2.7551,2.7131,2.5973,2.5913,2.5721,2.5276,2.5481,2.4856,2.3234,2.2628,2.2126,2.1671,2.2427,2.2527,2.2125,2.2793,2.3158,0.0,0.0,0.5262,0.0,0.7134,0.0,0.0,0.0,0.0,0.0,0.0,0.0,0.0,0.0,0.0,0.0,0.0,0.0,0.0,0.0,0.0,0.0,0.0,0.0,0.0,0.0,0.0,0.0,0.0,0.0,1.9453,1.9453,1.9453,1.9453,1.9453,1.9434,1.9375,1.9375,1.9375,1.9375,1.9375,1.9404,1.9463,1.958,2.0018,2.0615,2.0732,2.0752,2.0723,2.1133,2.1278,2.1278,2.1278,2.1278,2.1278,2.1278,2.1278,2.1346,2.1816,2.1973,2.1973,2.1973,2.1973,2.2031,2.2334,2.3148,2.4033,2.4377,2.4909,2.547,2.5859,2.565,2.5481,2.587,2.6014,2.5766,2.4798,2.4585,2.4882,2.585,2.6069,2.6069,2.6069,2.6182,2.6265,2.6265,2.6333,2.6739,2.7658,2.7778,2.816,2.9137,2.9457,2.9149,2.8064,2.8014,2.7552,2.6477,2.6414,2.6377,2.6314,2.5832,2.5486,2.5206,2.4241,2.3696,2.3622,2.3232,2.3019,2.2944,2.3047,2.3371,0.478,0.4825,0.5088,0.0,0.0,0.0,0.0,0.0,0.0,0.0,0.0,0.0,0.0,0.0,0.0,0.0,0.0,0.0,0.0,0.0,0.0,0.0,0.0,0.0,0.0,0.0,0.0,0.0,0.0,1.9287,1.9287,1.9287,1.9287,1.9287,1.9287,1.917,1.8926,1.8926,1.8926,1.8926,1.8926,1.9053,1.9277,1.9033,1.9258,1.9891,1.9891,1.9891,1.9901,2.0059,2.0283,2.0459,2.0459,2.0644,2.0859,2.0859,2.0859,2.0928,2.1367,2.1523,2.1595,2.2171,2.2361,2.2511,2.3286,2.4038,2.4741,2.5221,2.5566,2.5761,2.5665,2.5526,2.5413,2.5598,2.5815,2.6125,2.6546,2.616,2.5891,2.6389,2.6524,2.6524,2.6524,2.7005,2.7412,2.7412,2.7659,2.8032,2.8472,2.8549,2.8728,2.9226,2.9603,2.9591,2.9101,2.875,2.8235,2.7431,2.7128,2.6813,2.6512,2.59,2.5749,2.6109,2.5297,2.4594,2.4004,2.4054,2.3722,2.3108,2.3108,2.3246,0.0,0.0,0.5151,0.7111,0.0,0.0,0.0,0.0,0.0,0.0,0.0,0.0,0.0,0.0,0.0,0.0,0.0,0.0,0.0,0.0,0.0,0.0,0.0,0.0,0.0,0.0,0.0,0.0,0.0,1.8633,1.8633,1.8633,1.8633,1.8633,1.8633,1.8486,1.812,1.812,1.8178,1.8286,1.8286,1.8545,1.8955,1.8623,1.8652,1.8975,1.9189,1.9287,1.9287,1.9287,1.9473,1.9766,1.9873,2.0117,2.0449,2.0566,2.0605,2.0693,2.1214,2.1402,2.1589,2.2601,2.2898,2.3073,2.3993,2.4792,2.5522,2.6023,2.6501,2.6688,2.614,2.6105,2.6174,2.6035,2.6355,2.6936,2.7881,2.7695,2.7354,2.7354,2.7354,2.7354,2.7354,2.7988,2.8518,2.8518,2.8878,2.9151,2.9151,2.9151,2.9151,2.9151,2.9528,2.9729,2.9578,2.9051,2.8486,2.7934,2.7381,2.6927,2.6512,2.6084,2.6047,2.6487,2.6072,2.5347,2.4406,2.4544,2.4224,2.3534,2.3233,2.3258,0.0,0.5083,0.0,0.0,0.0,0.0,0.0,0.0,0.0,0.0,0.0,0.0,0.0,0.0,0.0,0.0,0.0,0.0,0.0,0.0,0.0,0.0,0.0,0.0,0.0,0.0,0.0,0.0,0.0,1.6833,1.6833,1.6833,1.6833,1.6833,1.6833,1.6824,1.6794,1.6794,1.7009,1.7451,1.7451,1.7666,1.8076,1.8047,1.8057,1.8115,1.8936,1.9287,1.9287,1.9287,1.9297,1.9365,1.9756,1.9922,2.0,2.0449,2.0605,2.0722,2.1652,2.1956,2.2107,2.3143,2.3449,2.3527,2.4044,2.5286,2.6633,2.7079,2.838,2.9449,2.8837,2.9124,2.9399,2.8812,2.9162,2.9289,2.8295,2.8897,2.9624,2.9624,2.9624,2.9624,2.9624,2.9663,2.9702,2.9702,2.9728,2.9741,2.9741,2.9741,2.9741,2.9741,2.9779,2.9566,2.8988,2.8461,2.7908,2.7392,2.6839,2.6524,2.6499,2.6461,2.6461,2.6499,2.6461,2.6147,2.5511,2.4519,2.428,2.4675,2.3597,2.3684,0.0,0.0,0.0,0.0,0.0,0.0,0.0,0.0,0.0,0.0,0.0,0.0,0.0,0.0,0.0,0.0,0.0,0.0,0.0,0.0,0.0,0.0,0.0,0.0,0.0,0.0,0.0,0.0,0.0,0.0,1.6687,1.6465,1.6436,1.6687,1.6697,1.6697,1.6697,1.6697,1.6775,1.6963,1.6963,1.7041,1.7155,1.7155,1.7344,1.765,1.8496,1.8696,1.8467,1.8467,1.8799,1.937,2.0163,2.078,2.1367,2.2162,2.2451,2.2526,2.285,2.2962,2.3147,2.4156,2.4445,2.4693,2.5841,2.681,2.7656,2.8173,2.876,2.9101,2.8549,2.8298,2.8222,2.836,2.9114,2.9702,2.9287,2.9495,2.9792,2.9792,2.9792,2.9792,2.9792,2.9792,2.9792,2.9792,2.9792,2.9792,2.9792,2.9792,2.9792,2.9792,2.9792,2.9704,2.9503,2.8637,2.8021,2.7821,2.7002,2.6499,2.6499,2.6499,2.6499,2.6499,2.6499,2.621,2.5598,2.5209,2.4958,2.4808,2.4965,2.5257,0.6412,0.0,0.0,0.0,0.0,0.0,0.0,0.0,0.0,0.0,0.0,0.0,0.0,0.0,0.0,0.0,0.0,0.0,0.0,0.0,0.0,0.0,0.0,0.0,0.0,0.0,0.0,0.0,0.0,0.0,1.6239,1.6006,1.5986,1.6248,1.6122,1.6122,1.6258,1.6122,1.6221,1.6514,1.6514,1.656,1.6697,1.6971,1.7246,1.76,1.8533,1.8609,1.8042,1.862,1.9032,1.9414,2.053,2.126,2.1839,2.2855,2.3232,2.329,2.3834,2.4,2.4192,2.5182,2.5511,2.569,2.6716,2.7394,2.7946,2.8461,2.875,2.8813,2.8473,2.8109,2.7971,2.8536,2.9252,2.9792,2.9792,2.9792,2.9792,2.9792,2.9792,2.9792,2.9792,2.9792,2.9792,2.9792,2.9628,2.9578,2.9767,2.9616,2.9578,2.9779,2.9792,2.9819,2.9948,2.9092,2.8562,2.864,2.785,2.7351,2.7351,2.7351,2.7351,2.7351,2.7351,2.7155,2.6733,2.6257,2.609,2.6206,2.6414,2.661,0.0,0.0,0.0,0.0,0.0,0.0,0.0,0.0,0.0,0.0,0.0,0.0,0.0,0.0,0.0,0.0,0.0,0.0,0.0,0.0,0.0,0.0,0.0,0.0,0.0,0.0,0.0,0.0,0.0,1.54,1.5439,1.5439,1.5459,1.5429,1.5047,1.5027,1.5429,1.5037,1.5281,1.6106,1.6156,1.6362,1.6752,1.7461,1.779,1.7893,1.9153,1.9073,1.8162,1.9901,2.0117,1.9494,2.0765,2.1241,2.1375,2.2416,2.2775,2.2984,2.4519,2.5028,2.517,2.6164,2.6499,2.6512,2.6512,2.6914,2.7444,2.7984,2.8511,2.8888,2.8875,2.8888,2.9026,2.9628,2.9779,2.9792,2.9792,2.9792,2.9792,2.9792,2.9792,2.9792,2.9792,2.9792,2.9792,2.9792,2.9315,2.9113,2.9691,2.9289,2.9151,2.973,2.9793,2.9923,3.0204,2.9733,2.952,2.9778,2.9302,2.9002,2.9002,2.9002,2.9002,2.9002,2.9002,2.9002,2.9034,2.7637,2.765,2.8975,2.788,2.7718,0.6768,0.0,0.0,0.0,0.0,0.0,0.0,0.0,0.0,0.0,0.0,0.0,0.0,0.0,0.0,0.0,0.0,0.0,0.0,0.0,0.0,0.0,0.0,0.0,0.0,0.0,0.0,0.0,1.5195,1.5344,1.6159,1.6698,1.6655,1.586,1.6095,1.6106,1.5849,1.6106,1.6369,1.66,1.7,1.7237,1.7367,1.7566,1.7838,1.8207,1.9183,1.9263,1.8739,2.0066,2.063,2.0787,2.1855,2.2472,2.2903,2.4285,2.4557,2.4408,2.5657,2.5787,2.5549,2.6292,2.6763,2.709,2.709,2.772,2.8511,2.8624,2.8775,2.88,2.8436,2.8599,2.8938,2.9126,2.949,2.9792,2.9792,2.9792,2.9792,2.9792,2.9792,2.9792,2.9792,2.9792,2.9792,2.9792,2.9654,2.9465,2.9164,2.939,2.9542,2.9505,2.9876,3.0191,3.0464,2.9991,2.9717,2.9783,2.9302,2.9002,2.9002,2.9002,2.9002,2.9002,2.9002,2.9317,2.995,2.8931,2.8616,2.8989,2.9336,2.9866,0.0,0.0,0.0,0.0,0.0,0.0,0.0,0.7321,0.0,0.0,0.0,0.0,0.0,0.0,0.0,0.0,0.0,0.0,0.0,0.0,0.0,0.0,0.0,0.0,0.0,0.0,0.0,1.5146,1.5175,1.5516,1.625,1.6708,1.6655,1.6025,1.6117,1.6117,1.5989,1.638,1.6625,1.6799,1.7343,1.7605,1.7605,1.7934,1.8203,1.8517,1.9593,1.9897,1.9748,2.0852,2.1233,2.1227,2.2392,2.2997,2.3369,2.4514,2.4883,2.4946,2.5799,2.6072,2.6047,2.6386,2.6864,2.7281,2.7281,2.7896,2.8599,2.8825,2.9063,2.9214,2.89,2.9051,2.9353,2.9768,3.0137,3.0495,3.0884,3.0959,3.0746,2.9934,2.9792,2.9934,3.0317,2.9834,2.9796,3.0807,2.9988,2.9428,2.9947,2.9892,2.9823,2.9875,3.0164,3.0506,3.0778,3.0531,3.0383,3.0506,3.0211,3.0042,3.0042,3.0042,3.0042,3.0042,3.0042,3.0299,3.0807,2.995,2.969,3.0042,3.0554,3.1058,0.0,0.0,0.0,0.0,0.0,0.0,0.7047,0.7557,0.0,0.0,0.0,0.0,0.0,0.0,0.0,0.0,0.0,0.0,0.0,0.0,0.0,0.0,0.0,0.0,0.0,0.0,1.4745,1.4818,1.5457,1.5908,1.6034,1.6168,1.6196,1.6058,1.5725,1.5702,1.6047,1.6239,1.6514,1.6867,1.7485,1.7773,1.7773,1.8504,1.8821,1.8883,2.0099,2.0591,2.0679,2.1769,2.1785,2.1266,2.26,2.3108,2.317,2.3791,2.4305,2.4788,2.5385,2.5971,2.6411,2.6474,2.6864,2.7329,2.7356,2.7758,2.8298,2.8899,2.9517,2.9986,2.9986,3.0063,3.0317,3.1156,3.1352,3.1546,3.2332,3.2496,3.1947,3.0227,2.9986,3.033,3.1101,3.0179,3.0023,3.2061,3.0443,2.9548,3.1185,3.0573,3.0165,3.053,3.0681,3.0895,3.1231,3.1267,3.1358,3.1587,3.154,3.1511,3.1511,3.1511,3.1511,3.1511,3.1511,3.1511,3.1511,3.0777,3.0807,3.1511,3.1511,3.1511,0.0,0.0,0.0,0.0,0.0,0.0,0.8585,0.8448,0.0,0.0,0.0,0.0,0.0,0.0,0.0,0.0,0.0,0.0,0.0,0.0,0.0,0.0,0.0,0.0,0.0,0.0,1.4446,1.5005,1.6158,1.667,1.6254,1.7207,1.7345,1.6428,1.678,1.6792,1.6404,1.6902,1.7208,1.7295,1.8265,1.8731,1.8744,1.9316,1.9592,1.9592,1.9859,1.9974,2.0062,2.1179,2.1822,2.2114,2.2822,2.3108,2.317,2.3791,2.4067,2.4293,2.5259,2.5674,2.5871,2.6336,2.6864,2.7369,2.7808,2.8335,2.8887,2.9727,3.0582,3.1257,3.1257,3.1644,3.2119,3.2285,3.2321,3.222,3.1881,3.1805,3.1528,3.0613,3.1324,3.192,3.1572,3.1719,3.1678,3.1076,3.146,3.1384,3.0311,3.0793,3.1007,3.0432,3.1236,3.1928,3.2212,3.2228,3.2258,3.2303,3.1795,3.1511,3.1511,3.1511,3.1511,3.1511,3.1511,3.1511,3.1511,3.1351,3.1351,3.1511,3.1511,3.1511,0.0,0.0,0.0,0.8129,0.0,0.0,0.0,0.8953,0.8953,0.0,0.0,0.0,0.0,0.0,0.0,0.0,0.0,0.0,0.0,0.0,0.0,0.0,0.0,0.0,0.0,0.0,1.4198,1.5121,1.5933,1.637,1.6402,1.701,1.7077,1.6513,1.6798,1.681,1.65,1.7087,1.741,1.741,1.8229,1.8744,1.9008,1.9271,1.956,1.9798,1.9798,1.9798,1.9886,2.1029,2.1656,2.1983,2.2782,2.3108,2.3145,2.3434,2.3916,2.4494,2.5021,2.5573,2.6109,2.6399,2.6864,2.7437,2.8091,2.898,2.9917,3.0681,3.1256,3.166,3.1998,3.2337,3.2713,3.3206,3.305,3.2891,3.3016,3.3044,3.2957,3.2608,3.3087,3.3283,3.2498,3.2284,3.2402,3.2949,3.2677,3.2236,3.1699,3.1889,3.176,3.0969,3.1438,3.1869,3.1989,3.1989,3.1989,3.1989,3.169,3.1511,3.1511,3.1511,3.1511,3.1511,3.1511,3.166,3.1989,3.1989,3.1824,3.1511,3.1511,3.1511,0.0,0.0,0.0,0.0,0.0,0.8565,0.0,0.0,0.0,0.9495,0.0,0.0,0.0,0.0,0.0,0.0,0.0,0.0,0.0,0.0,0.0,0.0,0.0,0.0,0.0,0.0,1.4,1.5258,1.5622,1.5986,1.6466,1.65,1.65,1.65,1.65,1.65,1.65,1.6986,1.7234,1.7225,1.7777,1.8342,1.8845,1.8958,1.9284,1.9798,1.9798,1.9861,2.0049,2.1066,2.1556,2.1744,2.2719,2.3108,2.3108,2.3108,2.3822,2.482,2.5,2.5788,2.6748,2.6939,2.7344,2.7897,2.8567,2.9733,3.0995,3.1528,3.1921,3.2302,3.2827,3.3052,3.3331,3.3936,3.3815,3.3693,3.4211,3.4414,3.4474,3.4339,3.4414,3.4267,3.3496,3.2792,3.2911,3.4669,3.3635,3.2769,3.3064,3.2766,3.2228,3.157,3.1615,3.169,3.169,3.169,3.169,3.169,3.157,3.157,3.169,3.169,3.175,3.1884,3.1765,3.1959,3.2512,3.2616,3.2345,3.169,3.169,3.1702,0.0,0.0,0.0,0.0,0.9151,0.0,0.0,0.0,0.9503,0.9133,0.0,0.0,0.0,0.0,0.0,0.0,0.0,0.0,0.0,0.0,0.0,0.0,0.0,0.0,0.0,0.0,1.4019,1.5466,1.6088,1.6423,1.65,1.65,1.65,1.65,1.65,1.65,1.65,1.6563,1.6588,1.66,1.72,1.7765,1.8317,1.8782,1.9284,1.9798,1.9798,2.0087,2.0641,2.1257,2.1782,2.2284,2.2869,2.3108,2.3108,2.3108,2.3822,2.4904,2.5691,2.6645,2.7703,2.846,2.9094,2.9539,2.9638,3.0723,3.1961,3.2019,3.3063,3.4171,3.4246,3.472,3.5065,3.4552,3.4852,3.4927,3.3858,3.4099,3.4339,3.3724,3.4099,3.4472,3.4377,3.4267,3.3895,3.299,3.3647,3.3631,3.1944,3.2168,3.2228,3.157,3.2034,3.2378,3.2378,3.2378,3.2378,3.2378,3.1824,3.1765,3.2348,3.2378,3.2677,3.326,3.2706,3.2407,3.2512,3.311,3.3035,3.2378,3.2378,3.2412,0.0,0.0,0.0,0.0,0.0,0.0,0.0,0.0,0.927,0.0,0.0,0.0,0.0,0.0,0.0,0.0,0.0,0.0,0.0,0.0,0.0,0.0,0.0,0.0,0.0,0.0,0.0,0.0,0.0,1.5567,1.5567,1.617,1.65,1.65,1.65,1.65,1.65,1.65,1.65,1.65,1.6773,1.7338,1.8216,1.8418,1.9007,1.9823,2.0189,2.0465,2.0808,2.2082,2.2739,2.3039,2.4041,2.3901,2.3206,2.4026,2.4853,2.573,2.6906,2.7818,2.8524,2.8876,2.9485,3.0142,3.0528,3.1409,3.2485,3.3267,3.3981,3.4593,3.4966,3.5295,3.5429,3.5145,3.4996,3.4756,3.4188,3.4309,3.4429,3.4113,3.4324,3.4638,3.4996,3.507,3.4891,3.4337,3.4382,3.4038,3.2826,3.2587,3.2228,3.157,3.175,3.2064,3.2482,3.2123,3.2243,3.3036,3.2826,3.299,3.375,3.3765,3.4106,3.4828,3.4547,3.4594,3.5,3.5298,3.5254,3.4985,3.416,3.4015,0.884,0.0,0.0,0.0,0.0,0.0,0.0,0.0,0.0,0.0,0.0,0.0,0.0,0.0,0.0,0.0,0.0,0.0,0.0,0.0,0.0,0.0,0.0,0.0,0.0,0.0,0.0,0.0,1.449,1.4896,1.4896,1.5919,1.65,1.65,1.65,1.65,1.65,1.65,1.65,1.65,1.65,1.7112,1.8204,1.8204,1.8879,2.0105,2.0526,2.1014,2.1601,2.2923,2.3633,2.405,2.5025,2.4724,2.3891,2.5076,2.5778,2.6351,2.798,2.9045,2.969,2.969,3.0232,3.0979,3.1416,3.2253,3.3245,3.4234,3.4503,3.4623,3.51,3.5085,3.4951,3.4951,3.4711,3.4503,3.4503,3.4653,3.4756,3.4756,3.4756,3.4921,3.5415,3.5355,3.522,3.522,3.4651,3.4038,3.3559,3.2916,3.2363,3.2064,3.2049,3.2168,3.2452,3.2433,3.2893,3.4072,3.4286,3.466,3.5256,3.5284,3.5619,3.6337,3.6172,3.6316,3.6802,3.6968,3.7095,3.7106,3.5857,3.5562,0.0,0.0,0.0,0.9387,0.0,0.0,0.0,0.0,0.9104,0.0,0.0,0.0,0.0,0.0,0.0,1.0303,0.0,0.0,0.0,0.0,0.0,0.0,0.0,0.0,0.0,0.0,0.0,1.3161,1.4274,1.4896,1.4896,1.5919,1.65,1.65,1.65,1.65,1.65,1.65,1.65,1.65,1.65,1.7112,1.8204,1.8204,1.9145,2.0771,2.0797,2.1824,2.3523,2.3565,2.4294,2.5342,2.5384,2.537,2.5411,2.6103,2.6281,2.6489,2.8626,3.028,3.1409,3.1409,3.187,3.2422,3.2437,3.3364,3.4459,3.4503,3.4503,3.4503,3.4533,3.4038,3.3559,3.3559,3.4023,3.4503,3.4503,3.4996,3.5474,3.5474,3.5474,3.5474,3.5504,3.4951,3.4533,3.4533,3.3948,3.3514,3.3499,3.2916,3.2751,3.3365,3.344,3.3185,3.2557,3.3779,3.4927,3.5678,3.6346,3.6714,3.6714,3.6714,3.705,3.7726,3.711,3.6786,3.6802,3.7465,3.7844,3.7956,3.7117,3.674,0.0,0.0,1.2423,1.2371,0.0,0.0,0.0,0.0,0.0,0.0,0.0,0.0,0.0,0.0,1.0826,1.122,1.0714,0.0,0.0,0.0,0.0,0.0,0.0,0.0,0.0,0.0,0.0,1.2068,1.2508,1.2722,0.0,1.4456,1.5449,1.5449,1.6132,1.65,1.65,1.6858,1.7034,1.7034,1.7394,1.8194,1.9333,1.9333,2.0078,2.1428,2.1825,2.259,2.3682,2.4509,2.5355,2.6176,2.668,2.6864,2.6884,2.7065,2.7357,2.7954,3.0045,3.1084,3.1511,3.1511,3.1645,3.1914,3.2377,3.2826,3.3365,3.4264,3.4189,3.4023,3.4921,3.4651,3.4262,3.4711,3.4996,3.516,3.516,3.534,3.5504,3.5504,3.5504,3.5504,3.5504,3.5729,3.5735,3.5242,3.5001,3.4895,3.4895,3.4763,3.476,3.4996,3.5027,3.5122,3.5341,3.6203,3.6683,3.6481,3.7094,3.7693,3.8177,3.8177,3.8553,3.9305,3.9082,3.8975,3.8975,3.9216,3.9336,3.9378,3.9113,3.8989,1.2708,1.3271,0.0,1.386,1.3305,0.0,1.2453,0.0,0.0,0.0,0.0,0.0,0.0,0.0,0.0,1.1195,1.063,1.014,0.0,0.9677,0.0,0.0,0.0,0.0,0.0,0.0,1.0327,1.0944,1.1173,1.1374,0.0,0.0,1.4896,1.4896,1.5944,1.6595,1.6774,1.7126,1.7415,1.7585,1.8186,1.8955,1.9915,2.0158,2.0907,2.2067,2.2464,2.3283,2.4351,2.5216,2.6075,2.693,2.7408,2.775,2.7983,2.8174,2.8788,2.962,3.0517,3.1122,3.1511,3.1511,3.166,3.1929,3.2363,3.2841,3.338,3.4279,3.4204,3.4038,3.4921,3.4637,3.4292,3.4981,3.5339,3.5607,3.5834,3.6101,3.6321,3.6321,3.6321,3.6321,3.6321,3.6707,3.6783,3.6006,3.5966,3.6097,3.6334,3.6241,3.6268,3.6497,3.6513,3.6773,3.7473,3.7732,3.7919,3.7965,3.8363,3.8816,3.9315,3.9315,3.9702,4.0476,4.0231,4.0231,4.0476,4.0231,4.0096,4.0096,4.0096,4.0096]}]]